<?xml version="1.0" encoding="UTF-8" standalone="no" ?>
<gpx xmlns="http://www.topografix.com/GPX/1/1" xmlns:xsi="http://www.w3.org/2001/XMLSchema-instance" xsi:schemaLocation="http://www.topografix.com/GPX/1/1 http://www.topografix.com/GPX/1/1/gpx.xsd" version="1.1" creator="VisuGPX - https://www.visugpx.com">
  <metadata>
    <name>Les Plains,Pannessières,Perrigny,La Fontaine en    Serein</name>
  </metadata>
  <trk>
    <name><![CDATA[Les Plains,Pannessières,Perrigny,La Fontaine en    Serein_1]]></name>
    <trkseg>
      <trkpt lat="46.67938" lon="5.62435">
        <ele>547.3</ele>
        <time>2021-03-24T12:40:49Z</time>
      </trkpt>
      <trkpt lat="46.67941" lon="5.6243">
        <ele>545.5</ele>
        <time>2021-03-24T12:41:09Z</time>
      </trkpt>
      <trkpt lat="46.67944" lon="5.62424">
        <ele>542.9</ele>
        <time>2021-03-24T12:41:16Z</time>
      </trkpt>
      <trkpt lat="46.67943" lon="5.62431">
        <ele>540.9</ele>
        <time>2021-03-24T12:41:30Z</time>
      </trkpt>
      <trkpt lat="46.67947" lon="5.62435">
        <ele>541.1</ele>
        <time>2021-03-24T12:41:35Z</time>
      </trkpt>
      <trkpt lat="46.67952" lon="5.62438">
        <ele>540.2</ele>
        <time>2021-03-24T12:41:41Z</time>
      </trkpt>
      <trkpt lat="46.67957" lon="5.62439">
        <ele>537.8</ele>
        <time>2021-03-24T12:41:55Z</time>
      </trkpt>
      <trkpt lat="46.67961" lon="5.62441">
        <ele>535.4</ele>
        <time>2021-03-24T12:42:20Z</time>
      </trkpt>
      <trkpt lat="46.67966" lon="5.62444">
        <ele>534.6</ele>
        <time>2021-03-24T12:42:24Z</time>
      </trkpt>
      <trkpt lat="46.6797" lon="5.62449">
        <ele>534.4</ele>
        <time>2021-03-24T12:42:29Z</time>
      </trkpt>
      <trkpt lat="46.67974" lon="5.62452">
        <ele>534.8</ele>
        <time>2021-03-24T12:42:34Z</time>
      </trkpt>
      <trkpt lat="46.67979" lon="5.62454">
        <ele>535.9</ele>
        <time>2021-03-24T12:42:42Z</time>
      </trkpt>
      <trkpt lat="46.67984" lon="5.62455">
        <ele>536.7</ele>
        <time>2021-03-24T12:42:46Z</time>
      </trkpt>
      <trkpt lat="46.67989" lon="5.62457">
        <ele>537.3</ele>
        <time>2021-03-24T12:42:52Z</time>
      </trkpt>
      <trkpt lat="46.67994" lon="5.6246">
        <ele>537.6</ele>
        <time>2021-03-24T12:42:58Z</time>
      </trkpt>
      <trkpt lat="46.67999" lon="5.62462">
        <ele>537.7</ele>
        <time>2021-03-24T12:43:03Z</time>
      </trkpt>
      <trkpt lat="46.68003" lon="5.62465">
        <ele>537.7</ele>
        <time>2021-03-24T12:43:07Z</time>
      </trkpt>
      <trkpt lat="46.68008" lon="5.62466">
        <ele>537.8</ele>
        <time>2021-03-24T12:43:12Z</time>
      </trkpt>
      <trkpt lat="46.68013" lon="5.62467">
        <ele>538.1</ele>
        <time>2021-03-24T12:43:17Z</time>
      </trkpt>
      <trkpt lat="46.68018" lon="5.62469">
        <ele>539.8</ele>
        <time>2021-03-24T12:43:22Z</time>
      </trkpt>
      <trkpt lat="46.68023" lon="5.62471">
        <ele>540.8</ele>
        <time>2021-03-24T12:43:28Z</time>
      </trkpt>
      <trkpt lat="46.68028" lon="5.62472">
        <ele>541.1</ele>
        <time>2021-03-24T12:43:34Z</time>
      </trkpt>
      <trkpt lat="46.68033" lon="5.62474">
        <ele>540.7</ele>
        <time>2021-03-24T12:43:39Z</time>
      </trkpt>
      <trkpt lat="46.68037" lon="5.62476">
        <ele>540.1</ele>
        <time>2021-03-24T12:43:43Z</time>
      </trkpt>
      <trkpt lat="46.68042" lon="5.62477">
        <ele>539.9</ele>
        <time>2021-03-24T12:43:47Z</time>
      </trkpt>
      <trkpt lat="46.68047" lon="5.62478">
        <ele>539.5</ele>
        <time>2021-03-24T12:43:51Z</time>
      </trkpt>
      <trkpt lat="46.68051" lon="5.62481">
        <ele>538.9</ele>
        <time>2021-03-24T12:43:56Z</time>
      </trkpt>
      <trkpt lat="46.68055" lon="5.62484">
        <ele>538.4</ele>
        <time>2021-03-24T12:44:00Z</time>
      </trkpt>
      <trkpt lat="46.68059" lon="5.62487">
        <ele>538</ele>
        <time>2021-03-24T12:44:04Z</time>
      </trkpt>
      <trkpt lat="46.68065" lon="5.6249">
        <ele>537.9</ele>
        <time>2021-03-24T12:44:09Z</time>
      </trkpt>
      <trkpt lat="46.6807" lon="5.62493">
        <ele>537.8</ele>
        <time>2021-03-24T12:44:14Z</time>
      </trkpt>
      <trkpt lat="46.68075" lon="5.62494">
        <ele>537.3</ele>
        <time>2021-03-24T12:44:19Z</time>
      </trkpt>
      <trkpt lat="46.6808" lon="5.62497">
        <ele>536.8</ele>
        <time>2021-03-24T12:44:24Z</time>
      </trkpt>
      <trkpt lat="46.68084" lon="5.62501">
        <ele>535.9</ele>
        <time>2021-03-24T12:44:29Z</time>
      </trkpt>
      <trkpt lat="46.68089" lon="5.62505">
        <ele>535.7</ele>
        <time>2021-03-24T12:44:33Z</time>
      </trkpt>
      <trkpt lat="46.68093" lon="5.62509">
        <ele>535.5</ele>
        <time>2021-03-24T12:44:38Z</time>
      </trkpt>
      <trkpt lat="46.68097" lon="5.62513">
        <ele>535.2</ele>
        <time>2021-03-24T12:44:44Z</time>
      </trkpt>
      <trkpt lat="46.68101" lon="5.62516">
        <ele>534.8</ele>
        <time>2021-03-24T12:44:49Z</time>
      </trkpt>
      <trkpt lat="46.68105" lon="5.62519">
        <ele>534.8</ele>
        <time>2021-03-24T12:44:53Z</time>
      </trkpt>
      <trkpt lat="46.6811" lon="5.62523">
        <ele>534.6</ele>
        <time>2021-03-24T12:44:58Z</time>
      </trkpt>
      <trkpt lat="46.68114" lon="5.62525">
        <ele>534.3</ele>
        <time>2021-03-24T12:45:03Z</time>
      </trkpt>
      <trkpt lat="46.68119" lon="5.62527">
        <ele>533.9</ele>
        <time>2021-03-24T12:45:08Z</time>
      </trkpt>
      <trkpt lat="46.68122" lon="5.62533">
        <ele>534</ele>
        <time>2021-03-24T12:45:13Z</time>
      </trkpt>
      <trkpt lat="46.68127" lon="5.62535">
        <ele>535.1</ele>
        <time>2021-03-24T12:45:27Z</time>
      </trkpt>
      <trkpt lat="46.68131" lon="5.62538">
        <ele>535.1</ele>
        <time>2021-03-24T12:45:32Z</time>
      </trkpt>
      <trkpt lat="46.68136" lon="5.62542">
        <ele>535.1</ele>
        <time>2021-03-24T12:45:38Z</time>
      </trkpt>
      <trkpt lat="46.6814" lon="5.62546">
        <ele>534.6</ele>
        <time>2021-03-24T12:45:42Z</time>
      </trkpt>
      <trkpt lat="46.68142" lon="5.62552">
        <ele>533.8</ele>
        <time>2021-03-24T12:45:47Z</time>
      </trkpt>
      <trkpt lat="46.68145" lon="5.62558">
        <ele>533.3</ele>
        <time>2021-03-24T12:45:52Z</time>
      </trkpt>
      <trkpt lat="46.68148" lon="5.62564">
        <ele>533.3</ele>
        <time>2021-03-24T12:45:57Z</time>
      </trkpt>
      <trkpt lat="46.68151" lon="5.6257">
        <ele>533.2</ele>
        <time>2021-03-24T12:46:02Z</time>
      </trkpt>
      <trkpt lat="46.68154" lon="5.62576">
        <ele>533.1</ele>
        <time>2021-03-24T12:46:06Z</time>
      </trkpt>
      <trkpt lat="46.68157" lon="5.6258">
        <ele>533.2</ele>
        <time>2021-03-24T12:46:10Z</time>
      </trkpt>
      <trkpt lat="46.68162" lon="5.62585">
        <ele>533.4</ele>
        <time>2021-03-24T12:46:14Z</time>
      </trkpt>
      <trkpt lat="46.68166" lon="5.62588">
        <ele>533.9</ele>
        <time>2021-03-24T12:46:19Z</time>
      </trkpt>
      <trkpt lat="46.68171" lon="5.62593">
        <ele>534.7</ele>
        <time>2021-03-24T12:46:24Z</time>
      </trkpt>
      <trkpt lat="46.68175" lon="5.62597">
        <ele>535.3</ele>
        <time>2021-03-24T12:46:28Z</time>
      </trkpt>
      <trkpt lat="46.68178" lon="5.62601">
        <ele>536</ele>
        <time>2021-03-24T12:46:32Z</time>
      </trkpt>
      <trkpt lat="46.68182" lon="5.62605">
        <ele>536.3</ele>
        <time>2021-03-24T12:46:37Z</time>
      </trkpt>
      <trkpt lat="46.68187" lon="5.6261">
        <ele>537</ele>
        <time>2021-03-24T12:46:42Z</time>
      </trkpt>
      <trkpt lat="46.68192" lon="5.62613">
        <ele>537.8</ele>
        <time>2021-03-24T12:46:47Z</time>
      </trkpt>
      <trkpt lat="46.68197" lon="5.62616">
        <ele>538.6</ele>
        <time>2021-03-24T12:46:52Z</time>
      </trkpt>
      <trkpt lat="46.68202" lon="5.62619">
        <ele>539.2</ele>
        <time>2021-03-24T12:46:57Z</time>
      </trkpt>
      <trkpt lat="46.68207" lon="5.62621">
        <ele>539.3</ele>
        <time>2021-03-24T12:47:01Z</time>
      </trkpt>
      <trkpt lat="46.68212" lon="5.62624">
        <ele>539.4</ele>
        <time>2021-03-24T12:47:06Z</time>
      </trkpt>
      <trkpt lat="46.68217" lon="5.62626">
        <ele>539.7</ele>
        <time>2021-03-24T12:47:11Z</time>
      </trkpt>
      <trkpt lat="46.68222" lon="5.62629">
        <ele>539.9</ele>
        <time>2021-03-24T12:47:16Z</time>
      </trkpt>
      <trkpt lat="46.68227" lon="5.62632">
        <ele>539.5</ele>
        <time>2021-03-24T12:47:21Z</time>
      </trkpt>
      <trkpt lat="46.68232" lon="5.62635">
        <ele>539.3</ele>
        <time>2021-03-24T12:47:26Z</time>
      </trkpt>
      <trkpt lat="46.68236" lon="5.62638">
        <ele>539.1</ele>
        <time>2021-03-24T12:47:31Z</time>
      </trkpt>
      <trkpt lat="46.68242" lon="5.6264">
        <ele>539.6</ele>
        <time>2021-03-24T12:47:36Z</time>
      </trkpt>
      <trkpt lat="46.68247" lon="5.62642">
        <ele>539.9</ele>
        <time>2021-03-24T12:47:41Z</time>
      </trkpt>
      <trkpt lat="46.68252" lon="5.62644">
        <ele>539.6</ele>
        <time>2021-03-24T12:47:46Z</time>
      </trkpt>
      <trkpt lat="46.68257" lon="5.62647">
        <ele>539.1</ele>
        <time>2021-03-24T12:47:51Z</time>
      </trkpt>
      <trkpt lat="46.68262" lon="5.6265">
        <ele>538.4</ele>
        <time>2021-03-24T12:47:56Z</time>
      </trkpt>
      <trkpt lat="46.68266" lon="5.62654">
        <ele>538.3</ele>
        <time>2021-03-24T12:48:01Z</time>
      </trkpt>
      <trkpt lat="46.6827" lon="5.62657">
        <ele>538.7</ele>
        <time>2021-03-24T12:48:06Z</time>
      </trkpt>
      <trkpt lat="46.68275" lon="5.62659">
        <ele>539.2</ele>
        <time>2021-03-24T12:48:11Z</time>
      </trkpt>
      <trkpt lat="46.6828" lon="5.62663">
        <ele>539.6</ele>
        <time>2021-03-24T12:48:16Z</time>
      </trkpt>
      <trkpt lat="46.68284" lon="5.62667">
        <ele>539.9</ele>
        <time>2021-03-24T12:48:20Z</time>
      </trkpt>
      <trkpt lat="46.68288" lon="5.62669">
        <ele>540.1</ele>
        <time>2021-03-24T12:48:24Z</time>
      </trkpt>
      <trkpt lat="46.68294" lon="5.62671">
        <ele>540.6</ele>
        <time>2021-03-24T12:48:29Z</time>
      </trkpt>
      <trkpt lat="46.68298" lon="5.62674">
        <ele>541.1</ele>
        <time>2021-03-24T12:48:34Z</time>
      </trkpt>
      <trkpt lat="46.68303" lon="5.62677">
        <ele>541.1</ele>
        <time>2021-03-24T12:48:39Z</time>
      </trkpt>
      <trkpt lat="46.68308" lon="5.62679">
        <ele>540.9</ele>
        <time>2021-03-24T12:48:44Z</time>
      </trkpt>
      <trkpt lat="46.68312" lon="5.62682">
        <ele>540.7</ele>
        <time>2021-03-24T12:48:49Z</time>
      </trkpt>
      <trkpt lat="46.68317" lon="5.62684">
        <ele>540.5</ele>
        <time>2021-03-24T12:48:54Z</time>
      </trkpt>
      <trkpt lat="46.68322" lon="5.62687">
        <ele>540.3</ele>
        <time>2021-03-24T12:48:59Z</time>
      </trkpt>
      <trkpt lat="46.68326" lon="5.6269">
        <ele>540.2</ele>
        <time>2021-03-24T12:49:04Z</time>
      </trkpt>
      <trkpt lat="46.68331" lon="5.62692">
        <ele>540.2</ele>
        <time>2021-03-24T12:49:09Z</time>
      </trkpt>
      <trkpt lat="46.68336" lon="5.62694">
        <ele>540.2</ele>
        <time>2021-03-24T12:49:14Z</time>
      </trkpt>
      <trkpt lat="46.68341" lon="5.62695">
        <ele>540.3</ele>
        <time>2021-03-24T12:49:19Z</time>
      </trkpt>
      <trkpt lat="46.68346" lon="5.62697">
        <ele>540.4</ele>
        <time>2021-03-24T12:49:24Z</time>
      </trkpt>
      <trkpt lat="46.68351" lon="5.62698">
        <ele>540.2</ele>
        <time>2021-03-24T12:49:29Z</time>
      </trkpt>
      <trkpt lat="46.68356" lon="5.62699">
        <ele>539.7</ele>
        <time>2021-03-24T12:49:34Z</time>
      </trkpt>
      <trkpt lat="46.68361" lon="5.627">
        <ele>539.3</ele>
        <time>2021-03-24T12:49:39Z</time>
      </trkpt>
      <trkpt lat="46.68366" lon="5.62701">
        <ele>539.3</ele>
        <time>2021-03-24T12:49:43Z</time>
      </trkpt>
      <trkpt lat="46.68371" lon="5.62701">
        <ele>539.5</ele>
        <time>2021-03-24T12:49:48Z</time>
      </trkpt>
      <trkpt lat="46.68376" lon="5.62702">
        <ele>540</ele>
        <time>2021-03-24T12:49:53Z</time>
      </trkpt>
      <trkpt lat="46.68381" lon="5.62703">
        <ele>540.6</ele>
        <time>2021-03-24T12:49:58Z</time>
      </trkpt>
      <trkpt lat="46.68386" lon="5.62702">
        <ele>540.7</ele>
        <time>2021-03-24T12:50:03Z</time>
      </trkpt>
      <trkpt lat="46.68392" lon="5.627">
        <ele>540.1</ele>
        <time>2021-03-24T12:50:09Z</time>
      </trkpt>
      <trkpt lat="46.68397" lon="5.62699">
        <ele>540</ele>
        <time>2021-03-24T12:50:13Z</time>
      </trkpt>
      <trkpt lat="46.68401" lon="5.62699">
        <ele>540.2</ele>
        <time>2021-03-24T12:50:17Z</time>
      </trkpt>
      <trkpt lat="46.68406" lon="5.62699">
        <ele>540.3</ele>
        <time>2021-03-24T12:50:22Z</time>
      </trkpt>
      <trkpt lat="46.68412" lon="5.62699">
        <ele>540.6</ele>
        <time>2021-03-24T12:50:28Z</time>
      </trkpt>
      <trkpt lat="46.68417" lon="5.62698">
        <ele>541.2</ele>
        <time>2021-03-24T12:50:33Z</time>
      </trkpt>
      <trkpt lat="46.68422" lon="5.62697">
        <ele>541.9</ele>
        <time>2021-03-24T12:50:37Z</time>
      </trkpt>
      <trkpt lat="46.68427" lon="5.62697">
        <ele>542.4</ele>
        <time>2021-03-24T12:50:41Z</time>
      </trkpt>
      <trkpt lat="46.68432" lon="5.62696">
        <ele>542.1</ele>
        <time>2021-03-24T12:50:59Z</time>
      </trkpt>
      <trkpt lat="46.68437" lon="5.62694">
        <ele>542.3</ele>
        <time>2021-03-24T12:51:04Z</time>
      </trkpt>
      <trkpt lat="46.68442" lon="5.62692">
        <ele>542.5</ele>
        <time>2021-03-24T12:51:09Z</time>
      </trkpt>
      <trkpt lat="46.68448" lon="5.6269">
        <ele>542.8</ele>
        <time>2021-03-24T12:51:14Z</time>
      </trkpt>
      <trkpt lat="46.68452" lon="5.62689">
        <ele>542.8</ele>
        <time>2021-03-24T12:51:18Z</time>
      </trkpt>
      <trkpt lat="46.68458" lon="5.62688">
        <ele>542.6</ele>
        <time>2021-03-24T12:51:23Z</time>
      </trkpt>
      <trkpt lat="46.68462" lon="5.62687">
        <ele>542.4</ele>
        <time>2021-03-24T12:51:27Z</time>
      </trkpt>
      <trkpt lat="46.68467" lon="5.62687">
        <ele>542.4</ele>
        <time>2021-03-24T12:51:31Z</time>
      </trkpt>
      <trkpt lat="46.68472" lon="5.62687">
        <ele>542.5</ele>
        <time>2021-03-24T12:51:35Z</time>
      </trkpt>
      <trkpt lat="46.68476" lon="5.62688">
        <ele>542.8</ele>
        <time>2021-03-24T12:51:39Z</time>
      </trkpt>
      <trkpt lat="46.68481" lon="5.62689">
        <ele>543.2</ele>
        <time>2021-03-24T12:51:44Z</time>
      </trkpt>
      <trkpt lat="46.68486" lon="5.62688">
        <ele>543.5</ele>
        <time>2021-03-24T12:51:49Z</time>
      </trkpt>
      <trkpt lat="46.68491" lon="5.62687">
        <ele>543.7</ele>
        <time>2021-03-24T12:51:55Z</time>
      </trkpt>
      <trkpt lat="46.68495" lon="5.62685">
        <ele>544.2</ele>
        <time>2021-03-24T12:52:03Z</time>
      </trkpt>
      <trkpt lat="46.685" lon="5.62683">
        <ele>544.7</ele>
        <time>2021-03-24T12:52:15Z</time>
      </trkpt>
      <trkpt lat="46.68504" lon="5.62686">
        <ele>544.9</ele>
        <time>2021-03-24T12:52:19Z</time>
      </trkpt>
      <trkpt lat="46.68509" lon="5.62688">
        <ele>545.4</ele>
        <time>2021-03-24T12:52:24Z</time>
      </trkpt>
      <trkpt lat="46.68515" lon="5.6269">
        <ele>545.7</ele>
        <time>2021-03-24T12:52:30Z</time>
      </trkpt>
      <trkpt lat="46.68521" lon="5.62688">
        <ele>545.8</ele>
        <time>2021-03-24T12:52:35Z</time>
      </trkpt>
      <trkpt lat="46.68526" lon="5.62689">
        <ele>545.7</ele>
        <time>2021-03-24T12:52:39Z</time>
      </trkpt>
      <trkpt lat="46.68533" lon="5.6269">
        <ele>545.4</ele>
        <time>2021-03-24T12:52:43Z</time>
      </trkpt>
      <trkpt lat="46.68539" lon="5.62691">
        <ele>544.9</ele>
        <time>2021-03-24T12:52:47Z</time>
      </trkpt>
      <trkpt lat="46.68544" lon="5.62692">
        <ele>543.9</ele>
        <time>2021-03-24T12:52:51Z</time>
      </trkpt>
      <trkpt lat="46.6855" lon="5.62694">
        <ele>542.9</ele>
        <time>2021-03-24T12:52:55Z</time>
      </trkpt>
      <trkpt lat="46.68555" lon="5.62697">
        <ele>542.2</ele>
        <time>2021-03-24T12:52:59Z</time>
      </trkpt>
      <trkpt lat="46.68558" lon="5.62701">
        <ele>541.5</ele>
        <time>2021-03-24T12:53:03Z</time>
      </trkpt>
      <trkpt lat="46.68563" lon="5.62698">
        <ele>540.9</ele>
        <time>2021-03-24T12:53:20Z</time>
      </trkpt>
      <trkpt lat="46.68566" lon="5.62693">
        <ele>540.1</ele>
        <time>2021-03-24T12:53:25Z</time>
      </trkpt>
      <trkpt lat="46.68569" lon="5.62686">
        <ele>538.9</ele>
        <time>2021-03-24T12:53:31Z</time>
      </trkpt>
      <trkpt lat="46.6857" lon="5.62679">
        <ele>538.1</ele>
        <time>2021-03-24T12:53:36Z</time>
      </trkpt>
      <trkpt lat="46.68571" lon="5.62671">
        <ele>537.6</ele>
        <time>2021-03-24T12:53:40Z</time>
      </trkpt>
      <trkpt lat="46.68571" lon="5.62664">
        <ele>537.4</ele>
        <time>2021-03-24T12:53:45Z</time>
      </trkpt>
      <trkpt lat="46.68572" lon="5.62656">
        <ele>537.4</ele>
        <time>2021-03-24T12:53:50Z</time>
      </trkpt>
      <trkpt lat="46.68574" lon="5.6265">
        <ele>537.1</ele>
        <time>2021-03-24T12:53:55Z</time>
      </trkpt>
      <trkpt lat="46.68576" lon="5.62643">
        <ele>536.8</ele>
        <time>2021-03-24T12:54:00Z</time>
      </trkpt>
      <trkpt lat="46.68578" lon="5.62636">
        <ele>537.2</ele>
        <time>2021-03-24T12:54:05Z</time>
      </trkpt>
      <trkpt lat="46.68579" lon="5.62629">
        <ele>537.8</ele>
        <time>2021-03-24T12:54:10Z</time>
      </trkpt>
      <trkpt lat="46.6858" lon="5.62621">
        <ele>538.2</ele>
        <time>2021-03-24T12:54:15Z</time>
      </trkpt>
      <trkpt lat="46.68582" lon="5.62613">
        <ele>538.4</ele>
        <time>2021-03-24T12:54:20Z</time>
      </trkpt>
      <trkpt lat="46.68584" lon="5.62608">
        <ele>538.8</ele>
        <time>2021-03-24T12:54:24Z</time>
      </trkpt>
      <trkpt lat="46.68587" lon="5.62601">
        <ele>539.5</ele>
        <time>2021-03-24T12:54:29Z</time>
      </trkpt>
      <trkpt lat="46.68589" lon="5.62594">
        <ele>539.8</ele>
        <time>2021-03-24T12:54:34Z</time>
      </trkpt>
      <trkpt lat="46.68592" lon="5.62589">
        <ele>540.2</ele>
        <time>2021-03-24T12:54:39Z</time>
      </trkpt>
      <trkpt lat="46.68595" lon="5.62583">
        <ele>541.1</ele>
        <time>2021-03-24T12:54:44Z</time>
      </trkpt>
      <trkpt lat="46.68598" lon="5.62578">
        <ele>541.8</ele>
        <time>2021-03-24T12:54:48Z</time>
      </trkpt>
      <trkpt lat="46.686" lon="5.6257">
        <ele>542.6</ele>
        <time>2021-03-24T12:54:53Z</time>
      </trkpt>
      <trkpt lat="46.68602" lon="5.62563">
        <ele>543.6</ele>
        <time>2021-03-24T12:54:58Z</time>
      </trkpt>
      <trkpt lat="46.68605" lon="5.62557">
        <ele>544.7</ele>
        <time>2021-03-24T12:55:02Z</time>
      </trkpt>
      <trkpt lat="46.68608" lon="5.6255">
        <ele>545.8</ele>
        <time>2021-03-24T12:55:07Z</time>
      </trkpt>
      <trkpt lat="46.68611" lon="5.62545">
        <ele>547</ele>
        <time>2021-03-24T12:55:11Z</time>
      </trkpt>
      <trkpt lat="46.68613" lon="5.62539">
        <ele>548.2</ele>
        <time>2021-03-24T12:55:16Z</time>
      </trkpt>
      <trkpt lat="46.68616" lon="5.62532">
        <ele>544.6</ele>
        <time>2021-03-24T12:56:55Z</time>
      </trkpt>
      <trkpt lat="46.68619" lon="5.62527">
        <ele>543.8</ele>
        <time>2021-03-24T12:56:59Z</time>
      </trkpt>
      <trkpt lat="46.68622" lon="5.62522">
        <ele>543.3</ele>
        <time>2021-03-24T12:57:03Z</time>
      </trkpt>
      <trkpt lat="46.68624" lon="5.62514">
        <ele>542.9</ele>
        <time>2021-03-24T12:57:08Z</time>
      </trkpt>
      <trkpt lat="46.68625" lon="5.62508">
        <ele>543.4</ele>
        <time>2021-03-24T12:57:12Z</time>
      </trkpt>
      <trkpt lat="46.68628" lon="5.62501">
        <ele>543.8</ele>
        <time>2021-03-24T12:57:17Z</time>
      </trkpt>
      <trkpt lat="46.6863" lon="5.62495">
        <ele>544.3</ele>
        <time>2021-03-24T12:57:21Z</time>
      </trkpt>
      <trkpt lat="46.68632" lon="5.62489">
        <ele>544.9</ele>
        <time>2021-03-24T12:57:25Z</time>
      </trkpt>
      <trkpt lat="46.68634" lon="5.62482">
        <ele>545.7</ele>
        <time>2021-03-24T12:57:30Z</time>
      </trkpt>
      <trkpt lat="46.68636" lon="5.62475">
        <ele>546.4</ele>
        <time>2021-03-24T12:57:35Z</time>
      </trkpt>
      <trkpt lat="46.68638" lon="5.62468">
        <ele>546.7</ele>
        <time>2021-03-24T12:57:39Z</time>
      </trkpt>
      <trkpt lat="46.68639" lon="5.62462">
        <ele>547.2</ele>
        <time>2021-03-24T12:57:44Z</time>
      </trkpt>
      <trkpt lat="46.68643" lon="5.62459">
        <ele>546.2</ele>
        <time>2021-03-24T12:58:15Z</time>
      </trkpt>
      <trkpt lat="46.68647" lon="5.62454">
        <ele>546.2</ele>
        <time>2021-03-24T12:58:21Z</time>
      </trkpt>
      <trkpt lat="46.68649" lon="5.62446">
        <ele>546.1</ele>
        <time>2021-03-24T12:58:26Z</time>
      </trkpt>
      <trkpt lat="46.68651" lon="5.6244">
        <ele>545.8</ele>
        <time>2021-03-24T12:58:31Z</time>
      </trkpt>
      <trkpt lat="46.68654" lon="5.62434">
        <ele>545.4</ele>
        <time>2021-03-24T12:58:36Z</time>
      </trkpt>
      <trkpt lat="46.68656" lon="5.62428">
        <ele>544.8</ele>
        <time>2021-03-24T12:58:41Z</time>
      </trkpt>
      <trkpt lat="46.68658" lon="5.62422">
        <ele>544</ele>
        <time>2021-03-24T12:58:46Z</time>
      </trkpt>
      <trkpt lat="46.6866" lon="5.62415">
        <ele>543.5</ele>
        <time>2021-03-24T12:58:51Z</time>
      </trkpt>
      <trkpt lat="46.68663" lon="5.62409">
        <ele>542.8</ele>
        <time>2021-03-24T12:58:55Z</time>
      </trkpt>
      <trkpt lat="46.68665" lon="5.62403">
        <ele>541.9</ele>
        <time>2021-03-24T12:58:59Z</time>
      </trkpt>
      <trkpt lat="46.68665" lon="5.62393">
        <ele>540.6</ele>
        <time>2021-03-24T12:59:03Z</time>
      </trkpt>
      <trkpt lat="46.68666" lon="5.62386">
        <ele>539.1</ele>
        <time>2021-03-24T12:59:07Z</time>
      </trkpt>
      <trkpt lat="46.68669" lon="5.6238">
        <ele>537.9</ele>
        <time>2021-03-24T12:59:12Z</time>
      </trkpt>
      <trkpt lat="46.68672" lon="5.62376">
        <ele>537.2</ele>
        <time>2021-03-24T12:59:16Z</time>
      </trkpt>
      <trkpt lat="46.68675" lon="5.62371">
        <ele>536.8</ele>
        <time>2021-03-24T12:59:20Z</time>
      </trkpt>
      <trkpt lat="46.68676" lon="5.62364">
        <ele>536</ele>
        <time>2021-03-24T12:59:28Z</time>
      </trkpt>
      <trkpt lat="46.68675" lon="5.62357">
        <ele>536</ele>
        <time>2021-03-24T12:59:58Z</time>
      </trkpt>
      <trkpt lat="46.68679" lon="5.62351">
        <ele>537.6</ele>
        <time>2021-03-24T13:00:02Z</time>
      </trkpt>
      <trkpt lat="46.68681" lon="5.62345">
        <ele>539.2</ele>
        <time>2021-03-24T13:00:08Z</time>
      </trkpt>
      <trkpt lat="46.68683" lon="5.62338">
        <ele>539.9</ele>
        <time>2021-03-24T13:00:14Z</time>
      </trkpt>
      <trkpt lat="46.68685" lon="5.62332">
        <ele>539.7</ele>
        <time>2021-03-24T13:00:20Z</time>
      </trkpt>
      <trkpt lat="46.68688" lon="5.62326">
        <ele>538.9</ele>
        <time>2021-03-24T13:00:31Z</time>
      </trkpt>
      <trkpt lat="46.68691" lon="5.62321">
        <ele>539.1</ele>
        <time>2021-03-24T13:00:35Z</time>
      </trkpt>
      <trkpt lat="46.68695" lon="5.62316">
        <ele>540.1</ele>
        <time>2021-03-24T13:00:39Z</time>
      </trkpt>
      <trkpt lat="46.68696" lon="5.62309">
        <ele>541.3</ele>
        <time>2021-03-24T13:00:44Z</time>
      </trkpt>
      <trkpt lat="46.68699" lon="5.62303">
        <ele>542.3</ele>
        <time>2021-03-24T13:00:48Z</time>
      </trkpt>
      <trkpt lat="46.68702" lon="5.62296">
        <ele>542.7</ele>
        <time>2021-03-24T13:00:53Z</time>
      </trkpt>
      <trkpt lat="46.68703" lon="5.62288">
        <ele>542.6</ele>
        <time>2021-03-24T13:00:58Z</time>
      </trkpt>
      <trkpt lat="46.68704" lon="5.6228">
        <ele>542.6</ele>
        <time>2021-03-24T13:01:03Z</time>
      </trkpt>
      <trkpt lat="46.68708" lon="5.62274">
        <ele>542.8</ele>
        <time>2021-03-24T13:01:07Z</time>
      </trkpt>
      <trkpt lat="46.68712" lon="5.6227">
        <ele>540.7</ele>
        <time>2021-03-24T13:01:23Z</time>
      </trkpt>
      <trkpt lat="46.68717" lon="5.62266">
        <ele>540.8</ele>
        <time>2021-03-24T13:01:27Z</time>
      </trkpt>
      <trkpt lat="46.68719" lon="5.6226">
        <ele>540.7</ele>
        <time>2021-03-24T13:01:32Z</time>
      </trkpt>
      <trkpt lat="46.68723" lon="5.62253">
        <ele>540.9</ele>
        <time>2021-03-24T13:01:37Z</time>
      </trkpt>
      <trkpt lat="46.68723" lon="5.62247">
        <ele>540.8</ele>
        <time>2021-03-24T13:01:41Z</time>
      </trkpt>
      <trkpt lat="46.68726" lon="5.6224">
        <ele>541</ele>
        <time>2021-03-24T13:01:46Z</time>
      </trkpt>
      <trkpt lat="46.68726" lon="5.62232">
        <ele>540.8</ele>
        <time>2021-03-24T13:01:50Z</time>
      </trkpt>
      <trkpt lat="46.68728" lon="5.62226">
        <ele>540.5</ele>
        <time>2021-03-24T13:01:55Z</time>
      </trkpt>
      <trkpt lat="46.6873" lon="5.62221">
        <ele>539.9</ele>
        <time>2021-03-24T13:02:01Z</time>
      </trkpt>
      <trkpt lat="46.68732" lon="5.62214">
        <ele>539.1</ele>
        <time>2021-03-24T13:02:06Z</time>
      </trkpt>
      <trkpt lat="46.68734" lon="5.62206">
        <ele>538.3</ele>
        <time>2021-03-24T13:02:11Z</time>
      </trkpt>
      <trkpt lat="46.68736" lon="5.622">
        <ele>537.7</ele>
        <time>2021-03-24T13:02:15Z</time>
      </trkpt>
      <trkpt lat="46.68739" lon="5.62194">
        <ele>537.6</ele>
        <time>2021-03-24T13:02:19Z</time>
      </trkpt>
      <trkpt lat="46.68742" lon="5.62189">
        <ele>537.3</ele>
        <time>2021-03-24T13:02:23Z</time>
      </trkpt>
      <trkpt lat="46.68743" lon="5.62182">
        <ele>537</ele>
        <time>2021-03-24T13:02:27Z</time>
      </trkpt>
      <trkpt lat="46.68743" lon="5.62174">
        <ele>536.7</ele>
        <time>2021-03-24T13:02:31Z</time>
      </trkpt>
      <trkpt lat="46.68743" lon="5.62168">
        <ele>536.6</ele>
        <time>2021-03-24T13:02:35Z</time>
      </trkpt>
      <trkpt lat="46.68744" lon="5.62161">
        <ele>536.4</ele>
        <time>2021-03-24T13:02:39Z</time>
      </trkpt>
      <trkpt lat="46.68745" lon="5.62154">
        <ele>536.4</ele>
        <time>2021-03-24T13:02:43Z</time>
      </trkpt>
      <trkpt lat="46.68748" lon="5.62148">
        <ele>536.1</ele>
        <time>2021-03-24T13:02:48Z</time>
      </trkpt>
      <trkpt lat="46.68752" lon="5.62143">
        <ele>536.6</ele>
        <time>2021-03-24T13:02:52Z</time>
      </trkpt>
      <trkpt lat="46.68757" lon="5.62138">
        <ele>537.5</ele>
        <time>2021-03-24T13:02:56Z</time>
      </trkpt>
      <trkpt lat="46.68759" lon="5.62131">
        <ele>537.9</ele>
        <time>2021-03-24T13:03:00Z</time>
      </trkpt>
      <trkpt lat="46.68762" lon="5.62125">
        <ele>538.3</ele>
        <time>2021-03-24T13:03:04Z</time>
      </trkpt>
      <trkpt lat="46.68765" lon="5.62118">
        <ele>538.5</ele>
        <time>2021-03-24T13:03:08Z</time>
      </trkpt>
      <trkpt lat="46.68768" lon="5.62113">
        <ele>539.6</ele>
        <time>2021-03-24T13:03:12Z</time>
      </trkpt>
      <trkpt lat="46.68772" lon="5.62108">
        <ele>540.8</ele>
        <time>2021-03-24T13:03:16Z</time>
      </trkpt>
      <trkpt lat="46.68774" lon="5.62102">
        <ele>541.7</ele>
        <time>2021-03-24T13:03:20Z</time>
      </trkpt>
      <trkpt lat="46.68776" lon="5.62095">
        <ele>542.5</ele>
        <time>2021-03-24T13:03:24Z</time>
      </trkpt>
      <trkpt lat="46.68777" lon="5.62088">
        <ele>542.8</ele>
        <time>2021-03-24T13:03:28Z</time>
      </trkpt>
      <trkpt lat="46.6878" lon="5.62083">
        <ele>542.8</ele>
        <time>2021-03-24T13:03:33Z</time>
      </trkpt>
      <trkpt lat="46.68783" lon="5.62078">
        <ele>543</ele>
        <time>2021-03-24T13:03:38Z</time>
      </trkpt>
      <trkpt lat="46.68786" lon="5.62072">
        <ele>543.3</ele>
        <time>2021-03-24T13:03:43Z</time>
      </trkpt>
      <trkpt lat="46.68788" lon="5.62064">
        <ele>543.6</ele>
        <time>2021-03-24T13:03:48Z</time>
      </trkpt>
      <trkpt lat="46.68791" lon="5.62059">
        <ele>543.7</ele>
        <time>2021-03-24T13:03:53Z</time>
      </trkpt>
      <trkpt lat="46.68795" lon="5.62054">
        <ele>543.7</ele>
        <time>2021-03-24T13:03:58Z</time>
      </trkpt>
      <trkpt lat="46.68798" lon="5.62048">
        <ele>543.6</ele>
        <time>2021-03-24T13:04:03Z</time>
      </trkpt>
      <trkpt lat="46.688" lon="5.62041">
        <ele>543.5</ele>
        <time>2021-03-24T13:04:07Z</time>
      </trkpt>
      <trkpt lat="46.68801" lon="5.62035">
        <ele>543</ele>
        <time>2021-03-24T13:04:14Z</time>
      </trkpt>
      <trkpt lat="46.68796" lon="5.62033">
        <ele>542.5</ele>
        <time>2021-03-24T13:04:31Z</time>
      </trkpt>
      <trkpt lat="46.68787" lon="5.62034">
        <ele>542.4</ele>
        <time>2021-03-24T13:04:35Z</time>
      </trkpt>
      <trkpt lat="46.68789" lon="5.62028">
        <ele>541.8</ele>
        <time>2021-03-24T13:04:52Z</time>
      </trkpt>
      <trkpt lat="46.68793" lon="5.62023">
        <ele>540.6</ele>
        <time>2021-03-24T13:05:04Z</time>
      </trkpt>
      <trkpt lat="46.68799" lon="5.62019">
        <ele>541</ele>
        <time>2021-03-24T13:05:08Z</time>
      </trkpt>
      <trkpt lat="46.68804" lon="5.62015">
        <ele>542</ele>
        <time>2021-03-24T13:05:12Z</time>
      </trkpt>
      <trkpt lat="46.68808" lon="5.6201">
        <ele>542.8</ele>
        <time>2021-03-24T13:05:16Z</time>
      </trkpt>
      <trkpt lat="46.68812" lon="5.62005">
        <ele>543.7</ele>
        <time>2021-03-24T13:05:20Z</time>
      </trkpt>
      <trkpt lat="46.68815" lon="5.61999">
        <ele>544.5</ele>
        <time>2021-03-24T13:05:25Z</time>
      </trkpt>
      <trkpt lat="46.68817" lon="5.61993">
        <ele>545.1</ele>
        <time>2021-03-24T13:05:30Z</time>
      </trkpt>
      <trkpt lat="46.6882" lon="5.61988">
        <ele>545.4</ele>
        <time>2021-03-24T13:05:35Z</time>
      </trkpt>
      <trkpt lat="46.68822" lon="5.61981">
        <ele>545.7</ele>
        <time>2021-03-24T13:05:39Z</time>
      </trkpt>
      <trkpt lat="46.68825" lon="5.61975">
        <ele>546.1</ele>
        <time>2021-03-24T13:05:43Z</time>
      </trkpt>
      <trkpt lat="46.68827" lon="5.61969">
        <ele>546.3</ele>
        <time>2021-03-24T13:05:47Z</time>
      </trkpt>
      <trkpt lat="46.68828" lon="5.61962">
        <ele>546.7</ele>
        <time>2021-03-24T13:05:52Z</time>
      </trkpt>
      <trkpt lat="46.68831" lon="5.61955">
        <ele>547.3</ele>
        <time>2021-03-24T13:05:57Z</time>
      </trkpt>
      <trkpt lat="46.68832" lon="5.61948">
        <ele>547.7</ele>
        <time>2021-03-24T13:06:02Z</time>
      </trkpt>
      <trkpt lat="46.68833" lon="5.61942">
        <ele>547.8</ele>
        <time>2021-03-24T13:06:07Z</time>
      </trkpt>
      <trkpt lat="46.68836" lon="5.61937">
        <ele>547.9</ele>
        <time>2021-03-24T13:06:12Z</time>
      </trkpt>
      <trkpt lat="46.68838" lon="5.6193">
        <ele>547.5</ele>
        <time>2021-03-24T13:06:19Z</time>
      </trkpt>
      <trkpt lat="46.6884" lon="5.61924">
        <ele>547.7</ele>
        <time>2021-03-24T13:06:25Z</time>
      </trkpt>
      <trkpt lat="46.68842" lon="5.61917">
        <ele>548.2</ele>
        <time>2021-03-24T13:06:32Z</time>
      </trkpt>
      <trkpt lat="46.68844" lon="5.6191">
        <ele>548.4</ele>
        <time>2021-03-24T13:06:37Z</time>
      </trkpt>
      <trkpt lat="46.68846" lon="5.61904">
        <ele>547.6</ele>
        <time>2021-03-24T13:06:41Z</time>
      </trkpt>
      <trkpt lat="46.68849" lon="5.61899">
        <ele>545.9</ele>
        <time>2021-03-24T13:06:46Z</time>
      </trkpt>
      <trkpt lat="46.68853" lon="5.61893">
        <ele>545.6</ele>
        <time>2021-03-24T13:06:50Z</time>
      </trkpt>
      <trkpt lat="46.68857" lon="5.61887">
        <ele>545.7</ele>
        <time>2021-03-24T13:06:54Z</time>
      </trkpt>
      <trkpt lat="46.68858" lon="5.61881">
        <ele>546.7</ele>
        <time>2021-03-24T13:06:58Z</time>
      </trkpt>
      <trkpt lat="46.68861" lon="5.61875">
        <ele>547.2</ele>
        <time>2021-03-24T13:07:04Z</time>
      </trkpt>
      <trkpt lat="46.68864" lon="5.6187">
        <ele>547.1</ele>
        <time>2021-03-24T13:07:09Z</time>
      </trkpt>
      <trkpt lat="46.68865" lon="5.61863">
        <ele>546.9</ele>
        <time>2021-03-24T13:07:13Z</time>
      </trkpt>
      <trkpt lat="46.68867" lon="5.61856">
        <ele>546.3</ele>
        <time>2021-03-24T13:07:18Z</time>
      </trkpt>
      <trkpt lat="46.68869" lon="5.6185">
        <ele>545.5</ele>
        <time>2021-03-24T13:07:23Z</time>
      </trkpt>
      <trkpt lat="46.6887" lon="5.61843">
        <ele>545.3</ele>
        <time>2021-03-24T13:07:27Z</time>
      </trkpt>
      <trkpt lat="46.68871" lon="5.61835">
        <ele>545.2</ele>
        <time>2021-03-24T13:07:34Z</time>
      </trkpt>
      <trkpt lat="46.68873" lon="5.61829">
        <ele>545.6</ele>
        <time>2021-03-24T13:07:39Z</time>
      </trkpt>
      <trkpt lat="46.68875" lon="5.61822">
        <ele>545.7</ele>
        <time>2021-03-24T13:07:44Z</time>
      </trkpt>
      <trkpt lat="46.68875" lon="5.61813">
        <ele>546.6</ele>
        <time>2021-03-24T13:07:48Z</time>
      </trkpt>
      <trkpt lat="46.68875" lon="5.61806">
        <ele>547.2</ele>
        <time>2021-03-24T13:07:52Z</time>
      </trkpt>
      <trkpt lat="46.68876" lon="5.61798">
        <ele>548.1</ele>
        <time>2021-03-24T13:07:57Z</time>
      </trkpt>
      <trkpt lat="46.68878" lon="5.61792">
        <ele>548.9</ele>
        <time>2021-03-24T13:08:01Z</time>
      </trkpt>
      <trkpt lat="46.68878" lon="5.61785">
        <ele>549.5</ele>
        <time>2021-03-24T13:08:07Z</time>
      </trkpt>
      <trkpt lat="46.68876" lon="5.61777">
        <ele>548.5</ele>
        <time>2021-03-24T13:08:11Z</time>
      </trkpt>
      <trkpt lat="46.68876" lon="5.6177">
        <ele>546.2</ele>
        <time>2021-03-24T13:08:17Z</time>
      </trkpt>
      <trkpt lat="46.68876" lon="5.61763">
        <ele>545.1</ele>
        <time>2021-03-24T13:08:24Z</time>
      </trkpt>
      <trkpt lat="46.68872" lon="5.61758">
        <ele>544.5</ele>
        <time>2021-03-24T13:08:33Z</time>
      </trkpt>
      <trkpt lat="46.68874" lon="5.61751">
        <ele>548.4</ele>
        <time>2021-03-24T13:08:54Z</time>
      </trkpt>
      <trkpt lat="46.68874" lon="5.61744">
        <ele>547.8</ele>
        <time>2021-03-24T13:08:58Z</time>
      </trkpt>
      <trkpt lat="46.68873" lon="5.61736">
        <ele>547.2</ele>
        <time>2021-03-24T13:09:02Z</time>
      </trkpt>
      <trkpt lat="46.68872" lon="5.61729">
        <ele>546.7</ele>
        <time>2021-03-24T13:09:06Z</time>
      </trkpt>
      <trkpt lat="46.68872" lon="5.61722">
        <ele>546.5</ele>
        <time>2021-03-24T13:09:12Z</time>
      </trkpt>
      <trkpt lat="46.68874" lon="5.61714">
        <ele>546.4</ele>
        <time>2021-03-24T13:09:17Z</time>
      </trkpt>
      <trkpt lat="46.68876" lon="5.61707">
        <ele>546.6</ele>
        <time>2021-03-24T13:09:22Z</time>
      </trkpt>
      <trkpt lat="46.6888" lon="5.61701">
        <ele>546.7</ele>
        <time>2021-03-24T13:09:27Z</time>
      </trkpt>
      <trkpt lat="46.68882" lon="5.61696">
        <ele>545.7</ele>
        <time>2021-03-24T13:09:32Z</time>
      </trkpt>
      <trkpt lat="46.68884" lon="5.61689">
        <ele>544.4</ele>
        <time>2021-03-24T13:09:37Z</time>
      </trkpt>
      <trkpt lat="46.68887" lon="5.61683">
        <ele>542.7</ele>
        <time>2021-03-24T13:09:43Z</time>
      </trkpt>
      <trkpt lat="46.6889" lon="5.61678">
        <ele>541.4</ele>
        <time>2021-03-24T13:09:48Z</time>
      </trkpt>
      <trkpt lat="46.68891" lon="5.6167">
        <ele>542.1</ele>
        <time>2021-03-24T13:09:52Z</time>
      </trkpt>
      <trkpt lat="46.6889" lon="5.6166">
        <ele>543.2</ele>
        <time>2021-03-24T13:09:56Z</time>
      </trkpt>
      <trkpt lat="46.68891" lon="5.61653">
        <ele>544.1</ele>
        <time>2021-03-24T13:10:00Z</time>
      </trkpt>
      <trkpt lat="46.68892" lon="5.61645">
        <ele>544.9</ele>
        <time>2021-03-24T13:10:04Z</time>
      </trkpt>
      <trkpt lat="46.68895" lon="5.61638">
        <ele>546</ele>
        <time>2021-03-24T13:10:08Z</time>
      </trkpt>
      <trkpt lat="46.68896" lon="5.61631">
        <ele>547</ele>
        <time>2021-03-24T13:10:12Z</time>
      </trkpt>
      <trkpt lat="46.68896" lon="5.61624">
        <ele>548.2</ele>
        <time>2021-03-24T13:10:16Z</time>
      </trkpt>
      <trkpt lat="46.68897" lon="5.61617">
        <ele>549.3</ele>
        <time>2021-03-24T13:10:20Z</time>
      </trkpt>
      <trkpt lat="46.68897" lon="5.6161">
        <ele>550.3</ele>
        <time>2021-03-24T13:10:26Z</time>
      </trkpt>
      <trkpt lat="46.68901" lon="5.61604">
        <ele>549.7</ele>
        <time>2021-03-24T13:10:31Z</time>
      </trkpt>
      <trkpt lat="46.68901" lon="5.61597">
        <ele>548.4</ele>
        <time>2021-03-24T13:10:37Z</time>
      </trkpt>
      <trkpt lat="46.689" lon="5.61589">
        <ele>547.5</ele>
        <time>2021-03-24T13:10:42Z</time>
      </trkpt>
      <trkpt lat="46.68901" lon="5.61582">
        <ele>545.9</ele>
        <time>2021-03-24T13:10:47Z</time>
      </trkpt>
      <trkpt lat="46.68903" lon="5.61576">
        <ele>544</ele>
        <time>2021-03-24T13:10:53Z</time>
      </trkpt>
      <trkpt lat="46.68905" lon="5.6157">
        <ele>542.8</ele>
        <time>2021-03-24T13:10:57Z</time>
      </trkpt>
      <trkpt lat="46.68908" lon="5.61563">
        <ele>541.5</ele>
        <time>2021-03-24T13:11:02Z</time>
      </trkpt>
      <trkpt lat="46.6891" lon="5.61557">
        <ele>540.1</ele>
        <time>2021-03-24T13:11:09Z</time>
      </trkpt>
      <trkpt lat="46.6891" lon="5.61549">
        <ele>539.4</ele>
        <time>2021-03-24T13:11:14Z</time>
      </trkpt>
      <trkpt lat="46.68912" lon="5.61542">
        <ele>539.5</ele>
        <time>2021-03-24T13:11:19Z</time>
      </trkpt>
      <trkpt lat="46.68907" lon="5.61528">
        <ele>542</ele>
        <time>2021-03-24T13:11:23Z</time>
      </trkpt>
      <trkpt lat="46.68908" lon="5.61522">
        <ele>543.8</ele>
        <time>2021-03-24T13:11:28Z</time>
      </trkpt>
      <trkpt lat="46.6891" lon="5.61516">
        <ele>544.7</ele>
        <time>2021-03-24T13:11:33Z</time>
      </trkpt>
      <trkpt lat="46.68912" lon="5.61509">
        <ele>544.8</ele>
        <time>2021-03-24T13:11:37Z</time>
      </trkpt>
      <trkpt lat="46.68914" lon="5.61502">
        <ele>545.1</ele>
        <time>2021-03-24T13:11:42Z</time>
      </trkpt>
      <trkpt lat="46.68914" lon="5.61493">
        <ele>544.4</ele>
        <time>2021-03-24T13:11:48Z</time>
      </trkpt>
      <trkpt lat="46.68915" lon="5.61483">
        <ele>543</ele>
        <time>2021-03-24T13:11:52Z</time>
      </trkpt>
      <trkpt lat="46.68916" lon="5.61476">
        <ele>541.6</ele>
        <time>2021-03-24T13:11:57Z</time>
      </trkpt>
      <trkpt lat="46.68919" lon="5.61469">
        <ele>541</ele>
        <time>2021-03-24T13:12:02Z</time>
      </trkpt>
      <trkpt lat="46.68921" lon="5.61463">
        <ele>540.8</ele>
        <time>2021-03-24T13:12:06Z</time>
      </trkpt>
      <trkpt lat="46.68925" lon="5.61458">
        <ele>540.7</ele>
        <time>2021-03-24T13:12:11Z</time>
      </trkpt>
      <trkpt lat="46.68922" lon="5.6145">
        <ele>542.2</ele>
        <time>2021-03-24T13:12:15Z</time>
      </trkpt>
      <trkpt lat="46.68925" lon="5.61444">
        <ele>543.2</ele>
        <time>2021-03-24T13:12:22Z</time>
      </trkpt>
      <trkpt lat="46.68929" lon="5.61436">
        <ele>544</ele>
        <time>2021-03-24T13:12:26Z</time>
      </trkpt>
      <trkpt lat="46.6893" lon="5.61427">
        <ele>544.9</ele>
        <time>2021-03-24T13:12:30Z</time>
      </trkpt>
      <trkpt lat="46.68932" lon="5.61421">
        <ele>545.6</ele>
        <time>2021-03-24T13:12:34Z</time>
      </trkpt>
      <trkpt lat="46.68935" lon="5.61415">
        <ele>546.1</ele>
        <time>2021-03-24T13:12:39Z</time>
      </trkpt>
      <trkpt lat="46.68938" lon="5.61409">
        <ele>546.4</ele>
        <time>2021-03-24T13:12:43Z</time>
      </trkpt>
      <trkpt lat="46.68941" lon="5.61404">
        <ele>546.4</ele>
        <time>2021-03-24T13:12:48Z</time>
      </trkpt>
      <trkpt lat="46.68942" lon="5.61397">
        <ele>546.2</ele>
        <time>2021-03-24T13:12:52Z</time>
      </trkpt>
      <trkpt lat="46.68944" lon="5.6139">
        <ele>545.8</ele>
        <time>2021-03-24T13:12:56Z</time>
      </trkpt>
      <trkpt lat="46.68947" lon="5.61384">
        <ele>544.9</ele>
        <time>2021-03-24T13:13:01Z</time>
      </trkpt>
      <trkpt lat="46.68951" lon="5.6138">
        <ele>543.9</ele>
        <time>2021-03-24T13:13:06Z</time>
      </trkpt>
      <trkpt lat="46.68955" lon="5.61377">
        <ele>542.7</ele>
        <time>2021-03-24T13:13:11Z</time>
      </trkpt>
      <trkpt lat="46.68959" lon="5.61373">
        <ele>541.5</ele>
        <time>2021-03-24T13:13:16Z</time>
      </trkpt>
      <trkpt lat="46.68963" lon="5.61366">
        <ele>540.7</ele>
        <time>2021-03-24T13:13:20Z</time>
      </trkpt>
      <trkpt lat="46.68965" lon="5.61358">
        <ele>539.2</ele>
        <time>2021-03-24T13:13:24Z</time>
      </trkpt>
      <trkpt lat="46.68969" lon="5.61353">
        <ele>537.5</ele>
        <time>2021-03-24T13:13:30Z</time>
      </trkpt>
      <trkpt lat="46.68974" lon="5.6135">
        <ele>535.9</ele>
        <time>2021-03-24T13:13:36Z</time>
      </trkpt>
      <trkpt lat="46.68978" lon="5.61347">
        <ele>534.3</ele>
        <time>2021-03-24T13:13:42Z</time>
      </trkpt>
      <trkpt lat="46.68981" lon="5.61342">
        <ele>532.9</ele>
        <time>2021-03-24T13:13:48Z</time>
      </trkpt>
      <trkpt lat="46.68985" lon="5.61337">
        <ele>531.9</ele>
        <time>2021-03-24T13:13:53Z</time>
      </trkpt>
      <trkpt lat="46.68989" lon="5.61333">
        <ele>530.7</ele>
        <time>2021-03-24T13:13:59Z</time>
      </trkpt>
      <trkpt lat="46.68992" lon="5.61327">
        <ele>528.7</ele>
        <time>2021-03-24T13:14:09Z</time>
      </trkpt>
      <trkpt lat="46.68996" lon="5.61324">
        <ele>527.7</ele>
        <time>2021-03-24T13:14:15Z</time>
      </trkpt>
      <trkpt lat="46.69" lon="5.6132">
        <ele>526.9</ele>
        <time>2021-03-24T13:14:21Z</time>
      </trkpt>
      <trkpt lat="46.69005" lon="5.61317">
        <ele>526.6</ele>
        <time>2021-03-24T13:14:26Z</time>
      </trkpt>
      <trkpt lat="46.6901" lon="5.61314">
        <ele>526</ele>
        <time>2021-03-24T13:14:31Z</time>
      </trkpt>
      <trkpt lat="46.69016" lon="5.6131">
        <ele>525.2</ele>
        <time>2021-03-24T13:14:36Z</time>
      </trkpt>
      <trkpt lat="46.6902" lon="5.61307">
        <ele>524.6</ele>
        <time>2021-03-24T13:14:40Z</time>
      </trkpt>
      <trkpt lat="46.69024" lon="5.61305">
        <ele>523.4</ele>
        <time>2021-03-24T13:14:46Z</time>
      </trkpt>
      <trkpt lat="46.6903" lon="5.61302">
        <ele>522.3</ele>
        <time>2021-03-24T13:14:51Z</time>
      </trkpt>
      <trkpt lat="46.69034" lon="5.613">
        <ele>521.7</ele>
        <time>2021-03-24T13:14:55Z</time>
      </trkpt>
      <trkpt lat="46.69039" lon="5.61299">
        <ele>520.5</ele>
        <time>2021-03-24T13:15:01Z</time>
      </trkpt>
      <trkpt lat="46.69053" lon="5.61298">
        <ele>525.3</ele>
        <time>2021-03-24T13:15:05Z</time>
      </trkpt>
      <trkpt lat="46.69061" lon="5.61298">
        <ele>529</ele>
        <time>2021-03-24T13:15:09Z</time>
      </trkpt>
      <trkpt lat="46.69066" lon="5.61297">
        <ele>531.4</ele>
        <time>2021-03-24T13:15:15Z</time>
      </trkpt>
      <trkpt lat="46.6907" lon="5.61297">
        <ele>532</ele>
        <time>2021-03-24T13:15:21Z</time>
      </trkpt>
      <trkpt lat="46.69076" lon="5.61298">
        <ele>531.7</ele>
        <time>2021-03-24T13:15:27Z</time>
      </trkpt>
      <trkpt lat="46.6908" lon="5.61296">
        <ele>530.9</ele>
        <time>2021-03-24T13:15:32Z</time>
      </trkpt>
      <trkpt lat="46.69086" lon="5.61293">
        <ele>529.8</ele>
        <time>2021-03-24T13:15:36Z</time>
      </trkpt>
      <trkpt lat="46.6909" lon="5.61289">
        <ele>528.6</ele>
        <time>2021-03-24T13:15:40Z</time>
      </trkpt>
      <trkpt lat="46.69093" lon="5.61283">
        <ele>526.7</ele>
        <time>2021-03-24T13:15:45Z</time>
      </trkpt>
      <trkpt lat="46.69093" lon="5.61272">
        <ele>528.3</ele>
        <time>2021-03-24T13:15:49Z</time>
      </trkpt>
      <trkpt lat="46.69096" lon="5.61266">
        <ele>528.8</ele>
        <time>2021-03-24T13:15:54Z</time>
      </trkpt>
      <trkpt lat="46.691" lon="5.61261">
        <ele>528.4</ele>
        <time>2021-03-24T13:15:59Z</time>
      </trkpt>
      <trkpt lat="46.69104" lon="5.61255">
        <ele>527.9</ele>
        <time>2021-03-24T13:16:04Z</time>
      </trkpt>
      <trkpt lat="46.69107" lon="5.61249">
        <ele>527.8</ele>
        <time>2021-03-24T13:16:09Z</time>
      </trkpt>
      <trkpt lat="46.69111" lon="5.61244">
        <ele>527.4</ele>
        <time>2021-03-24T13:16:15Z</time>
      </trkpt>
      <trkpt lat="46.69114" lon="5.61238">
        <ele>527</ele>
        <time>2021-03-24T13:16:20Z</time>
      </trkpt>
      <trkpt lat="46.69118" lon="5.61233">
        <ele>526.3</ele>
        <time>2021-03-24T13:16:24Z</time>
      </trkpt>
      <trkpt lat="46.69121" lon="5.61227">
        <ele>525.1</ele>
        <time>2021-03-24T13:16:30Z</time>
      </trkpt>
      <trkpt lat="46.69124" lon="5.61222">
        <ele>523.9</ele>
        <time>2021-03-24T13:16:35Z</time>
      </trkpt>
      <trkpt lat="46.69124" lon="5.61215">
        <ele>522.2</ele>
        <time>2021-03-24T13:16:41Z</time>
      </trkpt>
      <trkpt lat="46.69125" lon="5.61208">
        <ele>519.9</ele>
        <time>2021-03-24T13:16:48Z</time>
      </trkpt>
      <trkpt lat="46.69125" lon="5.61201">
        <ele>517.7</ele>
        <time>2021-03-24T13:16:54Z</time>
      </trkpt>
      <trkpt lat="46.69127" lon="5.61194">
        <ele>515.7</ele>
        <time>2021-03-24T13:17:00Z</time>
      </trkpt>
      <trkpt lat="46.6913" lon="5.61189">
        <ele>512.6</ele>
        <time>2021-03-24T13:17:07Z</time>
      </trkpt>
      <trkpt lat="46.69133" lon="5.61182">
        <ele>510</ele>
        <time>2021-03-24T13:17:13Z</time>
      </trkpt>
      <trkpt lat="46.69136" lon="5.61177">
        <ele>508.3</ele>
        <time>2021-03-24T13:17:18Z</time>
      </trkpt>
      <trkpt lat="46.6914" lon="5.61172">
        <ele>506.7</ele>
        <time>2021-03-24T13:17:23Z</time>
      </trkpt>
      <trkpt lat="46.69141" lon="5.61165">
        <ele>505.1</ele>
        <time>2021-03-24T13:17:28Z</time>
      </trkpt>
      <trkpt lat="46.69143" lon="5.61159">
        <ele>502.9</ele>
        <time>2021-03-24T13:17:34Z</time>
      </trkpt>
      <trkpt lat="46.69144" lon="5.61152">
        <ele>500.8</ele>
        <time>2021-03-24T13:17:40Z</time>
      </trkpt>
      <trkpt lat="46.69142" lon="5.61135">
        <ele>501.8</ele>
        <time>2021-03-24T13:17:44Z</time>
      </trkpt>
      <trkpt lat="46.6914" lon="5.61121">
        <ele>502.9</ele>
        <time>2021-03-24T13:17:48Z</time>
      </trkpt>
      <trkpt lat="46.69144" lon="5.61117">
        <ele>503</ele>
        <time>2021-03-24T13:17:52Z</time>
      </trkpt>
      <trkpt lat="46.69147" lon="5.61105">
        <ele>505</ele>
        <time>2021-03-24T13:18:00Z</time>
      </trkpt>
      <trkpt lat="46.69151" lon="5.61097">
        <ele>506.7</ele>
        <time>2021-03-24T13:18:04Z</time>
      </trkpt>
      <trkpt lat="46.69156" lon="5.61093">
        <ele>508.2</ele>
        <time>2021-03-24T13:18:08Z</time>
      </trkpt>
      <trkpt lat="46.6916" lon="5.61088">
        <ele>509.7</ele>
        <time>2021-03-24T13:18:14Z</time>
      </trkpt>
      <trkpt lat="46.69164" lon="5.61085">
        <ele>509.8</ele>
        <time>2021-03-24T13:18:20Z</time>
      </trkpt>
      <trkpt lat="46.69168" lon="5.6108">
        <ele>509.9</ele>
        <time>2021-03-24T13:18:27Z</time>
      </trkpt>
      <trkpt lat="46.6917" lon="5.61074">
        <ele>510.1</ele>
        <time>2021-03-24T13:18:35Z</time>
      </trkpt>
      <trkpt lat="46.69173" lon="5.61068">
        <ele>509.4</ele>
        <time>2021-03-24T13:18:44Z</time>
      </trkpt>
      <trkpt lat="46.69176" lon="5.61062">
        <ele>508.5</ele>
        <time>2021-03-24T13:18:51Z</time>
      </trkpt>
      <trkpt lat="46.69178" lon="5.61057">
        <ele>507.9</ele>
        <time>2021-03-24T13:18:56Z</time>
      </trkpt>
      <trkpt lat="46.69181" lon="5.61052">
        <ele>507.1</ele>
        <time>2021-03-24T13:19:01Z</time>
      </trkpt>
      <trkpt lat="46.69184" lon="5.61045">
        <ele>506.1</ele>
        <time>2021-03-24T13:19:07Z</time>
      </trkpt>
      <trkpt lat="46.69186" lon="5.61039">
        <ele>505.1</ele>
        <time>2021-03-24T13:19:12Z</time>
      </trkpt>
      <trkpt lat="46.69189" lon="5.61032">
        <ele>504</ele>
        <time>2021-03-24T13:19:16Z</time>
      </trkpt>
      <trkpt lat="46.69191" lon="5.61026">
        <ele>502.9</ele>
        <time>2021-03-24T13:19:21Z</time>
      </trkpt>
      <trkpt lat="46.69195" lon="5.61021">
        <ele>502.1</ele>
        <time>2021-03-24T13:19:29Z</time>
      </trkpt>
      <trkpt lat="46.69194" lon="5.61013">
        <ele>501.1</ele>
        <time>2021-03-24T13:19:50Z</time>
      </trkpt>
      <trkpt lat="46.69192" lon="5.61007">
        <ele>500.2</ele>
        <time>2021-03-24T13:19:57Z</time>
      </trkpt>
      <trkpt lat="46.69197" lon="5.61003">
        <ele>499</ele>
        <time>2021-03-24T13:20:04Z</time>
      </trkpt>
      <trkpt lat="46.69199" lon="5.60998">
        <ele>498.1</ele>
        <time>2021-03-24T13:20:08Z</time>
      </trkpt>
      <trkpt lat="46.69203" lon="5.60992">
        <ele>496.9</ele>
        <time>2021-03-24T13:20:13Z</time>
      </trkpt>
      <trkpt lat="46.69206" lon="5.60986">
        <ele>495.7</ele>
        <time>2021-03-24T13:20:18Z</time>
      </trkpt>
      <trkpt lat="46.69208" lon="5.60978">
        <ele>494.5</ele>
        <time>2021-03-24T13:20:23Z</time>
      </trkpt>
      <trkpt lat="46.6921" lon="5.60971">
        <ele>493</ele>
        <time>2021-03-24T13:20:29Z</time>
      </trkpt>
      <trkpt lat="46.69213" lon="5.60965">
        <ele>491.4</ele>
        <time>2021-03-24T13:20:34Z</time>
      </trkpt>
      <trkpt lat="46.69216" lon="5.60959">
        <ele>489.9</ele>
        <time>2021-03-24T13:20:39Z</time>
      </trkpt>
      <trkpt lat="46.69218" lon="5.60952">
        <ele>488.6</ele>
        <time>2021-03-24T13:20:43Z</time>
      </trkpt>
      <trkpt lat="46.69218" lon="5.60945">
        <ele>487.6</ele>
        <time>2021-03-24T13:20:47Z</time>
      </trkpt>
      <trkpt lat="46.69218" lon="5.60938">
        <ele>486.7</ele>
        <time>2021-03-24T13:20:51Z</time>
      </trkpt>
      <trkpt lat="46.69223" lon="5.60934">
        <ele>485.2</ele>
        <time>2021-03-24T13:20:55Z</time>
      </trkpt>
      <trkpt lat="46.69226" lon="5.6093">
        <ele>483.7</ele>
        <time>2021-03-24T13:20:59Z</time>
      </trkpt>
      <trkpt lat="46.6923" lon="5.60927">
        <ele>481.9</ele>
        <time>2021-03-24T13:21:03Z</time>
      </trkpt>
      <trkpt lat="46.69235" lon="5.60923">
        <ele>479.2</ele>
        <time>2021-03-24T13:21:08Z</time>
      </trkpt>
      <trkpt lat="46.69239" lon="5.60921">
        <ele>476.8</ele>
        <time>2021-03-24T13:21:12Z</time>
      </trkpt>
      <trkpt lat="46.69244" lon="5.60921">
        <ele>473.2</ele>
        <time>2021-03-24T13:21:18Z</time>
      </trkpt>
      <trkpt lat="46.69249" lon="5.60919">
        <ele>469.5</ele>
        <time>2021-03-24T13:21:24Z</time>
      </trkpt>
      <trkpt lat="46.69254" lon="5.60916">
        <ele>466.1</ele>
        <time>2021-03-24T13:21:30Z</time>
      </trkpt>
      <trkpt lat="46.69259" lon="5.60914">
        <ele>463.3</ele>
        <time>2021-03-24T13:21:35Z</time>
      </trkpt>
      <trkpt lat="46.69264" lon="5.60912">
        <ele>459.9</ele>
        <time>2021-03-24T13:21:41Z</time>
      </trkpt>
      <trkpt lat="46.69269" lon="5.6091">
        <ele>456.8</ele>
        <time>2021-03-24T13:21:47Z</time>
      </trkpt>
      <trkpt lat="46.69273" lon="5.60906">
        <ele>454.8</ele>
        <time>2021-03-24T13:21:53Z</time>
      </trkpt>
      <trkpt lat="46.69277" lon="5.60902">
        <ele>452.9</ele>
        <time>2021-03-24T13:22:00Z</time>
      </trkpt>
      <trkpt lat="46.69281" lon="5.60898">
        <ele>451.2</ele>
        <time>2021-03-24T13:22:07Z</time>
      </trkpt>
      <trkpt lat="46.69279" lon="5.60892">
        <ele>449.5</ele>
        <time>2021-03-24T13:22:13Z</time>
      </trkpt>
      <trkpt lat="46.69279" lon="5.60884">
        <ele>448.9</ele>
        <time>2021-03-24T13:22:17Z</time>
      </trkpt>
      <trkpt lat="46.69282" lon="5.60878">
        <ele>448</ele>
        <time>2021-03-24T13:22:21Z</time>
      </trkpt>
      <trkpt lat="46.69286" lon="5.60875">
        <ele>446.6</ele>
        <time>2021-03-24T13:22:26Z</time>
      </trkpt>
      <trkpt lat="46.69291" lon="5.60872">
        <ele>444.7</ele>
        <time>2021-03-24T13:22:32Z</time>
      </trkpt>
      <trkpt lat="46.69296" lon="5.60872">
        <ele>443.7</ele>
        <time>2021-03-24T13:22:36Z</time>
      </trkpt>
      <trkpt lat="46.69301" lon="5.60871">
        <ele>442.7</ele>
        <time>2021-03-24T13:22:40Z</time>
      </trkpt>
      <trkpt lat="46.69305" lon="5.60867">
        <ele>441.6</ele>
        <time>2021-03-24T13:22:45Z</time>
      </trkpt>
      <trkpt lat="46.69308" lon="5.60863">
        <ele>440.3</ele>
        <time>2021-03-24T13:22:52Z</time>
      </trkpt>
      <trkpt lat="46.69315" lon="5.60865">
        <ele>439.7</ele>
        <time>2021-03-24T13:22:56Z</time>
      </trkpt>
      <trkpt lat="46.69324" lon="5.60871">
        <ele>439.9</ele>
        <time>2021-03-24T13:23:00Z</time>
      </trkpt>
      <trkpt lat="46.69332" lon="5.60874">
        <ele>440.7</ele>
        <time>2021-03-24T13:23:04Z</time>
      </trkpt>
      <trkpt lat="46.69339" lon="5.60876">
        <ele>442</ele>
        <time>2021-03-24T13:23:08Z</time>
      </trkpt>
      <trkpt lat="46.69347" lon="5.60876">
        <ele>443.9</ele>
        <time>2021-03-24T13:23:12Z</time>
      </trkpt>
      <trkpt lat="46.69353" lon="5.60875">
        <ele>445.6</ele>
        <time>2021-03-24T13:23:16Z</time>
      </trkpt>
      <trkpt lat="46.69358" lon="5.60876">
        <ele>447.3</ele>
        <time>2021-03-24T13:23:20Z</time>
      </trkpt>
      <trkpt lat="46.69363" lon="5.60876">
        <ele>451.9</ele>
        <time>2021-03-24T13:23:31Z</time>
      </trkpt>
      <trkpt lat="46.69368" lon="5.60877">
        <ele>453.2</ele>
        <time>2021-03-24T13:23:38Z</time>
      </trkpt>
      <trkpt lat="46.69369" lon="5.60868">
        <ele>460.5</ele>
        <time>2021-03-24T13:23:45Z</time>
      </trkpt>
      <trkpt lat="46.69368" lon="5.60859">
        <ele>467.1</ele>
        <time>2021-03-24T13:23:49Z</time>
      </trkpt>
      <trkpt lat="46.69373" lon="5.60863">
        <ele>474.6</ele>
        <time>2021-03-24T13:23:58Z</time>
      </trkpt>
      <trkpt lat="46.69379" lon="5.60865">
        <ele>476.7</ele>
        <time>2021-03-24T13:24:03Z</time>
      </trkpt>
      <trkpt lat="46.69384" lon="5.60866">
        <ele>478.1</ele>
        <time>2021-03-24T13:24:08Z</time>
      </trkpt>
      <trkpt lat="46.69389" lon="5.60867">
        <ele>479.3</ele>
        <time>2021-03-24T13:24:13Z</time>
      </trkpt>
      <trkpt lat="46.69393" lon="5.60869">
        <ele>480.6</ele>
        <time>2021-03-24T13:24:18Z</time>
      </trkpt>
      <trkpt lat="46.69399" lon="5.6087">
        <ele>481.8</ele>
        <time>2021-03-24T13:24:25Z</time>
      </trkpt>
      <trkpt lat="46.69403" lon="5.60872">
        <ele>482</ele>
        <time>2021-03-24T13:24:29Z</time>
      </trkpt>
      <trkpt lat="46.69408" lon="5.60874">
        <ele>482</ele>
        <time>2021-03-24T13:24:33Z</time>
      </trkpt>
      <trkpt lat="46.69413" lon="5.60877">
        <ele>482</ele>
        <time>2021-03-24T13:24:37Z</time>
      </trkpt>
      <trkpt lat="46.69416" lon="5.60881">
        <ele>481.8</ele>
        <time>2021-03-24T13:24:41Z</time>
      </trkpt>
      <trkpt lat="46.69421" lon="5.60886">
        <ele>481.7</ele>
        <time>2021-03-24T13:24:46Z</time>
      </trkpt>
      <trkpt lat="46.69425" lon="5.6089">
        <ele>481.8</ele>
        <time>2021-03-24T13:24:51Z</time>
      </trkpt>
      <trkpt lat="46.69429" lon="5.60895">
        <ele>481.9</ele>
        <time>2021-03-24T13:24:56Z</time>
      </trkpt>
      <trkpt lat="46.69432" lon="5.609">
        <ele>481.7</ele>
        <time>2021-03-24T13:25:01Z</time>
      </trkpt>
      <trkpt lat="46.69436" lon="5.60904">
        <ele>480.9</ele>
        <time>2021-03-24T13:25:07Z</time>
      </trkpt>
      <trkpt lat="46.6944" lon="5.60908">
        <ele>480.4</ele>
        <time>2021-03-24T13:25:12Z</time>
      </trkpt>
      <trkpt lat="46.69443" lon="5.60913">
        <ele>480</ele>
        <time>2021-03-24T13:25:18Z</time>
      </trkpt>
      <trkpt lat="46.69446" lon="5.60919">
        <ele>480</ele>
        <time>2021-03-24T13:25:23Z</time>
      </trkpt>
      <trkpt lat="46.69447" lon="5.60927">
        <ele>480.1</ele>
        <time>2021-03-24T13:25:29Z</time>
      </trkpt>
      <trkpt lat="46.69448" lon="5.60934">
        <ele>480</ele>
        <time>2021-03-24T13:25:36Z</time>
      </trkpt>
      <trkpt lat="46.69452" lon="5.60938">
        <ele>479.9</ele>
        <time>2021-03-24T13:25:42Z</time>
      </trkpt>
      <trkpt lat="46.69454" lon="5.60931">
        <ele>480.8</ele>
        <time>2021-03-24T13:26:09Z</time>
      </trkpt>
      <trkpt lat="46.69451" lon="5.60925">
        <ele>480.8</ele>
        <time>2021-03-24T13:26:15Z</time>
      </trkpt>
      <trkpt lat="46.69449" lon="5.60918">
        <ele>480.9</ele>
        <time>2021-03-24T13:26:20Z</time>
      </trkpt>
      <trkpt lat="46.69446" lon="5.60913">
        <ele>481</ele>
        <time>2021-03-24T13:26:26Z</time>
      </trkpt>
      <trkpt lat="46.69443" lon="5.60907">
        <ele>481.1</ele>
        <time>2021-03-24T13:26:32Z</time>
      </trkpt>
      <trkpt lat="46.69442" lon="5.609">
        <ele>481.1</ele>
        <time>2021-03-24T13:26:38Z</time>
      </trkpt>
      <trkpt lat="46.69441" lon="5.60893">
        <ele>481.1</ele>
        <time>2021-03-24T13:26:46Z</time>
      </trkpt>
      <trkpt lat="46.69436" lon="5.6089">
        <ele>480.7</ele>
        <time>2021-03-24T13:26:54Z</time>
      </trkpt>
      <trkpt lat="46.69432" lon="5.60888">
        <ele>480</ele>
        <time>2021-03-24T13:27:03Z</time>
      </trkpt>
      <trkpt lat="46.69436" lon="5.60885">
        <ele>480.1</ele>
        <time>2021-03-24T13:28:32Z</time>
      </trkpt>
      <trkpt lat="46.69441" lon="5.60888">
        <ele>480.3</ele>
        <time>2021-03-24T13:28:37Z</time>
      </trkpt>
      <trkpt lat="46.69443" lon="5.60894">
        <ele>480.5</ele>
        <time>2021-03-24T13:28:42Z</time>
      </trkpt>
      <trkpt lat="46.69446" lon="5.609">
        <ele>480.9</ele>
        <time>2021-03-24T13:28:48Z</time>
      </trkpt>
      <trkpt lat="46.6945" lon="5.60905">
        <ele>481</ele>
        <time>2021-03-24T13:28:53Z</time>
      </trkpt>
      <trkpt lat="46.69452" lon="5.60911">
        <ele>481</ele>
        <time>2021-03-24T13:28:58Z</time>
      </trkpt>
      <trkpt lat="46.69455" lon="5.60917">
        <ele>480.8</ele>
        <time>2021-03-24T13:29:04Z</time>
      </trkpt>
      <trkpt lat="46.69457" lon="5.60924">
        <ele>480.9</ele>
        <time>2021-03-24T13:29:12Z</time>
      </trkpt>
      <trkpt lat="46.69459" lon="5.6093">
        <ele>480.5</ele>
        <time>2021-03-24T13:29:37Z</time>
      </trkpt>
      <trkpt lat="46.69465" lon="5.60938">
        <ele>480.4</ele>
        <time>2021-03-24T13:29:41Z</time>
      </trkpt>
      <trkpt lat="46.69476" lon="5.60947">
        <ele>483.7</ele>
        <time>2021-03-24T13:29:45Z</time>
      </trkpt>
      <trkpt lat="46.69484" lon="5.60953">
        <ele>487</ele>
        <time>2021-03-24T13:29:49Z</time>
      </trkpt>
      <trkpt lat="46.69488" lon="5.60956">
        <ele>489</ele>
        <time>2021-03-24T13:29:53Z</time>
      </trkpt>
      <trkpt lat="46.69492" lon="5.60959">
        <ele>490.5</ele>
        <time>2021-03-24T13:30:00Z</time>
      </trkpt>
      <trkpt lat="46.69496" lon="5.60961">
        <ele>491.1</ele>
        <time>2021-03-24T13:30:07Z</time>
      </trkpt>
      <trkpt lat="46.69501" lon="5.60964">
        <ele>491.4</ele>
        <time>2021-03-24T13:30:13Z</time>
      </trkpt>
      <trkpt lat="46.69507" lon="5.60966">
        <ele>491.3</ele>
        <time>2021-03-24T13:30:18Z</time>
      </trkpt>
      <trkpt lat="46.69513" lon="5.60965">
        <ele>489.9</ele>
        <time>2021-03-24T13:31:21Z</time>
      </trkpt>
      <trkpt lat="46.69517" lon="5.60964">
        <ele>489.2</ele>
        <time>2021-03-24T13:31:26Z</time>
      </trkpt>
      <trkpt lat="46.69522" lon="5.60963">
        <ele>488</ele>
        <time>2021-03-24T13:31:33Z</time>
      </trkpt>
      <trkpt lat="46.69527" lon="5.60963">
        <ele>486.8</ele>
        <time>2021-03-24T13:31:41Z</time>
      </trkpt>
      <trkpt lat="46.69532" lon="5.60965">
        <ele>485.7</ele>
        <time>2021-03-24T13:31:48Z</time>
      </trkpt>
      <trkpt lat="46.69536" lon="5.60965">
        <ele>485</ele>
        <time>2021-03-24T13:31:55Z</time>
      </trkpt>
      <trkpt lat="46.69541" lon="5.60962">
        <ele>484.4</ele>
        <time>2021-03-24T13:32:03Z</time>
      </trkpt>
      <trkpt lat="46.69546" lon="5.60963">
        <ele>484.1</ele>
        <time>2021-03-24T13:32:09Z</time>
      </trkpt>
      <trkpt lat="46.69551" lon="5.60965">
        <ele>483.8</ele>
        <time>2021-03-24T13:32:13Z</time>
      </trkpt>
      <trkpt lat="46.69558" lon="5.60969">
        <ele>483.6</ele>
        <time>2021-03-24T13:32:17Z</time>
      </trkpt>
      <trkpt lat="46.69564" lon="5.60972">
        <ele>483.5</ele>
        <time>2021-03-24T13:32:21Z</time>
      </trkpt>
      <trkpt lat="46.69574" lon="5.60973">
        <ele>489.8</ele>
        <time>2021-03-24T13:32:25Z</time>
      </trkpt>
      <trkpt lat="46.69579" lon="5.60972">
        <ele>493.6</ele>
        <time>2021-03-24T13:32:31Z</time>
      </trkpt>
      <trkpt lat="46.69582" lon="5.60967">
        <ele>495.6</ele>
        <time>2021-03-24T13:32:41Z</time>
      </trkpt>
      <trkpt lat="46.69589" lon="5.60958">
        <ele>494.6</ele>
        <time>2021-03-24T13:32:45Z</time>
      </trkpt>
      <trkpt lat="46.69592" lon="5.60952">
        <ele>493.7</ele>
        <time>2021-03-24T13:32:50Z</time>
      </trkpt>
      <trkpt lat="46.69596" lon="5.60946">
        <ele>492.8</ele>
        <time>2021-03-24T13:32:56Z</time>
      </trkpt>
      <trkpt lat="46.69599" lon="5.6094">
        <ele>492.1</ele>
        <time>2021-03-24T13:33:02Z</time>
      </trkpt>
      <trkpt lat="46.69602" lon="5.60935">
        <ele>491.6</ele>
        <time>2021-03-24T13:33:08Z</time>
      </trkpt>
      <trkpt lat="46.69607" lon="5.60934">
        <ele>491.2</ele>
        <time>2021-03-24T13:33:16Z</time>
      </trkpt>
      <trkpt lat="46.69612" lon="5.60934">
        <ele>490.7</ele>
        <time>2021-03-24T13:33:23Z</time>
      </trkpt>
      <trkpt lat="46.69617" lon="5.60936">
        <ele>490.3</ele>
        <time>2021-03-24T13:33:29Z</time>
      </trkpt>
      <trkpt lat="46.6962" lon="5.6094">
        <ele>489.7</ele>
        <time>2021-03-24T13:33:35Z</time>
      </trkpt>
      <trkpt lat="46.69625" lon="5.60943">
        <ele>489.2</ele>
        <time>2021-03-24T13:33:39Z</time>
      </trkpt>
      <trkpt lat="46.6963" lon="5.60944">
        <ele>488.8</ele>
        <time>2021-03-24T13:33:43Z</time>
      </trkpt>
      <trkpt lat="46.69634" lon="5.60945">
        <ele>488.4</ele>
        <time>2021-03-24T13:33:47Z</time>
      </trkpt>
      <trkpt lat="46.69639" lon="5.60947">
        <ele>488.2</ele>
        <time>2021-03-24T13:33:51Z</time>
      </trkpt>
      <trkpt lat="46.69643" lon="5.60948">
        <ele>487.9</ele>
        <time>2021-03-24T13:33:56Z</time>
      </trkpt>
      <trkpt lat="46.69648" lon="5.60949">
        <ele>487.6</ele>
        <time>2021-03-24T13:34:01Z</time>
      </trkpt>
      <trkpt lat="46.69653" lon="5.60949">
        <ele>487</ele>
        <time>2021-03-24T13:34:07Z</time>
      </trkpt>
      <trkpt lat="46.69658" lon="5.60951">
        <ele>486.3</ele>
        <time>2021-03-24T13:34:13Z</time>
      </trkpt>
      <trkpt lat="46.69664" lon="5.60954">
        <ele>485.7</ele>
        <time>2021-03-24T13:34:17Z</time>
      </trkpt>
      <trkpt lat="46.69669" lon="5.60957">
        <ele>485.3</ele>
        <time>2021-03-24T13:34:21Z</time>
      </trkpt>
      <trkpt lat="46.69674" lon="5.6096">
        <ele>484.7</ele>
        <time>2021-03-24T13:34:26Z</time>
      </trkpt>
      <trkpt lat="46.69679" lon="5.60963">
        <ele>483.5</ele>
        <time>2021-03-24T13:34:33Z</time>
      </trkpt>
      <trkpt lat="46.69687" lon="5.60965">
        <ele>482.1</ele>
        <time>2021-03-24T13:34:40Z</time>
      </trkpt>
      <trkpt lat="46.69694" lon="5.60968">
        <ele>481.6</ele>
        <time>2021-03-24T13:34:44Z</time>
      </trkpt>
      <trkpt lat="46.69699" lon="5.60972">
        <ele>480.9</ele>
        <time>2021-03-24T13:34:49Z</time>
      </trkpt>
      <trkpt lat="46.69702" lon="5.60977">
        <ele>480.1</ele>
        <time>2021-03-24T13:34:54Z</time>
      </trkpt>
      <trkpt lat="46.69707" lon="5.60981">
        <ele>479.3</ele>
        <time>2021-03-24T13:35:00Z</time>
      </trkpt>
      <trkpt lat="46.69711" lon="5.60984">
        <ele>478.8</ele>
        <time>2021-03-24T13:35:05Z</time>
      </trkpt>
      <trkpt lat="46.69715" lon="5.60986">
        <ele>478.2</ele>
        <time>2021-03-24T13:35:11Z</time>
      </trkpt>
      <trkpt lat="46.6972" lon="5.60986">
        <ele>477.5</ele>
        <time>2021-03-24T13:35:16Z</time>
      </trkpt>
      <trkpt lat="46.69725" lon="5.60984">
        <ele>477.1</ele>
        <time>2021-03-24T13:35:20Z</time>
      </trkpt>
      <trkpt lat="46.69729" lon="5.60982">
        <ele>476.9</ele>
        <time>2021-03-24T13:35:24Z</time>
      </trkpt>
      <trkpt lat="46.69733" lon="5.60975">
        <ele>477.5</ele>
        <time>2021-03-24T13:35:29Z</time>
      </trkpt>
      <trkpt lat="46.69736" lon="5.60969">
        <ele>478.2</ele>
        <time>2021-03-24T13:35:34Z</time>
      </trkpt>
      <trkpt lat="46.6974" lon="5.60965">
        <ele>478.5</ele>
        <time>2021-03-24T13:35:39Z</time>
      </trkpt>
      <trkpt lat="46.69744" lon="5.6096">
        <ele>478.8</ele>
        <time>2021-03-24T13:35:44Z</time>
      </trkpt>
      <trkpt lat="46.69747" lon="5.60955">
        <ele>478.9</ele>
        <time>2021-03-24T13:35:49Z</time>
      </trkpt>
      <trkpt lat="46.6975" lon="5.60949">
        <ele>479</ele>
        <time>2021-03-24T13:35:55Z</time>
      </trkpt>
      <trkpt lat="46.69754" lon="5.60943">
        <ele>479</ele>
        <time>2021-03-24T13:36:00Z</time>
      </trkpt>
      <trkpt lat="46.69758" lon="5.60938">
        <ele>479.1</ele>
        <time>2021-03-24T13:36:05Z</time>
      </trkpt>
      <trkpt lat="46.69762" lon="5.60933">
        <ele>479.2</ele>
        <time>2021-03-24T13:36:09Z</time>
      </trkpt>
      <trkpt lat="46.69766" lon="5.6093">
        <ele>479.2</ele>
        <time>2021-03-24T13:36:14Z</time>
      </trkpt>
      <trkpt lat="46.6977" lon="5.60925">
        <ele>479.3</ele>
        <time>2021-03-24T13:36:19Z</time>
      </trkpt>
      <trkpt lat="46.69771" lon="5.60917">
        <ele>480.4</ele>
        <time>2021-03-24T13:36:23Z</time>
      </trkpt>
      <trkpt lat="46.69772" lon="5.60909">
        <ele>481.6</ele>
        <time>2021-03-24T13:36:27Z</time>
      </trkpt>
      <trkpt lat="46.69776" lon="5.60903">
        <ele>482.4</ele>
        <time>2021-03-24T13:38:08Z</time>
      </trkpt>
      <trkpt lat="46.6978" lon="5.609">
        <ele>481.7</ele>
        <time>2021-03-24T13:38:13Z</time>
      </trkpt>
      <trkpt lat="46.69784" lon="5.60896">
        <ele>481.2</ele>
        <time>2021-03-24T13:38:18Z</time>
      </trkpt>
      <trkpt lat="46.69789" lon="5.60892">
        <ele>481.1</ele>
        <time>2021-03-24T13:38:23Z</time>
      </trkpt>
      <trkpt lat="46.69792" lon="5.60888">
        <ele>481.1</ele>
        <time>2021-03-24T13:38:28Z</time>
      </trkpt>
      <trkpt lat="46.69797" lon="5.60885">
        <ele>481.3</ele>
        <time>2021-03-24T13:38:33Z</time>
      </trkpt>
      <trkpt lat="46.69801" lon="5.60882">
        <ele>481.4</ele>
        <time>2021-03-24T13:38:38Z</time>
      </trkpt>
      <trkpt lat="46.69804" lon="5.60877">
        <ele>481.5</ele>
        <time>2021-03-24T13:38:43Z</time>
      </trkpt>
      <trkpt lat="46.69807" lon="5.6087">
        <ele>482</ele>
        <time>2021-03-24T13:38:47Z</time>
      </trkpt>
      <trkpt lat="46.69811" lon="5.60866">
        <ele>482.6</ele>
        <time>2021-03-24T13:38:53Z</time>
      </trkpt>
      <trkpt lat="46.69815" lon="5.60859">
        <ele>482.5</ele>
        <time>2021-03-24T13:38:58Z</time>
      </trkpt>
      <trkpt lat="46.69818" lon="5.60854">
        <ele>482.3</ele>
        <time>2021-03-24T13:39:02Z</time>
      </trkpt>
      <trkpt lat="46.69822" lon="5.60851">
        <ele>481.7</ele>
        <time>2021-03-24T13:39:09Z</time>
      </trkpt>
      <trkpt lat="46.69827" lon="5.60848">
        <ele>481.4</ele>
        <time>2021-03-24T13:39:14Z</time>
      </trkpt>
      <trkpt lat="46.69831" lon="5.60843">
        <ele>481.2</ele>
        <time>2021-03-24T13:39:19Z</time>
      </trkpt>
      <trkpt lat="46.69835" lon="5.60839">
        <ele>480.7</ele>
        <time>2021-03-24T13:39:25Z</time>
      </trkpt>
      <trkpt lat="46.69839" lon="5.60836">
        <ele>480.3</ele>
        <time>2021-03-24T13:39:31Z</time>
      </trkpt>
      <trkpt lat="46.69847" lon="5.60831">
        <ele>480.5</ele>
        <time>2021-03-24T13:39:36Z</time>
      </trkpt>
      <trkpt lat="46.69853" lon="5.60827">
        <ele>480.8</ele>
        <time>2021-03-24T13:39:40Z</time>
      </trkpt>
      <trkpt lat="46.69858" lon="5.60824">
        <ele>481</ele>
        <time>2021-03-24T13:39:47Z</time>
      </trkpt>
      <trkpt lat="46.6987" lon="5.60823">
        <ele>482</ele>
        <time>2021-03-24T13:39:51Z</time>
      </trkpt>
      <trkpt lat="46.69876" lon="5.60823">
        <ele>482.7</ele>
        <time>2021-03-24T13:39:55Z</time>
      </trkpt>
      <trkpt lat="46.69881" lon="5.60822">
        <ele>483</ele>
        <time>2021-03-24T13:40:01Z</time>
      </trkpt>
      <trkpt lat="46.69886" lon="5.6082">
        <ele>482.8</ele>
        <time>2021-03-24T13:40:09Z</time>
      </trkpt>
      <trkpt lat="46.69891" lon="5.60821">
        <ele>481.9</ele>
        <time>2021-03-24T13:40:18Z</time>
      </trkpt>
      <trkpt lat="46.69896" lon="5.60821">
        <ele>481.4</ele>
        <time>2021-03-24T13:40:23Z</time>
      </trkpt>
      <trkpt lat="46.69901" lon="5.60822">
        <ele>481</ele>
        <time>2021-03-24T13:40:31Z</time>
      </trkpt>
      <trkpt lat="46.69906" lon="5.60821">
        <ele>480.7</ele>
        <time>2021-03-24T13:40:38Z</time>
      </trkpt>
      <trkpt lat="46.6991" lon="5.6082">
        <ele>480.5</ele>
        <time>2021-03-24T13:40:44Z</time>
      </trkpt>
      <trkpt lat="46.69922" lon="5.60819">
        <ele>480.5</ele>
        <time>2021-03-24T13:40:49Z</time>
      </trkpt>
      <trkpt lat="46.69931" lon="5.60816">
        <ele>480.2</ele>
        <time>2021-03-24T13:40:53Z</time>
      </trkpt>
      <trkpt lat="46.69936" lon="5.60813">
        <ele>479.5</ele>
        <time>2021-03-24T13:40:58Z</time>
      </trkpt>
      <trkpt lat="46.69941" lon="5.6081">
        <ele>478.9</ele>
        <time>2021-03-24T13:41:03Z</time>
      </trkpt>
      <trkpt lat="46.69946" lon="5.60807">
        <ele>478.1</ele>
        <time>2021-03-24T13:41:08Z</time>
      </trkpt>
      <trkpt lat="46.69951" lon="5.60803">
        <ele>477.1</ele>
        <time>2021-03-24T13:41:14Z</time>
      </trkpt>
      <trkpt lat="46.69955" lon="5.60801">
        <ele>476.5</ele>
        <time>2021-03-24T13:41:20Z</time>
      </trkpt>
      <trkpt lat="46.69965" lon="5.60801">
        <ele>477</ele>
        <time>2021-03-24T13:41:24Z</time>
      </trkpt>
      <trkpt lat="46.69972" lon="5.608">
        <ele>477.3</ele>
        <time>2021-03-24T13:41:28Z</time>
      </trkpt>
      <trkpt lat="46.69977" lon="5.60798">
        <ele>477.3</ele>
        <time>2021-03-24T13:41:34Z</time>
      </trkpt>
      <trkpt lat="46.69981" lon="5.60796">
        <ele>477.2</ele>
        <time>2021-03-24T13:41:39Z</time>
      </trkpt>
      <trkpt lat="46.69984" lon="5.60791">
        <ele>477.3</ele>
        <time>2021-03-24T13:41:45Z</time>
      </trkpt>
      <trkpt lat="46.69986" lon="5.60781">
        <ele>478.8</ele>
        <time>2021-03-24T13:41:49Z</time>
      </trkpt>
      <trkpt lat="46.69988" lon="5.60774">
        <ele>480</ele>
        <time>2021-03-24T13:41:53Z</time>
      </trkpt>
      <trkpt lat="46.69991" lon="5.60769">
        <ele>480.6</ele>
        <time>2021-03-24T13:41:59Z</time>
      </trkpt>
      <trkpt lat="46.69995" lon="5.60766">
        <ele>480.6</ele>
        <time>2021-03-24T13:42:04Z</time>
      </trkpt>
      <trkpt lat="46.7" lon="5.60763">
        <ele>480.3</ele>
        <time>2021-03-24T13:42:10Z</time>
      </trkpt>
      <trkpt lat="46.70003" lon="5.60758">
        <ele>480</ele>
        <time>2021-03-24T13:42:14Z</time>
      </trkpt>
      <trkpt lat="46.70007" lon="5.60752">
        <ele>479.8</ele>
        <time>2021-03-24T13:42:19Z</time>
      </trkpt>
      <trkpt lat="46.7001" lon="5.60747">
        <ele>479.7</ele>
        <time>2021-03-24T13:42:23Z</time>
      </trkpt>
      <trkpt lat="46.70014" lon="5.60743">
        <ele>479.7</ele>
        <time>2021-03-24T13:42:27Z</time>
      </trkpt>
      <trkpt lat="46.70017" lon="5.60737">
        <ele>479.6</ele>
        <time>2021-03-24T13:42:32Z</time>
      </trkpt>
      <trkpt lat="46.70022" lon="5.60733">
        <ele>479.5</ele>
        <time>2021-03-24T13:42:37Z</time>
      </trkpt>
      <trkpt lat="46.70025" lon="5.60727">
        <ele>479.1</ele>
        <time>2021-03-24T13:42:43Z</time>
      </trkpt>
      <trkpt lat="46.70027" lon="5.60721">
        <ele>478.9</ele>
        <time>2021-03-24T13:42:47Z</time>
      </trkpt>
      <trkpt lat="46.7003" lon="5.60715">
        <ele>478.7</ele>
        <time>2021-03-24T13:42:51Z</time>
      </trkpt>
      <trkpt lat="46.70034" lon="5.6071">
        <ele>478.2</ele>
        <time>2021-03-24T13:42:56Z</time>
      </trkpt>
      <trkpt lat="46.70035" lon="5.60698">
        <ele>478.7</ele>
        <time>2021-03-24T13:43:00Z</time>
      </trkpt>
      <trkpt lat="46.70038" lon="5.60692">
        <ele>479.3</ele>
        <time>2021-03-24T13:43:07Z</time>
      </trkpt>
      <trkpt lat="46.7004" lon="5.60681">
        <ele>477.9</ele>
        <time>2021-03-24T13:43:11Z</time>
      </trkpt>
      <trkpt lat="46.70042" lon="5.60675">
        <ele>476.1</ele>
        <time>2021-03-24T13:43:19Z</time>
      </trkpt>
      <trkpt lat="46.70045" lon="5.60669">
        <ele>475.8</ele>
        <time>2021-03-24T13:43:24Z</time>
      </trkpt>
      <trkpt lat="46.70049" lon="5.60664">
        <ele>475.5</ele>
        <time>2021-03-24T13:43:31Z</time>
      </trkpt>
      <trkpt lat="46.70054" lon="5.60657">
        <ele>476.5</ele>
        <time>2021-03-24T13:43:35Z</time>
      </trkpt>
      <trkpt lat="46.70059" lon="5.60652">
        <ele>477.7</ele>
        <time>2021-03-24T13:43:39Z</time>
      </trkpt>
      <trkpt lat="46.70063" lon="5.60649">
        <ele>478.9</ele>
        <time>2021-03-24T13:43:44Z</time>
      </trkpt>
      <trkpt lat="46.70069" lon="5.60647">
        <ele>479.8</ele>
        <time>2021-03-24T13:43:48Z</time>
      </trkpt>
      <trkpt lat="46.70077" lon="5.60645">
        <ele>480.8</ele>
        <time>2021-03-24T13:43:52Z</time>
      </trkpt>
      <trkpt lat="46.70082" lon="5.60643">
        <ele>481.9</ele>
        <time>2021-03-24T13:43:56Z</time>
      </trkpt>
      <trkpt lat="46.70086" lon="5.6064">
        <ele>482.8</ele>
        <time>2021-03-24T13:44:08Z</time>
      </trkpt>
      <trkpt lat="46.7009" lon="5.60636">
        <ele>482.5</ele>
        <time>2021-03-24T13:44:15Z</time>
      </trkpt>
      <trkpt lat="46.70094" lon="5.60624">
        <ele>481.6</ele>
        <time>2021-03-24T13:44:19Z</time>
      </trkpt>
      <trkpt lat="46.70097" lon="5.6062">
        <ele>481</ele>
        <time>2021-03-24T13:44:23Z</time>
      </trkpt>
      <trkpt lat="46.70101" lon="5.60617">
        <ele>480.7</ele>
        <time>2021-03-24T13:44:28Z</time>
      </trkpt>
      <trkpt lat="46.70105" lon="5.60614">
        <ele>480.4</ele>
        <time>2021-03-24T13:44:33Z</time>
      </trkpt>
      <trkpt lat="46.70109" lon="5.60609">
        <ele>480.1</ele>
        <time>2021-03-24T13:44:39Z</time>
      </trkpt>
      <trkpt lat="46.70112" lon="5.60604">
        <ele>479.7</ele>
        <time>2021-03-24T13:44:44Z</time>
      </trkpt>
      <trkpt lat="46.70117" lon="5.606">
        <ele>479.3</ele>
        <time>2021-03-24T13:44:49Z</time>
      </trkpt>
      <trkpt lat="46.70121" lon="5.60596">
        <ele>479.2</ele>
        <time>2021-03-24T13:44:53Z</time>
      </trkpt>
      <trkpt lat="46.70126" lon="5.60593">
        <ele>479.4</ele>
        <time>2021-03-24T13:44:58Z</time>
      </trkpt>
      <trkpt lat="46.70131" lon="5.60592">
        <ele>479.5</ele>
        <time>2021-03-24T13:45:02Z</time>
      </trkpt>
      <trkpt lat="46.70134" lon="5.60588">
        <ele>479.5</ele>
        <time>2021-03-24T13:45:08Z</time>
      </trkpt>
      <trkpt lat="46.70137" lon="5.60583">
        <ele>479.9</ele>
        <time>2021-03-24T13:45:13Z</time>
      </trkpt>
      <trkpt lat="46.70142" lon="5.60579">
        <ele>480.2</ele>
        <time>2021-03-24T13:45:17Z</time>
      </trkpt>
      <trkpt lat="46.70146" lon="5.60575">
        <ele>480.4</ele>
        <time>2021-03-24T13:45:22Z</time>
      </trkpt>
      <trkpt lat="46.7015" lon="5.6057">
        <ele>480.9</ele>
        <time>2021-03-24T13:45:28Z</time>
      </trkpt>
      <trkpt lat="46.70154" lon="5.60567">
        <ele>481.4</ele>
        <time>2021-03-24T13:45:32Z</time>
      </trkpt>
      <trkpt lat="46.70159" lon="5.60565">
        <ele>482.2</ele>
        <time>2021-03-24T13:45:37Z</time>
      </trkpt>
      <trkpt lat="46.70166" lon="5.60563">
        <ele>483.7</ele>
        <time>2021-03-24T13:45:44Z</time>
      </trkpt>
      <trkpt lat="46.70171" lon="5.60562">
        <ele>485.1</ele>
        <time>2021-03-24T13:45:49Z</time>
      </trkpt>
      <trkpt lat="46.70176" lon="5.60557">
        <ele>486.7</ele>
        <time>2021-03-24T13:45:53Z</time>
      </trkpt>
      <trkpt lat="46.70179" lon="5.60552">
        <ele>488.9</ele>
        <time>2021-03-24T13:45:58Z</time>
      </trkpt>
      <trkpt lat="46.70183" lon="5.60547">
        <ele>490.9</ele>
        <time>2021-03-24T13:46:06Z</time>
      </trkpt>
      <trkpt lat="46.70188" lon="5.60545">
        <ele>491.7</ele>
        <time>2021-03-24T13:46:12Z</time>
      </trkpt>
      <trkpt lat="46.70193" lon="5.60543">
        <ele>492.2</ele>
        <time>2021-03-24T13:46:17Z</time>
      </trkpt>
      <trkpt lat="46.70197" lon="5.60541">
        <ele>492.7</ele>
        <time>2021-03-24T13:46:22Z</time>
      </trkpt>
      <trkpt lat="46.70201" lon="5.60536">
        <ele>491.9</ele>
        <time>2021-03-24T13:46:26Z</time>
      </trkpt>
      <trkpt lat="46.70205" lon="5.60535">
        <ele>491.5</ele>
        <time>2021-03-24T13:46:32Z</time>
      </trkpt>
      <trkpt lat="46.7021" lon="5.60534">
        <ele>491.6</ele>
        <time>2021-03-24T13:46:39Z</time>
      </trkpt>
      <trkpt lat="46.70215" lon="5.6053">
        <ele>491.6</ele>
        <time>2021-03-24T13:46:44Z</time>
      </trkpt>
      <trkpt lat="46.70219" lon="5.60527">
        <ele>491.4</ele>
        <time>2021-03-24T13:46:48Z</time>
      </trkpt>
      <trkpt lat="46.70224" lon="5.60524">
        <ele>491.3</ele>
        <time>2021-03-24T13:46:53Z</time>
      </trkpt>
      <trkpt lat="46.70233" lon="5.60519">
        <ele>490.7</ele>
        <time>2021-03-24T13:46:57Z</time>
      </trkpt>
      <trkpt lat="46.70237" lon="5.60515">
        <ele>490.3</ele>
        <time>2021-03-24T13:47:01Z</time>
      </trkpt>
      <trkpt lat="46.70241" lon="5.60512">
        <ele>490.1</ele>
        <time>2021-03-24T13:47:07Z</time>
      </trkpt>
      <trkpt lat="46.70245" lon="5.60507">
        <ele>490.2</ele>
        <time>2021-03-24T13:47:12Z</time>
      </trkpt>
      <trkpt lat="46.70248" lon="5.60502">
        <ele>490.4</ele>
        <time>2021-03-24T13:47:17Z</time>
      </trkpt>
      <trkpt lat="46.70253" lon="5.60498">
        <ele>490.7</ele>
        <time>2021-03-24T13:47:23Z</time>
      </trkpt>
      <trkpt lat="46.70258" lon="5.60492">
        <ele>490.7</ele>
        <time>2021-03-24T13:47:29Z</time>
      </trkpt>
      <trkpt lat="46.70261" lon="5.60486">
        <ele>490.6</ele>
        <time>2021-03-24T13:47:33Z</time>
      </trkpt>
      <trkpt lat="46.70265" lon="5.60482">
        <ele>490.6</ele>
        <time>2021-03-24T13:47:40Z</time>
      </trkpt>
      <trkpt lat="46.7027" lon="5.6048">
        <ele>490.6</ele>
        <time>2021-03-24T13:47:47Z</time>
      </trkpt>
      <trkpt lat="46.70275" lon="5.60478">
        <ele>490.7</ele>
        <time>2021-03-24T13:47:53Z</time>
      </trkpt>
      <trkpt lat="46.7028" lon="5.60478">
        <ele>491.1</ele>
        <time>2021-03-24T13:48:02Z</time>
      </trkpt>
      <trkpt lat="46.70285" lon="5.60472">
        <ele>492</ele>
        <time>2021-03-24T13:48:10Z</time>
      </trkpt>
      <trkpt lat="46.70288" lon="5.60467">
        <ele>492.6</ele>
        <time>2021-03-24T13:48:14Z</time>
      </trkpt>
      <trkpt lat="46.70293" lon="5.60467">
        <ele>493.3</ele>
        <time>2021-03-24T13:48:21Z</time>
      </trkpt>
      <trkpt lat="46.70298" lon="5.60468">
        <ele>493.7</ele>
        <time>2021-03-24T13:48:26Z</time>
      </trkpt>
      <trkpt lat="46.70303" lon="5.60469">
        <ele>494.3</ele>
        <time>2021-03-24T13:48:32Z</time>
      </trkpt>
      <trkpt lat="46.70308" lon="5.60467">
        <ele>495</ele>
        <time>2021-03-24T13:48:39Z</time>
      </trkpt>
      <trkpt lat="46.70313" lon="5.60465">
        <ele>495.7</ele>
        <time>2021-03-24T13:48:51Z</time>
      </trkpt>
      <trkpt lat="46.70318" lon="5.60465">
        <ele>496</ele>
        <time>2021-03-24T13:48:57Z</time>
      </trkpt>
      <trkpt lat="46.70322" lon="5.60463">
        <ele>496.4</ele>
        <time>2021-03-24T13:49:03Z</time>
      </trkpt>
      <trkpt lat="46.70329" lon="5.60456">
        <ele>497</ele>
        <time>2021-03-24T13:49:53Z</time>
      </trkpt>
      <trkpt lat="46.70335" lon="5.60454">
        <ele>496.8</ele>
        <time>2021-03-24T13:49:57Z</time>
      </trkpt>
      <trkpt lat="46.7034" lon="5.60453">
        <ele>496.5</ele>
        <time>2021-03-24T13:50:03Z</time>
      </trkpt>
      <trkpt lat="46.70345" lon="5.6045">
        <ele>496.4</ele>
        <time>2021-03-24T13:50:14Z</time>
      </trkpt>
      <trkpt lat="46.70349" lon="5.6045">
        <ele>496.5</ele>
        <time>2021-03-24T13:50:21Z</time>
      </trkpt>
      <trkpt lat="46.70354" lon="5.60449">
        <ele>497.2</ele>
        <time>2021-03-24T13:50:28Z</time>
      </trkpt>
      <trkpt lat="46.70359" lon="5.60448">
        <ele>498.4</ele>
        <time>2021-03-24T13:50:36Z</time>
      </trkpt>
      <trkpt lat="46.70364" lon="5.60446">
        <ele>499.6</ele>
        <time>2021-03-24T13:50:44Z</time>
      </trkpt>
      <trkpt lat="46.70369" lon="5.60444">
        <ele>500.4</ele>
        <time>2021-03-24T13:50:49Z</time>
      </trkpt>
      <trkpt lat="46.70373" lon="5.60441">
        <ele>501.4</ele>
        <time>2021-03-24T13:50:55Z</time>
      </trkpt>
      <trkpt lat="46.70378" lon="5.60437">
        <ele>502.3</ele>
        <time>2021-03-24T13:51:02Z</time>
      </trkpt>
      <trkpt lat="46.70382" lon="5.60433">
        <ele>503</ele>
        <time>2021-03-24T13:51:09Z</time>
      </trkpt>
      <trkpt lat="46.70386" lon="5.60429">
        <ele>503.5</ele>
        <time>2021-03-24T13:51:16Z</time>
      </trkpt>
      <trkpt lat="46.70391" lon="5.60428">
        <ele>503.8</ele>
        <time>2021-03-24T13:51:22Z</time>
      </trkpt>
      <trkpt lat="46.70396" lon="5.60428">
        <ele>504.2</ele>
        <time>2021-03-24T13:51:41Z</time>
      </trkpt>
      <trkpt lat="46.704" lon="5.60425">
        <ele>504.9</ele>
        <time>2021-03-24T13:51:46Z</time>
      </trkpt>
      <trkpt lat="46.70406" lon="5.60421">
        <ele>506.4</ele>
        <time>2021-03-24T13:52:08Z</time>
      </trkpt>
      <trkpt lat="46.7041" lon="5.60417">
        <ele>506.3</ele>
        <time>2021-03-24T13:52:15Z</time>
      </trkpt>
      <trkpt lat="46.70414" lon="5.60415">
        <ele>506.2</ele>
        <time>2021-03-24T13:52:22Z</time>
      </trkpt>
      <trkpt lat="46.70419" lon="5.60411">
        <ele>506.3</ele>
        <time>2021-03-24T13:52:28Z</time>
      </trkpt>
      <trkpt lat="46.70423" lon="5.60407">
        <ele>506.6</ele>
        <time>2021-03-24T13:52:33Z</time>
      </trkpt>
      <trkpt lat="46.70428" lon="5.60404">
        <ele>506.6</ele>
        <time>2021-03-24T13:52:40Z</time>
      </trkpt>
      <trkpt lat="46.70433" lon="5.60403">
        <ele>506.6</ele>
        <time>2021-03-24T13:52:46Z</time>
      </trkpt>
      <trkpt lat="46.70438" lon="5.60402">
        <ele>507</ele>
        <time>2021-03-24T13:52:51Z</time>
      </trkpt>
      <trkpt lat="46.70446" lon="5.60403">
        <ele>507.6</ele>
        <time>2021-03-24T13:53:08Z</time>
      </trkpt>
      <trkpt lat="46.70453" lon="5.60404">
        <ele>508</ele>
        <time>2021-03-24T13:53:12Z</time>
      </trkpt>
      <trkpt lat="46.70457" lon="5.60403">
        <ele>508.5</ele>
        <time>2021-03-24T13:53:20Z</time>
      </trkpt>
      <trkpt lat="46.70457" lon="5.60396">
        <ele>509.9</ele>
        <time>2021-03-24T13:53:24Z</time>
      </trkpt>
      <trkpt lat="46.70462" lon="5.60397">
        <ele>511.6</ele>
        <time>2021-03-24T13:53:33Z</time>
      </trkpt>
      <trkpt lat="46.70466" lon="5.60399">
        <ele>512.6</ele>
        <time>2021-03-24T13:53:40Z</time>
      </trkpt>
      <trkpt lat="46.70471" lon="5.604">
        <ele>513.7</ele>
        <time>2021-03-24T13:53:47Z</time>
      </trkpt>
      <trkpt lat="46.70476" lon="5.60401">
        <ele>515.1</ele>
        <time>2021-03-24T13:53:55Z</time>
      </trkpt>
      <trkpt lat="46.70481" lon="5.60401">
        <ele>515.9</ele>
        <time>2021-03-24T13:54:04Z</time>
      </trkpt>
      <trkpt lat="46.70485" lon="5.60401">
        <ele>516.4</ele>
        <time>2021-03-24T13:54:09Z</time>
      </trkpt>
      <trkpt lat="46.7049" lon="5.60401">
        <ele>516.8</ele>
        <time>2021-03-24T13:54:14Z</time>
      </trkpt>
      <trkpt lat="46.70495" lon="5.60402">
        <ele>517.1</ele>
        <time>2021-03-24T13:54:19Z</time>
      </trkpt>
      <trkpt lat="46.70504" lon="5.60402">
        <ele>517.9</ele>
        <time>2021-03-24T13:54:25Z</time>
      </trkpt>
      <trkpt lat="46.70511" lon="5.604">
        <ele>518.7</ele>
        <time>2021-03-24T13:54:29Z</time>
      </trkpt>
      <trkpt lat="46.70516" lon="5.60398">
        <ele>519.3</ele>
        <time>2021-03-24T13:54:34Z</time>
      </trkpt>
      <trkpt lat="46.70519" lon="5.60393">
        <ele>519.9</ele>
        <time>2021-03-24T13:54:41Z</time>
      </trkpt>
      <trkpt lat="46.70522" lon="5.60387">
        <ele>520.3</ele>
        <time>2021-03-24T13:54:47Z</time>
      </trkpt>
      <trkpt lat="46.70526" lon="5.60383">
        <ele>520.4</ele>
        <time>2021-03-24T13:54:52Z</time>
      </trkpt>
      <trkpt lat="46.7053" lon="5.60378">
        <ele>520.7</ele>
        <time>2021-03-24T13:54:57Z</time>
      </trkpt>
      <trkpt lat="46.70532" lon="5.60372">
        <ele>521.2</ele>
        <time>2021-03-24T13:55:10Z</time>
      </trkpt>
      <trkpt lat="46.7053" lon="5.60365">
        <ele>521.2</ele>
        <time>2021-03-24T13:55:15Z</time>
      </trkpt>
      <trkpt lat="46.70532" lon="5.60358">
        <ele>520.9</ele>
        <time>2021-03-24T13:55:24Z</time>
      </trkpt>
      <trkpt lat="46.70535" lon="5.60353">
        <ele>520.6</ele>
        <time>2021-03-24T13:55:37Z</time>
      </trkpt>
      <trkpt lat="46.70532" lon="5.60345">
        <ele>524.1</ele>
        <time>2021-03-24T13:58:12Z</time>
      </trkpt>
      <trkpt lat="46.70536" lon="5.6035">
        <ele>524</ele>
        <time>2021-03-24T13:58:31Z</time>
      </trkpt>
      <trkpt lat="46.70538" lon="5.60356">
        <ele>525.7</ele>
        <time>2021-03-24T13:59:24Z</time>
      </trkpt>
      <trkpt lat="46.70539" lon="5.60363">
        <ele>525.7</ele>
        <time>2021-03-24T13:59:29Z</time>
      </trkpt>
      <trkpt lat="46.70541" lon="5.60369">
        <ele>525.7</ele>
        <time>2021-03-24T13:59:35Z</time>
      </trkpt>
      <trkpt lat="46.70543" lon="5.60375">
        <ele>525.4</ele>
        <time>2021-03-24T13:59:43Z</time>
      </trkpt>
      <trkpt lat="46.70548" lon="5.60374">
        <ele>524.6</ele>
        <time>2021-03-24T13:59:51Z</time>
      </trkpt>
      <trkpt lat="46.70553" lon="5.60372">
        <ele>523.9</ele>
        <time>2021-03-24T13:59:58Z</time>
      </trkpt>
      <trkpt lat="46.70557" lon="5.60368">
        <ele>523.6</ele>
        <time>2021-03-24T14:00:04Z</time>
      </trkpt>
      <trkpt lat="46.70561" lon="5.60364">
        <ele>523.4</ele>
        <time>2021-03-24T14:00:09Z</time>
      </trkpt>
      <trkpt lat="46.70566" lon="5.60361">
        <ele>523</ele>
        <time>2021-03-24T14:00:16Z</time>
      </trkpt>
      <trkpt lat="46.7057" lon="5.60359">
        <ele>522.7</ele>
        <time>2021-03-24T14:00:21Z</time>
      </trkpt>
      <trkpt lat="46.70575" lon="5.60356">
        <ele>522.8</ele>
        <time>2021-03-24T14:00:28Z</time>
      </trkpt>
      <trkpt lat="46.70579" lon="5.60353">
        <ele>523.1</ele>
        <time>2021-03-24T14:00:34Z</time>
      </trkpt>
      <trkpt lat="46.70584" lon="5.60353">
        <ele>523.5</ele>
        <time>2021-03-24T14:00:40Z</time>
      </trkpt>
      <trkpt lat="46.70588" lon="5.60356">
        <ele>523.2</ele>
        <time>2021-03-24T14:00:47Z</time>
      </trkpt>
      <trkpt lat="46.70593" lon="5.60358">
        <ele>522</ele>
        <time>2021-03-24T14:00:52Z</time>
      </trkpt>
      <trkpt lat="46.70603" lon="5.60356">
        <ele>522.6</ele>
        <time>2021-03-24T14:00:57Z</time>
      </trkpt>
      <trkpt lat="46.70613" lon="5.6035">
        <ele>524.8</ele>
        <time>2021-03-24T14:01:01Z</time>
      </trkpt>
      <trkpt lat="46.70618" lon="5.6035">
        <ele>526.2</ele>
        <time>2021-03-24T14:01:06Z</time>
      </trkpt>
      <trkpt lat="46.70622" lon="5.60351">
        <ele>526.8</ele>
        <time>2021-03-24T14:01:12Z</time>
      </trkpt>
      <trkpt lat="46.70627" lon="5.60348">
        <ele>526.8</ele>
        <time>2021-03-24T14:01:18Z</time>
      </trkpt>
      <trkpt lat="46.70629" lon="5.60342">
        <ele>526.3</ele>
        <time>2021-03-24T14:01:26Z</time>
      </trkpt>
      <trkpt lat="46.70628" lon="5.60332">
        <ele>526.7</ele>
        <time>2021-03-24T14:01:31Z</time>
      </trkpt>
      <trkpt lat="46.70627" lon="5.60324">
        <ele>527.3</ele>
        <time>2021-03-24T14:01:35Z</time>
      </trkpt>
      <trkpt lat="46.70629" lon="5.60317">
        <ele>527.7</ele>
        <time>2021-03-24T14:01:41Z</time>
      </trkpt>
      <trkpt lat="46.70633" lon="5.60314">
        <ele>528</ele>
        <time>2021-03-24T14:01:48Z</time>
      </trkpt>
      <trkpt lat="46.70638" lon="5.60312">
        <ele>528.3</ele>
        <time>2021-03-24T14:01:53Z</time>
      </trkpt>
      <trkpt lat="46.70643" lon="5.60311">
        <ele>528.2</ele>
        <time>2021-03-24T14:01:57Z</time>
      </trkpt>
      <trkpt lat="46.70647" lon="5.60308">
        <ele>527.8</ele>
        <time>2021-03-24T14:02:01Z</time>
      </trkpt>
      <trkpt lat="46.70651" lon="5.60307">
        <ele>527.3</ele>
        <time>2021-03-24T14:02:07Z</time>
      </trkpt>
      <trkpt lat="46.70656" lon="5.60306">
        <ele>526.9</ele>
        <time>2021-03-24T14:02:12Z</time>
      </trkpt>
      <trkpt lat="46.70661" lon="5.60309">
        <ele>526.5</ele>
        <time>2021-03-24T14:02:17Z</time>
      </trkpt>
      <trkpt lat="46.70666" lon="5.60311">
        <ele>526.1</ele>
        <time>2021-03-24T14:02:21Z</time>
      </trkpt>
      <trkpt lat="46.70671" lon="5.60312">
        <ele>525.6</ele>
        <time>2021-03-24T14:02:27Z</time>
      </trkpt>
      <trkpt lat="46.70675" lon="5.60312">
        <ele>525.1</ele>
        <time>2021-03-24T14:02:33Z</time>
      </trkpt>
      <trkpt lat="46.70681" lon="5.6031">
        <ele>524.3</ele>
        <time>2021-03-24T14:02:39Z</time>
      </trkpt>
      <trkpt lat="46.70685" lon="5.60309">
        <ele>524.1</ele>
        <time>2021-03-24T14:02:44Z</time>
      </trkpt>
      <trkpt lat="46.7069" lon="5.60309">
        <ele>524.2</ele>
        <time>2021-03-24T14:02:52Z</time>
      </trkpt>
      <trkpt lat="46.70696" lon="5.60309">
        <ele>524.4</ele>
        <time>2021-03-24T14:02:58Z</time>
      </trkpt>
      <trkpt lat="46.70701" lon="5.60311">
        <ele>524.4</ele>
        <time>2021-03-24T14:03:03Z</time>
      </trkpt>
      <trkpt lat="46.70706" lon="5.60313">
        <ele>524.4</ele>
        <time>2021-03-24T14:03:08Z</time>
      </trkpt>
      <trkpt lat="46.70711" lon="5.60314">
        <ele>524.2</ele>
        <time>2021-03-24T14:03:13Z</time>
      </trkpt>
      <trkpt lat="46.70715" lon="5.60316">
        <ele>523.8</ele>
        <time>2021-03-24T14:03:18Z</time>
      </trkpt>
      <trkpt lat="46.7072" lon="5.60317">
        <ele>522.8</ele>
        <time>2021-03-24T14:03:24Z</time>
      </trkpt>
      <trkpt lat="46.70725" lon="5.60317">
        <ele>521.6</ele>
        <time>2021-03-24T14:03:32Z</time>
      </trkpt>
      <trkpt lat="46.70729" lon="5.60317">
        <ele>520.7</ele>
        <time>2021-03-24T14:03:37Z</time>
      </trkpt>
      <trkpt lat="46.70735" lon="5.60318">
        <ele>519.7</ele>
        <time>2021-03-24T14:03:42Z</time>
      </trkpt>
      <trkpt lat="46.7074" lon="5.60319">
        <ele>518.4</ele>
        <time>2021-03-24T14:03:51Z</time>
      </trkpt>
      <trkpt lat="46.70748" lon="5.60318">
        <ele>517.5</ele>
        <time>2021-03-24T14:03:55Z</time>
      </trkpt>
      <trkpt lat="46.70754" lon="5.60318">
        <ele>516.9</ele>
        <time>2021-03-24T14:03:59Z</time>
      </trkpt>
      <trkpt lat="46.70759" lon="5.6032">
        <ele>516.1</ele>
        <time>2021-03-24T14:04:05Z</time>
      </trkpt>
      <trkpt lat="46.70764" lon="5.60321">
        <ele>514.9</ele>
        <time>2021-03-24T14:04:14Z</time>
      </trkpt>
      <trkpt lat="46.70769" lon="5.60321">
        <ele>512.7</ele>
        <time>2021-03-24T14:05:20Z</time>
      </trkpt>
      <trkpt lat="46.70773" lon="5.6032">
        <ele>511.1</ele>
        <time>2021-03-24T14:05:32Z</time>
      </trkpt>
      <trkpt lat="46.70778" lon="5.6032">
        <ele>509.5</ele>
        <time>2021-03-24T14:06:20Z</time>
      </trkpt>
      <trkpt lat="46.70777" lon="5.60327">
        <ele>507.6</ele>
        <time>2021-03-24T14:06:27Z</time>
      </trkpt>
      <trkpt lat="46.70774" lon="5.60332">
        <ele>506.5</ele>
        <time>2021-03-24T14:06:38Z</time>
      </trkpt>
      <trkpt lat="46.70775" lon="5.60339">
        <ele>506.3</ele>
        <time>2021-03-24T14:06:47Z</time>
      </trkpt>
      <trkpt lat="46.70777" lon="5.60345">
        <ele>506.2</ele>
        <time>2021-03-24T14:06:54Z</time>
      </trkpt>
      <trkpt lat="46.70783" lon="5.60352">
        <ele>506.8</ele>
        <time>2021-03-24T14:07:03Z</time>
      </trkpt>
      <trkpt lat="46.70788" lon="5.60355">
        <ele>507.3</ele>
        <time>2021-03-24T14:07:07Z</time>
      </trkpt>
      <trkpt lat="46.70791" lon="5.6036">
        <ele>507.8</ele>
        <time>2021-03-24T14:07:14Z</time>
      </trkpt>
      <trkpt lat="46.70796" lon="5.60362">
        <ele>508.1</ele>
        <time>2021-03-24T14:07:24Z</time>
      </trkpt>
      <trkpt lat="46.708" lon="5.60364">
        <ele>507.9</ele>
        <time>2021-03-24T14:07:32Z</time>
      </trkpt>
      <trkpt lat="46.70806" lon="5.60364">
        <ele>508</ele>
        <time>2021-03-24T14:07:55Z</time>
      </trkpt>
      <trkpt lat="46.7081" lon="5.6037">
        <ele>507.9</ele>
        <time>2021-03-24T14:08:00Z</time>
      </trkpt>
      <trkpt lat="46.70814" lon="5.60374">
        <ele>507.5</ele>
        <time>2021-03-24T14:08:05Z</time>
      </trkpt>
      <trkpt lat="46.70817" lon="5.6038">
        <ele>506.8</ele>
        <time>2021-03-24T14:08:13Z</time>
      </trkpt>
      <trkpt lat="46.7082" lon="5.60385">
        <ele>506.7</ele>
        <time>2021-03-24T14:08:20Z</time>
      </trkpt>
      <trkpt lat="46.70823" lon="5.6039">
        <ele>506.7</ele>
        <time>2021-03-24T14:08:24Z</time>
      </trkpt>
      <trkpt lat="46.70826" lon="5.60395">
        <ele>506.8</ele>
        <time>2021-03-24T14:08:28Z</time>
      </trkpt>
      <trkpt lat="46.70829" lon="5.60401">
        <ele>506.8</ele>
        <time>2021-03-24T14:08:32Z</time>
      </trkpt>
      <trkpt lat="46.70832" lon="5.60407">
        <ele>506.6</ele>
        <time>2021-03-24T14:08:36Z</time>
      </trkpt>
      <trkpt lat="46.70837" lon="5.60411">
        <ele>506.5</ele>
        <time>2021-03-24T14:08:42Z</time>
      </trkpt>
      <trkpt lat="46.7084" lon="5.60416">
        <ele>506.7</ele>
        <time>2021-03-24T14:08:47Z</time>
      </trkpt>
      <trkpt lat="46.70844" lon="5.60421">
        <ele>506.8</ele>
        <time>2021-03-24T14:08:52Z</time>
      </trkpt>
      <trkpt lat="46.70847" lon="5.60426">
        <ele>506.9</ele>
        <time>2021-03-24T14:08:58Z</time>
      </trkpt>
      <trkpt lat="46.70851" lon="5.6043">
        <ele>507.3</ele>
        <time>2021-03-24T14:09:04Z</time>
      </trkpt>
      <trkpt lat="46.70853" lon="5.60436">
        <ele>507.5</ele>
        <time>2021-03-24T14:09:11Z</time>
      </trkpt>
      <trkpt lat="46.70857" lon="5.6044">
        <ele>507.7</ele>
        <time>2021-03-24T14:09:18Z</time>
      </trkpt>
      <trkpt lat="46.70862" lon="5.60444">
        <ele>507.6</ele>
        <time>2021-03-24T14:09:23Z</time>
      </trkpt>
      <trkpt lat="46.70867" lon="5.60448">
        <ele>507.1</ele>
        <time>2021-03-24T14:09:28Z</time>
      </trkpt>
      <trkpt lat="46.70871" lon="5.60451">
        <ele>506.5</ele>
        <time>2021-03-24T14:09:33Z</time>
      </trkpt>
      <trkpt lat="46.70876" lon="5.60454">
        <ele>505.7</ele>
        <time>2021-03-24T14:09:38Z</time>
      </trkpt>
      <trkpt lat="46.70879" lon="5.60458">
        <ele>505.3</ele>
        <time>2021-03-24T14:09:42Z</time>
      </trkpt>
      <trkpt lat="46.70884" lon="5.60461">
        <ele>504.9</ele>
        <time>2021-03-24T14:09:47Z</time>
      </trkpt>
      <trkpt lat="46.70889" lon="5.60466">
        <ele>504.3</ele>
        <time>2021-03-24T14:09:53Z</time>
      </trkpt>
      <trkpt lat="46.70892" lon="5.60471">
        <ele>503.7</ele>
        <time>2021-03-24T14:09:58Z</time>
      </trkpt>
      <trkpt lat="46.70896" lon="5.60475">
        <ele>503.2</ele>
        <time>2021-03-24T14:10:03Z</time>
      </trkpt>
      <trkpt lat="46.709" lon="5.60477">
        <ele>502.4</ele>
        <time>2021-03-24T14:10:09Z</time>
      </trkpt>
      <trkpt lat="46.70903" lon="5.60482">
        <ele>501.6</ele>
        <time>2021-03-24T14:10:14Z</time>
      </trkpt>
      <trkpt lat="46.70907" lon="5.60487">
        <ele>500.5</ele>
        <time>2021-03-24T14:10:21Z</time>
      </trkpt>
      <trkpt lat="46.70912" lon="5.60488">
        <ele>499.3</ele>
        <time>2021-03-24T14:10:30Z</time>
      </trkpt>
      <trkpt lat="46.70916" lon="5.60486">
        <ele>498.8</ele>
        <time>2021-03-24T14:10:36Z</time>
      </trkpt>
      <trkpt lat="46.70926" lon="5.60482">
        <ele>499.8</ele>
        <time>2021-03-24T14:10:44Z</time>
      </trkpt>
      <trkpt lat="46.70933" lon="5.6048">
        <ele>501.2</ele>
        <time>2021-03-24T14:10:48Z</time>
      </trkpt>
      <trkpt lat="46.70938" lon="5.60478">
        <ele>503</ele>
        <time>2021-03-24T14:11:01Z</time>
      </trkpt>
      <trkpt lat="46.70943" lon="5.60479">
        <ele>503.1</ele>
        <time>2021-03-24T14:11:06Z</time>
      </trkpt>
      <trkpt lat="46.70947" lon="5.60482">
        <ele>502.9</ele>
        <time>2021-03-24T14:11:11Z</time>
      </trkpt>
      <trkpt lat="46.70951" lon="5.60485">
        <ele>502.8</ele>
        <time>2021-03-24T14:11:15Z</time>
      </trkpt>
      <trkpt lat="46.70953" lon="5.60491">
        <ele>501.3</ele>
        <time>2021-03-24T14:11:24Z</time>
      </trkpt>
      <trkpt lat="46.70958" lon="5.60496">
        <ele>500</ele>
        <time>2021-03-24T14:11:31Z</time>
      </trkpt>
      <trkpt lat="46.70961" lon="5.60501">
        <ele>499.7</ele>
        <time>2021-03-24T14:11:37Z</time>
      </trkpt>
      <trkpt lat="46.70965" lon="5.60504">
        <ele>499.3</ele>
        <time>2021-03-24T14:11:43Z</time>
      </trkpt>
      <trkpt lat="46.70969" lon="5.60507">
        <ele>498.6</ele>
        <time>2021-03-24T14:11:47Z</time>
      </trkpt>
      <trkpt lat="46.70974" lon="5.60509">
        <ele>498.5</ele>
        <time>2021-03-24T14:11:52Z</time>
      </trkpt>
      <trkpt lat="46.70978" lon="5.60511">
        <ele>498.1</ele>
        <time>2021-03-24T14:11:56Z</time>
      </trkpt>
      <trkpt lat="46.70983" lon="5.60514">
        <ele>497.7</ele>
        <time>2021-03-24T14:12:01Z</time>
      </trkpt>
      <trkpt lat="46.70987" lon="5.60518">
        <ele>496.9</ele>
        <time>2021-03-24T14:12:07Z</time>
      </trkpt>
      <trkpt lat="46.70991" lon="5.60522">
        <ele>497.2</ele>
        <time>2021-03-24T14:12:12Z</time>
      </trkpt>
      <trkpt lat="46.70995" lon="5.60527">
        <ele>498.3</ele>
        <time>2021-03-24T14:12:16Z</time>
      </trkpt>
      <trkpt lat="46.71" lon="5.60532">
        <ele>499.4</ele>
        <time>2021-03-24T14:12:20Z</time>
      </trkpt>
      <trkpt lat="46.71005" lon="5.60536">
        <ele>501.4</ele>
        <time>2021-03-24T14:12:24Z</time>
      </trkpt>
      <trkpt lat="46.71008" lon="5.60541">
        <ele>502.3</ele>
        <time>2021-03-24T14:12:28Z</time>
      </trkpt>
      <trkpt lat="46.71013" lon="5.60542">
        <ele>501.7</ele>
        <time>2021-03-24T14:12:57Z</time>
      </trkpt>
      <trkpt lat="46.71019" lon="5.60537">
        <ele>500.5</ele>
        <time>2021-03-24T14:13:11Z</time>
      </trkpt>
      <trkpt lat="46.71025" lon="5.60538">
        <ele>499.2</ele>
        <time>2021-03-24T14:13:21Z</time>
      </trkpt>
      <trkpt lat="46.7103" lon="5.60539">
        <ele>497.8</ele>
        <time>2021-03-24T14:13:26Z</time>
      </trkpt>
      <trkpt lat="46.71027" lon="5.60533">
        <ele>497.3</ele>
        <time>2021-03-24T14:13:31Z</time>
      </trkpt>
      <trkpt lat="46.71023" lon="5.60528">
        <ele>497.6</ele>
        <time>2021-03-24T14:13:35Z</time>
      </trkpt>
      <trkpt lat="46.71021" lon="5.60522">
        <ele>498.5</ele>
        <time>2021-03-24T14:13:39Z</time>
      </trkpt>
      <trkpt lat="46.71018" lon="5.60517">
        <ele>500.1</ele>
        <time>2021-03-24T14:13:44Z</time>
      </trkpt>
      <trkpt lat="46.71023" lon="5.60519">
        <ele>504.1</ele>
        <time>2021-03-24T14:14:07Z</time>
      </trkpt>
      <trkpt lat="46.71028" lon="5.60521">
        <ele>503.5</ele>
        <time>2021-03-24T14:14:12Z</time>
      </trkpt>
      <trkpt lat="46.71023" lon="5.60519">
        <ele>502.1</ele>
        <time>2021-03-24T14:14:30Z</time>
      </trkpt>
      <trkpt lat="46.7102" lon="5.60515">
        <ele>501.4</ele>
        <time>2021-03-24T14:14:34Z</time>
      </trkpt>
      <trkpt lat="46.71018" lon="5.60509">
        <ele>501.1</ele>
        <time>2021-03-24T14:14:40Z</time>
      </trkpt>
      <trkpt lat="46.71016" lon="5.60502">
        <ele>500.8</ele>
        <time>2021-03-24T14:14:48Z</time>
      </trkpt>
      <trkpt lat="46.71007" lon="5.60472">
        <ele>501.7</ele>
        <time>2021-03-24T14:14:52Z</time>
      </trkpt>
      <trkpt lat="46.71005" lon="5.60461">
        <ele>502.7</ele>
        <time>2021-03-24T14:14:56Z</time>
      </trkpt>
      <trkpt lat="46.71004" lon="5.60455">
        <ele>497.7</ele>
        <time>2021-03-24T14:15:16Z</time>
      </trkpt>
      <trkpt lat="46.71002" lon="5.60449">
        <ele>495.2</ele>
        <time>2021-03-24T14:15:22Z</time>
      </trkpt>
      <trkpt lat="46.70999" lon="5.60444">
        <ele>494.7</ele>
        <time>2021-03-24T14:15:28Z</time>
      </trkpt>
      <trkpt lat="46.70995" lon="5.60435">
        <ele>495.3</ele>
        <time>2021-03-24T14:15:32Z</time>
      </trkpt>
      <trkpt lat="46.7099" lon="5.60425">
        <ele>496.4</ele>
        <time>2021-03-24T14:15:36Z</time>
      </trkpt>
      <trkpt lat="46.70987" lon="5.60419">
        <ele>497.9</ele>
        <time>2021-03-24T14:15:41Z</time>
      </trkpt>
      <trkpt lat="46.70983" lon="5.60414">
        <ele>500</ele>
        <time>2021-03-24T14:15:47Z</time>
      </trkpt>
      <trkpt lat="46.70982" lon="5.60407">
        <ele>501.6</ele>
        <time>2021-03-24T14:15:56Z</time>
      </trkpt>
      <trkpt lat="46.70979" lon="5.604">
        <ele>500.4</ele>
        <time>2021-03-24T14:16:17Z</time>
      </trkpt>
      <trkpt lat="46.70974" lon="5.60395">
        <ele>500</ele>
        <time>2021-03-24T14:16:23Z</time>
      </trkpt>
      <trkpt lat="46.70955" lon="5.60364">
        <ele>496.1</ele>
        <time>2021-03-24T14:16:27Z</time>
      </trkpt>
      <trkpt lat="46.70948" lon="5.60355">
        <ele>493.4</ele>
        <time>2021-03-24T14:16:31Z</time>
      </trkpt>
      <trkpt lat="46.70943" lon="5.60351">
        <ele>492.2</ele>
        <time>2021-03-24T14:16:35Z</time>
      </trkpt>
      <trkpt lat="46.70941" lon="5.60345">
        <ele>491.7</ele>
        <time>2021-03-24T14:16:55Z</time>
      </trkpt>
      <trkpt lat="46.70938" lon="5.60339">
        <ele>492.5</ele>
        <time>2021-03-24T14:17:02Z</time>
      </trkpt>
      <trkpt lat="46.70933" lon="5.60332">
        <ele>492.2</ele>
        <time>2021-03-24T14:17:12Z</time>
      </trkpt>
      <trkpt lat="46.70924" lon="5.60318">
        <ele>491.9</ele>
        <time>2021-03-24T14:17:16Z</time>
      </trkpt>
      <trkpt lat="46.70919" lon="5.60309">
        <ele>492</ele>
        <time>2021-03-24T14:17:20Z</time>
      </trkpt>
      <trkpt lat="46.70916" lon="5.60299">
        <ele>493.2</ele>
        <time>2021-03-24T14:17:29Z</time>
      </trkpt>
      <trkpt lat="46.70915" lon="5.60291">
        <ele>493.9</ele>
        <time>2021-03-24T14:17:33Z</time>
      </trkpt>
      <trkpt lat="46.70914" lon="5.60284">
        <ele>494.8</ele>
        <time>2021-03-24T14:17:41Z</time>
      </trkpt>
      <trkpt lat="46.70913" lon="5.60277">
        <ele>494.9</ele>
        <time>2021-03-24T14:17:52Z</time>
      </trkpt>
      <trkpt lat="46.70911" lon="5.60272">
        <ele>494.9</ele>
        <time>2021-03-24T14:17:58Z</time>
      </trkpt>
      <trkpt lat="46.70908" lon="5.60267">
        <ele>495.1</ele>
        <time>2021-03-24T14:18:04Z</time>
      </trkpt>
      <trkpt lat="46.70906" lon="5.60261">
        <ele>494.9</ele>
        <time>2021-03-24T14:18:11Z</time>
      </trkpt>
      <trkpt lat="46.709" lon="5.6025">
        <ele>495.1</ele>
        <time>2021-03-24T14:18:15Z</time>
      </trkpt>
      <trkpt lat="46.70895" lon="5.6024">
        <ele>495.6</ele>
        <time>2021-03-24T14:18:19Z</time>
      </trkpt>
      <trkpt lat="46.70892" lon="5.60234">
        <ele>496.2</ele>
        <time>2021-03-24T14:18:28Z</time>
      </trkpt>
      <trkpt lat="46.7089" lon="5.60228">
        <ele>495.9</ele>
        <time>2021-03-24T14:18:39Z</time>
      </trkpt>
      <trkpt lat="46.70886" lon="5.60225">
        <ele>495.1</ele>
        <time>2021-03-24T14:18:45Z</time>
      </trkpt>
      <trkpt lat="46.70883" lon="5.60219">
        <ele>492.1</ele>
        <time>2021-03-24T14:19:23Z</time>
      </trkpt>
      <trkpt lat="46.70887" lon="5.60214">
        <ele>489.1</ele>
        <time>2021-03-24T14:19:31Z</time>
      </trkpt>
      <trkpt lat="46.70891" lon="5.6021">
        <ele>487.6</ele>
        <time>2021-03-24T14:19:37Z</time>
      </trkpt>
      <trkpt lat="46.70894" lon="5.60204">
        <ele>486.6</ele>
        <time>2021-03-24T14:19:42Z</time>
      </trkpt>
      <trkpt lat="46.70899" lon="5.60202">
        <ele>485.8</ele>
        <time>2021-03-24T14:19:46Z</time>
      </trkpt>
      <trkpt lat="46.70904" lon="5.60202">
        <ele>485.1</ele>
        <time>2021-03-24T14:19:50Z</time>
      </trkpt>
      <trkpt lat="46.70909" lon="5.60201">
        <ele>482.9</ele>
        <time>2021-03-24T14:20:00Z</time>
      </trkpt>
      <trkpt lat="46.70914" lon="5.60199">
        <ele>480.5</ele>
        <time>2021-03-24T14:20:16Z</time>
      </trkpt>
      <trkpt lat="46.70909" lon="5.60198">
        <ele>478</ele>
        <time>2021-03-24T14:20:24Z</time>
      </trkpt>
      <trkpt lat="46.70903" lon="5.60197">
        <ele>477.1</ele>
        <time>2021-03-24T14:20:41Z</time>
      </trkpt>
      <trkpt lat="46.70897" lon="5.60197">
        <ele>477</ele>
        <time>2021-03-24T14:20:57Z</time>
      </trkpt>
      <trkpt lat="46.70894" lon="5.60202">
        <ele>477.5</ele>
        <time>2021-03-24T14:21:02Z</time>
      </trkpt>
      <trkpt lat="46.70892" lon="5.60208">
        <ele>477.8</ele>
        <time>2021-03-24T14:21:07Z</time>
      </trkpt>
      <trkpt lat="46.70889" lon="5.60214">
        <ele>478.2</ele>
        <time>2021-03-24T14:21:13Z</time>
      </trkpt>
      <trkpt lat="46.70884" lon="5.60214">
        <ele>477.9</ele>
        <time>2021-03-24T14:21:21Z</time>
      </trkpt>
      <trkpt lat="46.70881" lon="5.60208">
        <ele>478.4</ele>
        <time>2021-03-24T14:21:35Z</time>
      </trkpt>
      <trkpt lat="46.70877" lon="5.60203">
        <ele>478.6</ele>
        <time>2021-03-24T14:21:43Z</time>
      </trkpt>
      <trkpt lat="46.70873" lon="5.602">
        <ele>477.7</ele>
        <time>2021-03-24T14:21:49Z</time>
      </trkpt>
      <trkpt lat="46.70868" lon="5.60197">
        <ele>477.7</ele>
        <time>2021-03-24T14:21:53Z</time>
      </trkpt>
      <trkpt lat="46.70864" lon="5.60193">
        <ele>477.3</ele>
        <time>2021-03-24T14:21:59Z</time>
      </trkpt>
      <trkpt lat="46.70859" lon="5.60189">
        <ele>476.4</ele>
        <time>2021-03-24T14:22:04Z</time>
      </trkpt>
      <trkpt lat="46.70854" lon="5.60186">
        <ele>475.5</ele>
        <time>2021-03-24T14:22:08Z</time>
      </trkpt>
      <trkpt lat="46.70849" lon="5.60183">
        <ele>474.1</ele>
        <time>2021-03-24T14:22:13Z</time>
      </trkpt>
      <trkpt lat="46.70844" lon="5.60181">
        <ele>473.4</ele>
        <time>2021-03-24T14:22:18Z</time>
      </trkpt>
      <trkpt lat="46.70839" lon="5.60182">
        <ele>473.4</ele>
        <time>2021-03-24T14:22:22Z</time>
      </trkpt>
      <trkpt lat="46.70834" lon="5.6018">
        <ele>474</ele>
        <time>2021-03-24T14:22:27Z</time>
      </trkpt>
      <trkpt lat="46.70831" lon="5.60175">
        <ele>474.8</ele>
        <time>2021-03-24T14:22:32Z</time>
      </trkpt>
      <trkpt lat="46.70828" lon="5.60169">
        <ele>475.6</ele>
        <time>2021-03-24T14:22:37Z</time>
      </trkpt>
      <trkpt lat="46.70824" lon="5.60164">
        <ele>476.4</ele>
        <time>2021-03-24T14:22:43Z</time>
      </trkpt>
      <trkpt lat="46.70819" lon="5.60162">
        <ele>476</ele>
        <time>2021-03-24T14:22:48Z</time>
      </trkpt>
      <trkpt lat="46.70814" lon="5.6016">
        <ele>475.3</ele>
        <time>2021-03-24T14:22:52Z</time>
      </trkpt>
      <trkpt lat="46.70809" lon="5.60159">
        <ele>473.7</ele>
        <time>2021-03-24T14:22:59Z</time>
      </trkpt>
      <trkpt lat="46.70804" lon="5.60155">
        <ele>472.8</ele>
        <time>2021-03-24T14:23:04Z</time>
      </trkpt>
      <trkpt lat="46.708" lon="5.6015">
        <ele>471.9</ele>
        <time>2021-03-24T14:23:08Z</time>
      </trkpt>
      <trkpt lat="46.70794" lon="5.60144">
        <ele>471.7</ele>
        <time>2021-03-24T14:23:12Z</time>
      </trkpt>
      <trkpt lat="46.70789" lon="5.60142">
        <ele>471.7</ele>
        <time>2021-03-24T14:23:16Z</time>
      </trkpt>
      <trkpt lat="46.70784" lon="5.60142">
        <ele>472.7</ele>
        <time>2021-03-24T14:23:22Z</time>
      </trkpt>
      <trkpt lat="46.70778" lon="5.6014">
        <ele>472.6</ele>
        <time>2021-03-24T14:24:02Z</time>
      </trkpt>
      <trkpt lat="46.70774" lon="5.60144">
        <ele>467.9</ele>
        <time>2021-03-24T14:25:42Z</time>
      </trkpt>
      <trkpt lat="46.70769" lon="5.60146">
        <ele>466.7</ele>
        <time>2021-03-24T14:25:47Z</time>
      </trkpt>
      <trkpt lat="46.70765" lon="5.60149">
        <ele>466.2</ele>
        <time>2021-03-24T14:25:54Z</time>
      </trkpt>
      <trkpt lat="46.70761" lon="5.60145">
        <ele>463.5</ele>
        <time>2021-03-24T14:26:29Z</time>
      </trkpt>
      <trkpt lat="46.70757" lon="5.60148">
        <ele>462.6</ele>
        <time>2021-03-24T14:26:40Z</time>
      </trkpt>
      <trkpt lat="46.70752" lon="5.6015">
        <ele>462.2</ele>
        <time>2021-03-24T14:26:46Z</time>
      </trkpt>
      <trkpt lat="46.70747" lon="5.60152">
        <ele>462</ele>
        <time>2021-03-24T14:26:51Z</time>
      </trkpt>
      <trkpt lat="46.70743" lon="5.60154">
        <ele>461.8</ele>
        <time>2021-03-24T14:26:57Z</time>
      </trkpt>
      <trkpt lat="46.70739" lon="5.60157">
        <ele>461.3</ele>
        <time>2021-03-24T14:27:05Z</time>
      </trkpt>
      <trkpt lat="46.70733" lon="5.6016">
        <ele>460.2</ele>
        <time>2021-03-24T14:27:26Z</time>
      </trkpt>
      <trkpt lat="46.70729" lon="5.60165">
        <ele>459.8</ele>
        <time>2021-03-24T14:27:31Z</time>
      </trkpt>
      <trkpt lat="46.70724" lon="5.60166">
        <ele>459.1</ele>
        <time>2021-03-24T14:27:39Z</time>
      </trkpt>
      <trkpt lat="46.70718" lon="5.60163">
        <ele>458.3</ele>
        <time>2021-03-24T14:27:56Z</time>
      </trkpt>
      <trkpt lat="46.70714" lon="5.60161">
        <ele>458.5</ele>
        <time>2021-03-24T14:28:03Z</time>
      </trkpt>
      <trkpt lat="46.70709" lon="5.60159">
        <ele>459.8</ele>
        <time>2021-03-24T14:28:12Z</time>
      </trkpt>
      <trkpt lat="46.70706" lon="5.60154">
        <ele>460.1</ele>
        <time>2021-03-24T14:28:19Z</time>
      </trkpt>
      <trkpt lat="46.70701" lon="5.60151">
        <ele>459.4</ele>
        <time>2021-03-24T14:28:26Z</time>
      </trkpt>
      <trkpt lat="46.70697" lon="5.60148">
        <ele>457.6</ele>
        <time>2021-03-24T14:28:35Z</time>
      </trkpt>
      <trkpt lat="46.70693" lon="5.60144">
        <ele>455.9</ele>
        <time>2021-03-24T14:28:47Z</time>
      </trkpt>
      <trkpt lat="46.7069" lon="5.60138">
        <ele>455</ele>
        <time>2021-03-24T14:29:03Z</time>
      </trkpt>
      <trkpt lat="46.70685" lon="5.60136">
        <ele>454.6</ele>
        <time>2021-03-24T14:29:09Z</time>
      </trkpt>
      <trkpt lat="46.7068" lon="5.60133">
        <ele>454.1</ele>
        <time>2021-03-24T14:29:14Z</time>
      </trkpt>
      <trkpt lat="46.70676" lon="5.6013">
        <ele>453.6</ele>
        <time>2021-03-24T14:29:19Z</time>
      </trkpt>
      <trkpt lat="46.70671" lon="5.60129">
        <ele>452</ele>
        <time>2021-03-24T14:29:27Z</time>
      </trkpt>
      <trkpt lat="46.70667" lon="5.60126">
        <ele>451</ele>
        <time>2021-03-24T14:29:33Z</time>
      </trkpt>
      <trkpt lat="46.70663" lon="5.60122">
        <ele>449.7</ele>
        <time>2021-03-24T14:29:46Z</time>
      </trkpt>
      <trkpt lat="46.70658" lon="5.60121">
        <ele>448.8</ele>
        <time>2021-03-24T14:29:54Z</time>
      </trkpt>
      <trkpt lat="46.70653" lon="5.60119">
        <ele>446.8</ele>
        <time>2021-03-24T14:30:04Z</time>
      </trkpt>
      <trkpt lat="46.70649" lon="5.60116">
        <ele>445.3</ele>
        <time>2021-03-24T14:30:11Z</time>
      </trkpt>
      <trkpt lat="46.70645" lon="5.60112">
        <ele>443.6</ele>
        <time>2021-03-24T14:30:20Z</time>
      </trkpt>
      <trkpt lat="46.70641" lon="5.60108">
        <ele>442.2</ele>
        <time>2021-03-24T14:30:27Z</time>
      </trkpt>
      <trkpt lat="46.70637" lon="5.60104">
        <ele>440.6</ele>
        <time>2021-03-24T14:30:36Z</time>
      </trkpt>
      <trkpt lat="46.70633" lon="5.601">
        <ele>439.2</ele>
        <time>2021-03-24T14:30:43Z</time>
      </trkpt>
      <trkpt lat="46.70629" lon="5.60096">
        <ele>438</ele>
        <time>2021-03-24T14:30:50Z</time>
      </trkpt>
      <trkpt lat="46.70624" lon="5.60092">
        <ele>436.7</ele>
        <time>2021-03-24T14:30:58Z</time>
      </trkpt>
      <trkpt lat="46.7062" lon="5.60091">
        <ele>435.5</ele>
        <time>2021-03-24T14:31:04Z</time>
      </trkpt>
      <trkpt lat="46.70615" lon="5.6009">
        <ele>434</ele>
        <time>2021-03-24T14:31:11Z</time>
      </trkpt>
      <trkpt lat="46.70611" lon="5.60088">
        <ele>431.4</ele>
        <time>2021-03-24T14:31:19Z</time>
      </trkpt>
      <trkpt lat="46.70606" lon="5.60087">
        <ele>429.4</ele>
        <time>2021-03-24T14:31:27Z</time>
      </trkpt>
      <trkpt lat="46.70601" lon="5.60087">
        <ele>427.2</ele>
        <time>2021-03-24T14:31:35Z</time>
      </trkpt>
      <trkpt lat="46.70596" lon="5.60087">
        <ele>425.8</ele>
        <time>2021-03-24T14:31:40Z</time>
      </trkpt>
      <trkpt lat="46.70592" lon="5.60086">
        <ele>424</ele>
        <time>2021-03-24T14:31:47Z</time>
      </trkpt>
      <trkpt lat="46.70587" lon="5.60083">
        <ele>422.1</ele>
        <time>2021-03-24T14:31:54Z</time>
      </trkpt>
      <trkpt lat="46.70583" lon="5.60079">
        <ele>421.2</ele>
        <time>2021-03-24T14:32:00Z</time>
      </trkpt>
      <trkpt lat="46.70578" lon="5.60076">
        <ele>420.1</ele>
        <time>2021-03-24T14:32:07Z</time>
      </trkpt>
      <trkpt lat="46.70573" lon="5.60075">
        <ele>419.2</ele>
        <time>2021-03-24T14:32:14Z</time>
      </trkpt>
      <trkpt lat="46.70569" lon="5.60073">
        <ele>418.1</ele>
        <time>2021-03-24T14:32:22Z</time>
      </trkpt>
      <trkpt lat="46.70564" lon="5.60074">
        <ele>417.1</ele>
        <time>2021-03-24T14:32:29Z</time>
      </trkpt>
      <trkpt lat="46.70559" lon="5.60073">
        <ele>416.3</ele>
        <time>2021-03-24T14:32:35Z</time>
      </trkpt>
      <trkpt lat="46.70554" lon="5.60074">
        <ele>414.7</ele>
        <time>2021-03-24T14:32:43Z</time>
      </trkpt>
      <trkpt lat="46.70549" lon="5.60073">
        <ele>413.4</ele>
        <time>2021-03-24T14:32:51Z</time>
      </trkpt>
      <trkpt lat="46.70545" lon="5.60069">
        <ele>412.3</ele>
        <time>2021-03-24T14:32:57Z</time>
      </trkpt>
      <trkpt lat="46.7054" lon="5.60069">
        <ele>410.9</ele>
        <time>2021-03-24T14:33:09Z</time>
      </trkpt>
      <trkpt lat="46.70535" lon="5.6007">
        <ele>410.1</ele>
        <time>2021-03-24T14:33:15Z</time>
      </trkpt>
      <trkpt lat="46.7053" lon="5.6007">
        <ele>409.2</ele>
        <time>2021-03-24T14:33:21Z</time>
      </trkpt>
      <trkpt lat="46.70525" lon="5.60069">
        <ele>408.7</ele>
        <time>2021-03-24T14:33:25Z</time>
      </trkpt>
      <trkpt lat="46.7052" lon="5.60068">
        <ele>407.8</ele>
        <time>2021-03-24T14:33:30Z</time>
      </trkpt>
      <trkpt lat="46.70515" lon="5.60066">
        <ele>406.6</ele>
        <time>2021-03-24T14:33:36Z</time>
      </trkpt>
      <trkpt lat="46.70511" lon="5.60066">
        <ele>404.6</ele>
        <time>2021-03-24T14:33:43Z</time>
      </trkpt>
      <trkpt lat="46.70505" lon="5.60065">
        <ele>402.5</ele>
        <time>2021-03-24T14:33:50Z</time>
      </trkpt>
      <trkpt lat="46.70501" lon="5.60064">
        <ele>400.7</ele>
        <time>2021-03-24T14:33:56Z</time>
      </trkpt>
      <trkpt lat="46.70496" lon="5.60065">
        <ele>398.8</ele>
        <time>2021-03-24T14:34:03Z</time>
      </trkpt>
      <trkpt lat="46.70491" lon="5.60065">
        <ele>396.7</ele>
        <time>2021-03-24T14:34:12Z</time>
      </trkpt>
      <trkpt lat="46.70486" lon="5.60062">
        <ele>396</ele>
        <time>2021-03-24T14:34:20Z</time>
      </trkpt>
      <trkpt lat="46.70482" lon="5.60062">
        <ele>395</ele>
        <time>2021-03-24T14:34:25Z</time>
      </trkpt>
      <trkpt lat="46.70477" lon="5.60063">
        <ele>393.8</ele>
        <time>2021-03-24T14:34:30Z</time>
      </trkpt>
      <trkpt lat="46.70472" lon="5.60063">
        <ele>392.1</ele>
        <time>2021-03-24T14:34:37Z</time>
      </trkpt>
      <trkpt lat="46.70468" lon="5.60063">
        <ele>391.5</ele>
        <time>2021-03-24T14:34:41Z</time>
      </trkpt>
      <trkpt lat="46.70463" lon="5.60065">
        <ele>390.9</ele>
        <time>2021-03-24T14:34:47Z</time>
      </trkpt>
      <trkpt lat="46.70458" lon="5.60066">
        <ele>389.5</ele>
        <time>2021-03-24T14:34:58Z</time>
      </trkpt>
      <trkpt lat="46.70453" lon="5.60064">
        <ele>388.8</ele>
        <time>2021-03-24T14:35:04Z</time>
      </trkpt>
      <trkpt lat="46.70449" lon="5.60063">
        <ele>388.1</ele>
        <time>2021-03-24T14:35:09Z</time>
      </trkpt>
      <trkpt lat="46.70443" lon="5.60063">
        <ele>387.5</ele>
        <time>2021-03-24T14:35:14Z</time>
      </trkpt>
      <trkpt lat="46.70439" lon="5.60061">
        <ele>385.9</ele>
        <time>2021-03-24T14:35:25Z</time>
      </trkpt>
      <trkpt lat="46.70434" lon="5.60062">
        <ele>384.4</ele>
        <time>2021-03-24T14:35:35Z</time>
      </trkpt>
      <trkpt lat="46.7043" lon="5.6006">
        <ele>383.6</ele>
        <time>2021-03-24T14:35:42Z</time>
      </trkpt>
      <trkpt lat="46.70425" lon="5.6006">
        <ele>382.9</ele>
        <time>2021-03-24T14:35:47Z</time>
      </trkpt>
      <trkpt lat="46.7042" lon="5.60059">
        <ele>381.9</ele>
        <time>2021-03-24T14:35:51Z</time>
      </trkpt>
      <trkpt lat="46.70414" lon="5.60058">
        <ele>380.9</ele>
        <time>2021-03-24T14:35:55Z</time>
      </trkpt>
      <trkpt lat="46.7041" lon="5.60058">
        <ele>379.9</ele>
        <time>2021-03-24T14:35:59Z</time>
      </trkpt>
      <trkpt lat="46.70405" lon="5.60055">
        <ele>379.2</ele>
        <time>2021-03-24T14:36:03Z</time>
      </trkpt>
      <trkpt lat="46.704" lon="5.60055">
        <ele>378.5</ele>
        <time>2021-03-24T14:36:07Z</time>
      </trkpt>
      <trkpt lat="46.70395" lon="5.60056">
        <ele>376.9</ele>
        <time>2021-03-24T14:36:19Z</time>
      </trkpt>
      <trkpt lat="46.70391" lon="5.60058">
        <ele>376.3</ele>
        <time>2021-03-24T14:36:32Z</time>
      </trkpt>
      <trkpt lat="46.70388" lon="5.60064">
        <ele>376.2</ele>
        <time>2021-03-24T14:36:38Z</time>
      </trkpt>
      <trkpt lat="46.70384" lon="5.60066">
        <ele>375.9</ele>
        <time>2021-03-24T14:36:42Z</time>
      </trkpt>
      <trkpt lat="46.70379" lon="5.60064">
        <ele>376.2</ele>
        <time>2021-03-24T14:36:47Z</time>
      </trkpt>
      <trkpt lat="46.70375" lon="5.60062">
        <ele>377.6</ele>
        <time>2021-03-24T14:36:54Z</time>
      </trkpt>
      <trkpt lat="46.70373" lon="5.60055">
        <ele>378.9</ele>
        <time>2021-03-24T14:37:04Z</time>
      </trkpt>
      <trkpt lat="46.7037" lon="5.6005">
        <ele>380.5</ele>
        <time>2021-03-24T14:37:13Z</time>
      </trkpt>
      <trkpt lat="46.70366" lon="5.60055">
        <ele>380.5</ele>
        <time>2021-03-24T14:37:25Z</time>
      </trkpt>
      <trkpt lat="46.70362" lon="5.60056">
        <ele>379.8</ele>
        <time>2021-03-24T14:37:31Z</time>
      </trkpt>
      <trkpt lat="46.70358" lon="5.60059">
        <ele>379.1</ele>
        <time>2021-03-24T14:37:38Z</time>
      </trkpt>
      <trkpt lat="46.70353" lon="5.60062">
        <ele>378.2</ele>
        <time>2021-03-24T14:37:43Z</time>
      </trkpt>
      <trkpt lat="46.70349" lon="5.60064">
        <ele>377</ele>
        <time>2021-03-24T14:37:48Z</time>
      </trkpt>
      <trkpt lat="46.70344" lon="5.60063">
        <ele>375.5</ele>
        <time>2021-03-24T14:37:53Z</time>
      </trkpt>
      <trkpt lat="46.70339" lon="5.60065">
        <ele>373.2</ele>
        <time>2021-03-24T14:38:00Z</time>
      </trkpt>
      <trkpt lat="46.70334" lon="5.60065">
        <ele>371.1</ele>
        <time>2021-03-24T14:38:06Z</time>
      </trkpt>
      <trkpt lat="46.70328" lon="5.60064">
        <ele>369.4</ele>
        <time>2021-03-24T14:38:12Z</time>
      </trkpt>
      <trkpt lat="46.70324" lon="5.60064">
        <ele>368.3</ele>
        <time>2021-03-24T14:38:16Z</time>
      </trkpt>
      <trkpt lat="46.70319" lon="5.60064">
        <ele>367.1</ele>
        <time>2021-03-24T14:38:20Z</time>
      </trkpt>
      <trkpt lat="46.70314" lon="5.60062">
        <ele>365.2</ele>
        <time>2021-03-24T14:38:28Z</time>
      </trkpt>
      <trkpt lat="46.70309" lon="5.60065">
        <ele>363.6</ele>
        <time>2021-03-24T14:38:34Z</time>
      </trkpt>
      <trkpt lat="46.70305" lon="5.60065">
        <ele>362.4</ele>
        <time>2021-03-24T14:38:38Z</time>
      </trkpt>
      <trkpt lat="46.703" lon="5.60064">
        <ele>361</ele>
        <time>2021-03-24T14:38:42Z</time>
      </trkpt>
      <trkpt lat="46.70296" lon="5.60063">
        <ele>359.2</ele>
        <time>2021-03-24T14:38:47Z</time>
      </trkpt>
      <trkpt lat="46.70291" lon="5.60061">
        <ele>356.9</ele>
        <time>2021-03-24T14:38:55Z</time>
      </trkpt>
      <trkpt lat="46.70286" lon="5.60061">
        <ele>354</ele>
        <time>2021-03-24T14:39:07Z</time>
      </trkpt>
      <trkpt lat="46.70282" lon="5.60064">
        <ele>349.2</ele>
        <time>2021-03-24T14:39:50Z</time>
      </trkpt>
      <trkpt lat="46.70278" lon="5.60066">
        <ele>348.1</ele>
        <time>2021-03-24T14:39:56Z</time>
      </trkpt>
      <trkpt lat="46.70277" lon="5.60074">
        <ele>346.7</ele>
        <time>2021-03-24T14:40:20Z</time>
      </trkpt>
      <trkpt lat="46.70273" lon="5.60078">
        <ele>346.7</ele>
        <time>2021-03-24T14:40:26Z</time>
      </trkpt>
      <trkpt lat="46.70269" lon="5.6008">
        <ele>346.8</ele>
        <time>2021-03-24T14:40:31Z</time>
      </trkpt>
      <trkpt lat="46.70264" lon="5.60082">
        <ele>346.8</ele>
        <time>2021-03-24T14:40:35Z</time>
      </trkpt>
      <trkpt lat="46.7026" lon="5.60084">
        <ele>346.9</ele>
        <time>2021-03-24T14:40:39Z</time>
      </trkpt>
      <trkpt lat="46.70255" lon="5.60086">
        <ele>347.1</ele>
        <time>2021-03-24T14:40:44Z</time>
      </trkpt>
      <trkpt lat="46.7025" lon="5.60089">
        <ele>347.5</ele>
        <time>2021-03-24T14:40:49Z</time>
      </trkpt>
      <trkpt lat="46.70246" lon="5.60093">
        <ele>348.1</ele>
        <time>2021-03-24T14:40:54Z</time>
      </trkpt>
      <trkpt lat="46.70241" lon="5.60096">
        <ele>348.8</ele>
        <time>2021-03-24T14:40:59Z</time>
      </trkpt>
      <trkpt lat="46.70236" lon="5.60099">
        <ele>350.3</ele>
        <time>2021-03-24T14:41:04Z</time>
      </trkpt>
      <trkpt lat="46.70232" lon="5.60103">
        <ele>351.1</ele>
        <time>2021-03-24T14:41:09Z</time>
      </trkpt>
      <trkpt lat="46.70227" lon="5.60107">
        <ele>351</ele>
        <time>2021-03-24T14:41:14Z</time>
      </trkpt>
      <trkpt lat="46.70223" lon="5.6011">
        <ele>350.7</ele>
        <time>2021-03-24T14:41:19Z</time>
      </trkpt>
      <trkpt lat="46.70218" lon="5.60113">
        <ele>350.7</ele>
        <time>2021-03-24T14:41:24Z</time>
      </trkpt>
      <trkpt lat="46.70214" lon="5.60117">
        <ele>350.8</ele>
        <time>2021-03-24T14:41:28Z</time>
      </trkpt>
      <trkpt lat="46.7021" lon="5.60122">
        <ele>350.5</ele>
        <time>2021-03-24T14:41:33Z</time>
      </trkpt>
      <trkpt lat="46.70205" lon="5.60125">
        <ele>350.2</ele>
        <time>2021-03-24T14:41:37Z</time>
      </trkpt>
      <trkpt lat="46.70201" lon="5.60128">
        <ele>349.9</ele>
        <time>2021-03-24T14:41:42Z</time>
      </trkpt>
      <trkpt lat="46.70197" lon="5.60134">
        <ele>349.5</ele>
        <time>2021-03-24T14:41:47Z</time>
      </trkpt>
      <trkpt lat="46.70193" lon="5.60138">
        <ele>349.1</ele>
        <time>2021-03-24T14:41:51Z</time>
      </trkpt>
      <trkpt lat="46.70189" lon="5.60139">
        <ele>348.9</ele>
        <time>2021-03-24T14:41:55Z</time>
      </trkpt>
      <trkpt lat="46.70183" lon="5.60139">
        <ele>348.9</ele>
        <time>2021-03-24T14:42:00Z</time>
      </trkpt>
      <trkpt lat="46.70179" lon="5.60142">
        <ele>349.1</ele>
        <time>2021-03-24T14:42:05Z</time>
      </trkpt>
      <trkpt lat="46.70174" lon="5.60146">
        <ele>349</ele>
        <time>2021-03-24T14:42:10Z</time>
      </trkpt>
      <trkpt lat="46.70171" lon="5.6015">
        <ele>348</ele>
        <time>2021-03-24T14:42:15Z</time>
      </trkpt>
      <trkpt lat="46.70166" lon="5.60154">
        <ele>346.2</ele>
        <time>2021-03-24T14:42:20Z</time>
      </trkpt>
      <trkpt lat="46.70161" lon="5.60153">
        <ele>345.7</ele>
        <time>2021-03-24T14:42:27Z</time>
      </trkpt>
      <trkpt lat="46.70156" lon="5.6015">
        <ele>346</ele>
        <time>2021-03-24T14:42:32Z</time>
      </trkpt>
      <trkpt lat="46.70151" lon="5.60145">
        <ele>347.2</ele>
        <time>2021-03-24T14:42:36Z</time>
      </trkpt>
      <trkpt lat="46.70146" lon="5.60141">
        <ele>349.5</ele>
        <time>2021-03-24T14:42:40Z</time>
      </trkpt>
      <trkpt lat="46.70141" lon="5.60136">
        <ele>352</ele>
        <time>2021-03-24T14:42:44Z</time>
      </trkpt>
      <trkpt lat="46.70137" lon="5.60131">
        <ele>354.6</ele>
        <time>2021-03-24T14:42:49Z</time>
      </trkpt>
      <trkpt lat="46.70133" lon="5.60126">
        <ele>356.9</ele>
        <time>2021-03-24T14:42:55Z</time>
      </trkpt>
      <trkpt lat="46.7013" lon="5.60121">
        <ele>358.1</ele>
        <time>2021-03-24T14:42:59Z</time>
      </trkpt>
      <trkpt lat="46.70126" lon="5.60116">
        <ele>359.2</ele>
        <time>2021-03-24T14:43:03Z</time>
      </trkpt>
      <trkpt lat="46.70122" lon="5.60112">
        <ele>360</ele>
        <time>2021-03-24T14:43:07Z</time>
      </trkpt>
      <trkpt lat="46.70119" lon="5.60106">
        <ele>360.5</ele>
        <time>2021-03-24T14:43:12Z</time>
      </trkpt>
      <trkpt lat="46.70116" lon="5.601">
        <ele>360.7</ele>
        <time>2021-03-24T14:43:19Z</time>
      </trkpt>
      <trkpt lat="46.70114" lon="5.60095">
        <ele>361.1</ele>
        <time>2021-03-24T14:43:28Z</time>
      </trkpt>
      <trkpt lat="46.70108" lon="5.60095">
        <ele>356.1</ele>
        <time>2021-03-24T14:44:44Z</time>
      </trkpt>
      <trkpt lat="46.70103" lon="5.60088">
        <ele>353.7</ele>
        <time>2021-03-24T14:44:48Z</time>
      </trkpt>
      <trkpt lat="46.701" lon="5.60082">
        <ele>349.8</ele>
        <time>2021-03-24T14:44:54Z</time>
      </trkpt>
      <trkpt lat="46.70098" lon="5.60076">
        <ele>346.8</ele>
        <time>2021-03-24T14:44:59Z</time>
      </trkpt>
      <trkpt lat="46.70095" lon="5.6007">
        <ele>344.2</ele>
        <time>2021-03-24T14:45:04Z</time>
      </trkpt>
      <trkpt lat="46.70094" lon="5.60062">
        <ele>342.8</ele>
        <time>2021-03-24T14:45:09Z</time>
      </trkpt>
      <trkpt lat="46.70092" lon="5.60056">
        <ele>342.6</ele>
        <time>2021-03-24T14:45:13Z</time>
      </trkpt>
      <trkpt lat="46.70089" lon="5.6005">
        <ele>343.1</ele>
        <time>2021-03-24T14:45:19Z</time>
      </trkpt>
      <trkpt lat="46.70084" lon="5.6005">
        <ele>349.3</ele>
        <time>2021-03-24T14:45:29Z</time>
      </trkpt>
      <trkpt lat="46.7008" lon="5.60049">
        <ele>350.6</ele>
        <time>2021-03-24T14:45:34Z</time>
      </trkpt>
      <trkpt lat="46.70075" lon="5.60052">
        <ele>351.8</ele>
        <time>2021-03-24T14:45:39Z</time>
      </trkpt>
      <trkpt lat="46.70071" lon="5.60056">
        <ele>353.1</ele>
        <time>2021-03-24T14:45:50Z</time>
      </trkpt>
      <trkpt lat="46.70068" lon="5.60062">
        <ele>353.4</ele>
        <time>2021-03-24T14:46:12Z</time>
      </trkpt>
      <trkpt lat="46.70064" lon="5.60065">
        <ele>353.7</ele>
        <time>2021-03-24T14:46:17Z</time>
      </trkpt>
      <trkpt lat="46.70058" lon="5.60065">
        <ele>354.4</ele>
        <time>2021-03-24T14:46:21Z</time>
      </trkpt>
      <trkpt lat="46.70054" lon="5.60065">
        <ele>355.3</ele>
        <time>2021-03-24T14:46:27Z</time>
      </trkpt>
      <trkpt lat="46.70049" lon="5.60061">
        <ele>355.2</ele>
        <time>2021-03-24T14:46:32Z</time>
      </trkpt>
      <trkpt lat="46.70045" lon="5.60057">
        <ele>354.5</ele>
        <time>2021-03-24T14:46:37Z</time>
      </trkpt>
      <trkpt lat="46.70041" lon="5.60053">
        <ele>353.5</ele>
        <time>2021-03-24T14:46:42Z</time>
      </trkpt>
      <trkpt lat="46.70037" lon="5.60049">
        <ele>352.8</ele>
        <time>2021-03-24T14:46:46Z</time>
      </trkpt>
      <trkpt lat="46.70033" lon="5.60044">
        <ele>351.9</ele>
        <time>2021-03-24T14:46:51Z</time>
      </trkpt>
      <trkpt lat="46.70028" lon="5.6004">
        <ele>351.5</ele>
        <time>2021-03-24T14:46:56Z</time>
      </trkpt>
      <trkpt lat="46.70024" lon="5.60036">
        <ele>351.2</ele>
        <time>2021-03-24T14:47:01Z</time>
      </trkpt>
      <trkpt lat="46.70021" lon="5.60031">
        <ele>350.9</ele>
        <time>2021-03-24T14:47:07Z</time>
      </trkpt>
      <trkpt lat="46.70017" lon="5.60027">
        <ele>352</ele>
        <time>2021-03-24T14:47:12Z</time>
      </trkpt>
      <trkpt lat="46.70013" lon="5.60023">
        <ele>352.6</ele>
        <time>2021-03-24T14:47:17Z</time>
      </trkpt>
      <trkpt lat="46.7001" lon="5.60018">
        <ele>353</ele>
        <time>2021-03-24T14:47:22Z</time>
      </trkpt>
      <trkpt lat="46.70005" lon="5.60016">
        <ele>353.7</ele>
        <time>2021-03-24T14:47:26Z</time>
      </trkpt>
      <trkpt lat="46.69999" lon="5.60014">
        <ele>354.7</ele>
        <time>2021-03-24T14:47:30Z</time>
      </trkpt>
      <trkpt lat="46.69995" lon="5.6001">
        <ele>355.6</ele>
        <time>2021-03-24T14:47:35Z</time>
      </trkpt>
      <trkpt lat="46.69991" lon="5.60007">
        <ele>356.4</ele>
        <time>2021-03-24T14:47:40Z</time>
      </trkpt>
      <trkpt lat="46.69988" lon="5.60001">
        <ele>356.8</ele>
        <time>2021-03-24T14:47:46Z</time>
      </trkpt>
      <trkpt lat="46.69984" lon="5.59997">
        <ele>356.9</ele>
        <time>2021-03-24T14:47:52Z</time>
      </trkpt>
      <trkpt lat="46.6998" lon="5.59994">
        <ele>357.5</ele>
        <time>2021-03-24T14:47:57Z</time>
      </trkpt>
      <trkpt lat="46.69975" lon="5.59992">
        <ele>357.8</ele>
        <time>2021-03-24T14:48:03Z</time>
      </trkpt>
      <trkpt lat="46.69971" lon="5.59988">
        <ele>357.8</ele>
        <time>2021-03-24T14:48:09Z</time>
      </trkpt>
      <trkpt lat="46.69967" lon="5.59987">
        <ele>357.9</ele>
        <time>2021-03-24T14:48:13Z</time>
      </trkpt>
      <trkpt lat="46.69962" lon="5.59984">
        <ele>357.9</ele>
        <time>2021-03-24T14:48:18Z</time>
      </trkpt>
      <trkpt lat="46.69958" lon="5.59979">
        <ele>358.3</ele>
        <time>2021-03-24T14:48:23Z</time>
      </trkpt>
      <trkpt lat="46.69954" lon="5.59975">
        <ele>358.5</ele>
        <time>2021-03-24T14:48:28Z</time>
      </trkpt>
      <trkpt lat="46.69949" lon="5.59973">
        <ele>359.8</ele>
        <time>2021-03-24T14:48:32Z</time>
      </trkpt>
      <trkpt lat="46.69943" lon="5.5997">
        <ele>361.7</ele>
        <time>2021-03-24T14:48:36Z</time>
      </trkpt>
      <trkpt lat="46.69938" lon="5.59967">
        <ele>363.7</ele>
        <time>2021-03-24T14:48:40Z</time>
      </trkpt>
      <trkpt lat="46.69934" lon="5.59964">
        <ele>365.2</ele>
        <time>2021-03-24T14:48:44Z</time>
      </trkpt>
      <trkpt lat="46.69929" lon="5.5996">
        <ele>366.8</ele>
        <time>2021-03-24T14:48:49Z</time>
      </trkpt>
      <trkpt lat="46.69925" lon="5.59956">
        <ele>367.9</ele>
        <time>2021-03-24T14:48:54Z</time>
      </trkpt>
      <trkpt lat="46.6992" lon="5.59954">
        <ele>368.9</ele>
        <time>2021-03-24T14:48:59Z</time>
      </trkpt>
      <trkpt lat="46.69916" lon="5.5995">
        <ele>368.9</ele>
        <time>2021-03-24T14:49:06Z</time>
      </trkpt>
      <trkpt lat="46.69912" lon="5.59946">
        <ele>369.2</ele>
        <time>2021-03-24T14:49:12Z</time>
      </trkpt>
      <trkpt lat="46.69908" lon="5.59941">
        <ele>369</ele>
        <time>2021-03-24T14:49:18Z</time>
      </trkpt>
      <trkpt lat="46.69905" lon="5.59936">
        <ele>368.9</ele>
        <time>2021-03-24T14:49:23Z</time>
      </trkpt>
      <trkpt lat="46.699" lon="5.59934">
        <ele>369.7</ele>
        <time>2021-03-24T14:49:27Z</time>
      </trkpt>
      <trkpt lat="46.69896" lon="5.59931">
        <ele>370.2</ele>
        <time>2021-03-24T14:49:31Z</time>
      </trkpt>
      <trkpt lat="46.69891" lon="5.59929">
        <ele>371.1</ele>
        <time>2021-03-24T14:49:36Z</time>
      </trkpt>
      <trkpt lat="46.69886" lon="5.59926">
        <ele>372</ele>
        <time>2021-03-24T14:49:40Z</time>
      </trkpt>
      <trkpt lat="46.69882" lon="5.59924">
        <ele>373</ele>
        <time>2021-03-24T14:49:44Z</time>
      </trkpt>
      <trkpt lat="46.69877" lon="5.59922">
        <ele>373.8</ele>
        <time>2021-03-24T14:49:49Z</time>
      </trkpt>
      <trkpt lat="46.69873" lon="5.59918">
        <ele>374.7</ele>
        <time>2021-03-24T14:49:53Z</time>
      </trkpt>
      <trkpt lat="46.69869" lon="5.59914">
        <ele>375.6</ele>
        <time>2021-03-24T14:49:57Z</time>
      </trkpt>
      <trkpt lat="46.69865" lon="5.5991">
        <ele>376.6</ele>
        <time>2021-03-24T14:50:02Z</time>
      </trkpt>
      <trkpt lat="46.69861" lon="5.59906">
        <ele>377.3</ele>
        <time>2021-03-24T14:50:07Z</time>
      </trkpt>
      <trkpt lat="46.69857" lon="5.59904">
        <ele>377.7</ele>
        <time>2021-03-24T14:50:11Z</time>
      </trkpt>
      <trkpt lat="46.69852" lon="5.59902">
        <ele>377.8</ele>
        <time>2021-03-24T14:50:17Z</time>
      </trkpt>
      <trkpt lat="46.69847" lon="5.59899">
        <ele>377.7</ele>
        <time>2021-03-24T14:50:22Z</time>
      </trkpt>
      <trkpt lat="46.69842" lon="5.59897">
        <ele>377.6</ele>
        <time>2021-03-24T14:50:27Z</time>
      </trkpt>
      <trkpt lat="46.69836" lon="5.59895">
        <ele>378.1</ele>
        <time>2021-03-24T14:50:32Z</time>
      </trkpt>
      <trkpt lat="46.69832" lon="5.59892">
        <ele>378.8</ele>
        <time>2021-03-24T14:50:37Z</time>
      </trkpt>
      <trkpt lat="46.69827" lon="5.59889">
        <ele>380</ele>
        <time>2021-03-24T14:50:42Z</time>
      </trkpt>
      <trkpt lat="46.69822" lon="5.59887">
        <ele>380.9</ele>
        <time>2021-03-24T14:50:48Z</time>
      </trkpt>
      <trkpt lat="46.69817" lon="5.59886">
        <ele>381.7</ele>
        <time>2021-03-24T14:50:52Z</time>
      </trkpt>
      <trkpt lat="46.69812" lon="5.59885">
        <ele>382.1</ele>
        <time>2021-03-24T14:50:56Z</time>
      </trkpt>
      <trkpt lat="46.69807" lon="5.59882">
        <ele>382.1</ele>
        <time>2021-03-24T14:51:02Z</time>
      </trkpt>
      <trkpt lat="46.69803" lon="5.59878">
        <ele>381.8</ele>
        <time>2021-03-24T14:51:08Z</time>
      </trkpt>
      <trkpt lat="46.69798" lon="5.59875">
        <ele>381.9</ele>
        <time>2021-03-24T14:51:13Z</time>
      </trkpt>
      <trkpt lat="46.69794" lon="5.59872">
        <ele>382.5</ele>
        <time>2021-03-24T14:51:18Z</time>
      </trkpt>
      <trkpt lat="46.6979" lon="5.59868">
        <ele>383.1</ele>
        <time>2021-03-24T14:51:23Z</time>
      </trkpt>
      <trkpt lat="46.69785" lon="5.59867">
        <ele>383.7</ele>
        <time>2021-03-24T14:51:29Z</time>
      </trkpt>
      <trkpt lat="46.6978" lon="5.59863">
        <ele>384.7</ele>
        <time>2021-03-24T14:51:34Z</time>
      </trkpt>
      <trkpt lat="46.69776" lon="5.59859">
        <ele>386</ele>
        <time>2021-03-24T14:51:39Z</time>
      </trkpt>
      <trkpt lat="46.69773" lon="5.59854">
        <ele>387.2</ele>
        <time>2021-03-24T14:51:47Z</time>
      </trkpt>
      <trkpt lat="46.69777" lon="5.59858">
        <ele>387.4</ele>
        <time>2021-03-24T14:52:07Z</time>
      </trkpt>
      <trkpt lat="46.69777" lon="5.59865">
        <ele>387.3</ele>
        <time>2021-03-24T14:52:24Z</time>
      </trkpt>
      <trkpt lat="46.69782" lon="5.59867">
        <ele>384.9</ele>
        <time>2021-03-24T14:52:52Z</time>
      </trkpt>
      <trkpt lat="46.69777" lon="5.59867">
        <ele>385.9</ele>
        <time>2021-03-24T14:53:21Z</time>
      </trkpt>
      <trkpt lat="46.69772" lon="5.59868">
        <ele>386.1</ele>
        <time>2021-03-24T14:53:26Z</time>
      </trkpt>
      <trkpt lat="46.69767" lon="5.5987">
        <ele>386.2</ele>
        <time>2021-03-24T14:53:31Z</time>
      </trkpt>
      <trkpt lat="46.69762" lon="5.59872">
        <ele>386.3</ele>
        <time>2021-03-24T14:53:35Z</time>
      </trkpt>
      <trkpt lat="46.69758" lon="5.59876">
        <ele>386.5</ele>
        <time>2021-03-24T14:53:39Z</time>
      </trkpt>
      <trkpt lat="46.69754" lon="5.5988">
        <ele>386.4</ele>
        <time>2021-03-24T14:53:44Z</time>
      </trkpt>
      <trkpt lat="46.69749" lon="5.59883">
        <ele>385.9</ele>
        <time>2021-03-24T14:53:50Z</time>
      </trkpt>
      <trkpt lat="46.69746" lon="5.59888">
        <ele>385.5</ele>
        <time>2021-03-24T14:53:57Z</time>
      </trkpt>
      <trkpt lat="46.69744" lon="5.59894">
        <ele>385.5</ele>
        <time>2021-03-24T14:54:03Z</time>
      </trkpt>
      <trkpt lat="46.69741" lon="5.599">
        <ele>385.9</ele>
        <time>2021-03-24T14:54:08Z</time>
      </trkpt>
      <trkpt lat="46.69739" lon="5.59906">
        <ele>386.9</ele>
        <time>2021-03-24T14:54:12Z</time>
      </trkpt>
      <trkpt lat="46.69736" lon="5.59912">
        <ele>388.1</ele>
        <time>2021-03-24T14:54:16Z</time>
      </trkpt>
      <trkpt lat="46.69732" lon="5.59916">
        <ele>389.6</ele>
        <time>2021-03-24T14:54:22Z</time>
      </trkpt>
      <trkpt lat="46.69728" lon="5.5992">
        <ele>390.6</ele>
        <time>2021-03-24T14:54:29Z</time>
      </trkpt>
      <trkpt lat="46.69724" lon="5.59921">
        <ele>390.6</ele>
        <time>2021-03-24T14:54:37Z</time>
      </trkpt>
      <trkpt lat="46.6972" lon="5.59927">
        <ele>390.9</ele>
        <time>2021-03-24T14:54:41Z</time>
      </trkpt>
      <trkpt lat="46.69716" lon="5.59933">
        <ele>391.3</ele>
        <time>2021-03-24T14:54:45Z</time>
      </trkpt>
      <trkpt lat="46.69711" lon="5.59935">
        <ele>391.8</ele>
        <time>2021-03-24T14:54:53Z</time>
      </trkpt>
      <trkpt lat="46.69706" lon="5.59936">
        <ele>392.4</ele>
        <time>2021-03-24T14:55:01Z</time>
      </trkpt>
      <trkpt lat="46.69701" lon="5.59934">
        <ele>392.8</ele>
        <time>2021-03-24T14:55:07Z</time>
      </trkpt>
      <trkpt lat="46.69696" lon="5.59932">
        <ele>393.2</ele>
        <time>2021-03-24T14:55:13Z</time>
      </trkpt>
      <trkpt lat="46.69691" lon="5.59932">
        <ele>393.8</ele>
        <time>2021-03-24T14:55:18Z</time>
      </trkpt>
      <trkpt lat="46.69686" lon="5.59929">
        <ele>395</ele>
        <time>2021-03-24T14:55:24Z</time>
      </trkpt>
      <trkpt lat="46.69682" lon="5.59925">
        <ele>396</ele>
        <time>2021-03-24T14:55:30Z</time>
      </trkpt>
      <trkpt lat="46.69678" lon="5.59924">
        <ele>396.8</ele>
        <time>2021-03-24T14:55:36Z</time>
      </trkpt>
      <trkpt lat="46.69673" lon="5.59923">
        <ele>397.6</ele>
        <time>2021-03-24T14:55:42Z</time>
      </trkpt>
      <trkpt lat="46.69669" lon="5.5992">
        <ele>398.6</ele>
        <time>2021-03-24T14:55:49Z</time>
      </trkpt>
      <trkpt lat="46.69665" lon="5.59917">
        <ele>399.3</ele>
        <time>2021-03-24T14:55:55Z</time>
      </trkpt>
      <trkpt lat="46.6966" lon="5.59916">
        <ele>400</ele>
        <time>2021-03-24T14:56:01Z</time>
      </trkpt>
      <trkpt lat="46.69656" lon="5.59917">
        <ele>400.8</ele>
        <time>2021-03-24T14:56:06Z</time>
      </trkpt>
      <trkpt lat="46.69651" lon="5.59919">
        <ele>401.8</ele>
        <time>2021-03-24T14:56:13Z</time>
      </trkpt>
      <trkpt lat="46.69647" lon="5.59923">
        <ele>401.8</ele>
        <time>2021-03-24T14:56:21Z</time>
      </trkpt>
      <trkpt lat="46.69644" lon="5.59928">
        <ele>401.6</ele>
        <time>2021-03-24T14:56:27Z</time>
      </trkpt>
      <trkpt lat="46.6964" lon="5.59931">
        <ele>401.3</ele>
        <time>2021-03-24T14:56:35Z</time>
      </trkpt>
      <trkpt lat="46.69636" lon="5.59936">
        <ele>401.5</ele>
        <time>2021-03-24T14:56:41Z</time>
      </trkpt>
      <trkpt lat="46.69632" lon="5.5994">
        <ele>401.5</ele>
        <time>2021-03-24T14:56:45Z</time>
      </trkpt>
      <trkpt lat="46.69628" lon="5.59942">
        <ele>401.6</ele>
        <time>2021-03-24T14:56:50Z</time>
      </trkpt>
      <trkpt lat="46.69622" lon="5.59938">
        <ele>403.2</ele>
        <time>2021-03-24T14:56:55Z</time>
      </trkpt>
      <trkpt lat="46.69618" lon="5.59935">
        <ele>405.9</ele>
        <time>2021-03-24T14:56:59Z</time>
      </trkpt>
      <trkpt lat="46.69613" lon="5.59934">
        <ele>410.5</ele>
        <time>2021-03-24T14:57:23Z</time>
      </trkpt>
      <trkpt lat="46.6961" lon="5.59941">
        <ele>411.2</ele>
        <time>2021-03-24T14:57:30Z</time>
      </trkpt>
      <trkpt lat="46.69606" lon="5.59944">
        <ele>411.2</ele>
        <time>2021-03-24T14:57:38Z</time>
      </trkpt>
      <trkpt lat="46.69601" lon="5.59943">
        <ele>411.1</ele>
        <time>2021-03-24T14:57:43Z</time>
      </trkpt>
      <trkpt lat="46.69596" lon="5.59941">
        <ele>411.1</ele>
        <time>2021-03-24T14:57:49Z</time>
      </trkpt>
      <trkpt lat="46.69592" lon="5.59943">
        <ele>411</ele>
        <time>2021-03-24T14:57:56Z</time>
      </trkpt>
      <trkpt lat="46.69588" lon="5.59946">
        <ele>411.3</ele>
        <time>2021-03-24T14:58:02Z</time>
      </trkpt>
      <trkpt lat="46.69583" lon="5.59948">
        <ele>411.4</ele>
        <time>2021-03-24T14:58:06Z</time>
      </trkpt>
      <trkpt lat="46.69574" lon="5.59957">
        <ele>419.4</ele>
        <time>2021-03-24T14:58:10Z</time>
      </trkpt>
      <trkpt lat="46.6957" lon="5.59961">
        <ele>424.9</ele>
        <time>2021-03-24T14:58:17Z</time>
      </trkpt>
      <trkpt lat="46.69565" lon="5.5996">
        <ele>427.6</ele>
        <time>2021-03-24T14:58:23Z</time>
      </trkpt>
      <trkpt lat="46.6956" lon="5.59961">
        <ele>430.9</ele>
        <time>2021-03-24T14:58:32Z</time>
      </trkpt>
      <trkpt lat="46.69555" lon="5.59962">
        <ele>432.1</ele>
        <time>2021-03-24T14:58:38Z</time>
      </trkpt>
      <trkpt lat="46.69551" lon="5.59961">
        <ele>432.9</ele>
        <time>2021-03-24T14:58:43Z</time>
      </trkpt>
      <trkpt lat="46.69546" lon="5.5996">
        <ele>433.5</ele>
        <time>2021-03-24T14:58:48Z</time>
      </trkpt>
      <trkpt lat="46.69541" lon="5.59958">
        <ele>433.7</ele>
        <time>2021-03-24T14:58:52Z</time>
      </trkpt>
      <trkpt lat="46.69536" lon="5.59956">
        <ele>433.7</ele>
        <time>2021-03-24T14:58:58Z</time>
      </trkpt>
      <trkpt lat="46.69532" lon="5.59953">
        <ele>434</ele>
        <time>2021-03-24T14:59:05Z</time>
      </trkpt>
      <trkpt lat="46.69525" lon="5.59962">
        <ele>434.6</ele>
        <time>2021-03-24T14:59:14Z</time>
      </trkpt>
      <trkpt lat="46.69522" lon="5.5997">
        <ele>435</ele>
        <time>2021-03-24T14:59:18Z</time>
      </trkpt>
      <trkpt lat="46.69519" lon="5.59964">
        <ele>434</ele>
        <time>2021-03-24T14:59:55Z</time>
      </trkpt>
      <trkpt lat="46.69516" lon="5.59958">
        <ele>432.4</ele>
        <time>2021-03-24T15:00:01Z</time>
      </trkpt>
      <trkpt lat="46.69515" lon="5.59951">
        <ele>430.8</ele>
        <time>2021-03-24T15:00:07Z</time>
      </trkpt>
      <trkpt lat="46.69515" lon="5.59944">
        <ele>429.2</ele>
        <time>2021-03-24T15:00:14Z</time>
      </trkpt>
      <trkpt lat="46.69514" lon="5.59937">
        <ele>428.3</ele>
        <time>2021-03-24T15:00:19Z</time>
      </trkpt>
      <trkpt lat="46.6951" lon="5.59932">
        <ele>427.4</ele>
        <time>2021-03-24T15:00:25Z</time>
      </trkpt>
      <trkpt lat="46.69507" lon="5.59927">
        <ele>426.7</ele>
        <time>2021-03-24T15:00:31Z</time>
      </trkpt>
      <trkpt lat="46.69505" lon="5.5992">
        <ele>424.8</ele>
        <time>2021-03-24T15:00:59Z</time>
      </trkpt>
      <trkpt lat="46.69503" lon="5.59914">
        <ele>424.2</ele>
        <time>2021-03-24T15:01:04Z</time>
      </trkpt>
      <trkpt lat="46.69499" lon="5.59909">
        <ele>423.6</ele>
        <time>2021-03-24T15:01:10Z</time>
      </trkpt>
      <trkpt lat="46.69496" lon="5.59903">
        <ele>423</ele>
        <time>2021-03-24T15:01:15Z</time>
      </trkpt>
      <trkpt lat="46.69493" lon="5.59897">
        <ele>422.6</ele>
        <time>2021-03-24T15:01:20Z</time>
      </trkpt>
      <trkpt lat="46.69492" lon="5.59889">
        <ele>422.5</ele>
        <time>2021-03-24T15:01:24Z</time>
      </trkpt>
      <trkpt lat="46.6949" lon="5.59883">
        <ele>421.3</ele>
        <time>2021-03-24T15:01:29Z</time>
      </trkpt>
      <trkpt lat="46.69486" lon="5.59878">
        <ele>417.6</ele>
        <time>2021-03-24T15:01:36Z</time>
      </trkpt>
      <trkpt lat="46.69483" lon="5.59873">
        <ele>415.7</ele>
        <time>2021-03-24T15:01:40Z</time>
      </trkpt>
      <trkpt lat="46.6948" lon="5.59866">
        <ele>413.4</ele>
        <time>2021-03-24T15:01:45Z</time>
      </trkpt>
      <trkpt lat="46.69477" lon="5.59862">
        <ele>412.9</ele>
        <time>2021-03-24T15:01:50Z</time>
      </trkpt>
      <trkpt lat="46.69473" lon="5.59857">
        <ele>412.6</ele>
        <time>2021-03-24T15:01:55Z</time>
      </trkpt>
      <trkpt lat="46.6947" lon="5.59851">
        <ele>412</ele>
        <time>2021-03-24T15:02:00Z</time>
      </trkpt>
      <trkpt lat="46.69467" lon="5.59845">
        <ele>411.3</ele>
        <time>2021-03-24T15:02:05Z</time>
      </trkpt>
      <trkpt lat="46.69463" lon="5.5984">
        <ele>411.3</ele>
        <time>2021-03-24T15:02:10Z</time>
      </trkpt>
      <trkpt lat="46.69459" lon="5.59836">
        <ele>411.5</ele>
        <time>2021-03-24T15:02:15Z</time>
      </trkpt>
      <trkpt lat="46.69455" lon="5.59832">
        <ele>409.9</ele>
        <time>2021-03-24T15:02:22Z</time>
      </trkpt>
      <trkpt lat="46.6945" lon="5.59832">
        <ele>409.5</ele>
        <time>2021-03-24T15:02:26Z</time>
      </trkpt>
      <trkpt lat="46.69445" lon="5.59829">
        <ele>409.7</ele>
        <time>2021-03-24T15:02:31Z</time>
      </trkpt>
      <trkpt lat="46.69441" lon="5.59825">
        <ele>410</ele>
        <time>2021-03-24T15:02:36Z</time>
      </trkpt>
      <trkpt lat="46.69437" lon="5.5982">
        <ele>410.7</ele>
        <time>2021-03-24T15:02:40Z</time>
      </trkpt>
      <trkpt lat="46.69434" lon="5.59815">
        <ele>411.5</ele>
        <time>2021-03-24T15:02:44Z</time>
      </trkpt>
      <trkpt lat="46.69429" lon="5.59812">
        <ele>412.1</ele>
        <time>2021-03-24T15:02:49Z</time>
      </trkpt>
      <trkpt lat="46.69425" lon="5.59809">
        <ele>412.8</ele>
        <time>2021-03-24T15:02:54Z</time>
      </trkpt>
      <trkpt lat="46.69421" lon="5.59805">
        <ele>412</ele>
        <time>2021-03-24T15:03:00Z</time>
      </trkpt>
      <trkpt lat="46.69417" lon="5.59799">
        <ele>410.5</ele>
        <time>2021-03-24T15:03:05Z</time>
      </trkpt>
      <trkpt lat="46.69414" lon="5.59794">
        <ele>409.3</ele>
        <time>2021-03-24T15:03:10Z</time>
      </trkpt>
      <trkpt lat="46.6941" lon="5.5979">
        <ele>408.2</ele>
        <time>2021-03-24T15:03:15Z</time>
      </trkpt>
      <trkpt lat="46.69406" lon="5.59787">
        <ele>407.7</ele>
        <time>2021-03-24T15:03:20Z</time>
      </trkpt>
      <trkpt lat="46.69403" lon="5.59783">
        <ele>407.4</ele>
        <time>2021-03-24T15:03:24Z</time>
      </trkpt>
      <trkpt lat="46.69399" lon="5.59778">
        <ele>406.7</ele>
        <time>2021-03-24T15:03:30Z</time>
      </trkpt>
      <trkpt lat="46.69394" lon="5.59775">
        <ele>405.7</ele>
        <time>2021-03-24T15:03:36Z</time>
      </trkpt>
      <trkpt lat="46.6939" lon="5.59771">
        <ele>404.8</ele>
        <time>2021-03-24T15:03:41Z</time>
      </trkpt>
      <trkpt lat="46.69385" lon="5.59769">
        <ele>404.3</ele>
        <time>2021-03-24T15:03:45Z</time>
      </trkpt>
      <trkpt lat="46.6938" lon="5.59767">
        <ele>403.5</ele>
        <time>2021-03-24T15:03:50Z</time>
      </trkpt>
      <trkpt lat="46.69375" lon="5.59765">
        <ele>402.5</ele>
        <time>2021-03-24T15:03:55Z</time>
      </trkpt>
      <trkpt lat="46.6937" lon="5.59765">
        <ele>402.6</ele>
        <time>2021-03-24T15:03:59Z</time>
      </trkpt>
      <trkpt lat="46.69365" lon="5.59762">
        <ele>401.7</ele>
        <time>2021-03-24T15:04:05Z</time>
      </trkpt>
      <trkpt lat="46.69361" lon="5.59758">
        <ele>400</ele>
        <time>2021-03-24T15:04:11Z</time>
      </trkpt>
      <trkpt lat="46.69356" lon="5.59756">
        <ele>399.6</ele>
        <time>2021-03-24T15:04:16Z</time>
      </trkpt>
      <trkpt lat="46.69352" lon="5.59752">
        <ele>399.4</ele>
        <time>2021-03-24T15:04:22Z</time>
      </trkpt>
      <trkpt lat="46.69347" lon="5.59749">
        <ele>398.7</ele>
        <time>2021-03-24T15:04:28Z</time>
      </trkpt>
      <trkpt lat="46.69342" lon="5.59745">
        <ele>398.2</ele>
        <time>2021-03-24T15:04:33Z</time>
      </trkpt>
      <trkpt lat="46.69338" lon="5.5974">
        <ele>398.4</ele>
        <time>2021-03-24T15:04:37Z</time>
      </trkpt>
      <trkpt lat="46.69334" lon="5.59734">
        <ele>399.4</ele>
        <time>2021-03-24T15:04:41Z</time>
      </trkpt>
      <trkpt lat="46.69331" lon="5.5973">
        <ele>400.2</ele>
        <time>2021-03-24T15:04:45Z</time>
      </trkpt>
      <trkpt lat="46.69328" lon="5.59723">
        <ele>400.6</ele>
        <time>2021-03-24T15:04:49Z</time>
      </trkpt>
      <trkpt lat="46.69325" lon="5.59717">
        <ele>401.1</ele>
        <time>2021-03-24T15:04:53Z</time>
      </trkpt>
      <trkpt lat="46.69322" lon="5.59712">
        <ele>401.7</ele>
        <time>2021-03-24T15:04:58Z</time>
      </trkpt>
      <trkpt lat="46.69317" lon="5.59707">
        <ele>402.4</ele>
        <time>2021-03-24T15:05:03Z</time>
      </trkpt>
      <trkpt lat="46.69314" lon="5.59702">
        <ele>402.6</ele>
        <time>2021-03-24T15:05:07Z</time>
      </trkpt>
      <trkpt lat="46.6931" lon="5.59696">
        <ele>402.7</ele>
        <time>2021-03-24T15:05:12Z</time>
      </trkpt>
      <trkpt lat="46.69307" lon="5.59691">
        <ele>402.7</ele>
        <time>2021-03-24T15:05:16Z</time>
      </trkpt>
      <trkpt lat="46.69304" lon="5.59685">
        <ele>402.6</ele>
        <time>2021-03-24T15:05:21Z</time>
      </trkpt>
      <trkpt lat="46.69299" lon="5.59681">
        <ele>402.4</ele>
        <time>2021-03-24T15:05:26Z</time>
      </trkpt>
      <trkpt lat="46.69295" lon="5.59677">
        <ele>401.2</ele>
        <time>2021-03-24T15:05:32Z</time>
      </trkpt>
      <trkpt lat="46.69291" lon="5.59675">
        <ele>400</ele>
        <time>2021-03-24T15:05:37Z</time>
      </trkpt>
      <trkpt lat="46.69285" lon="5.59673">
        <ele>398.6</ele>
        <time>2021-03-24T15:05:42Z</time>
      </trkpt>
      <trkpt lat="46.6928" lon="5.59672">
        <ele>396.8</ele>
        <time>2021-03-24T15:05:47Z</time>
      </trkpt>
      <trkpt lat="46.69276" lon="5.5967">
        <ele>394.8</ele>
        <time>2021-03-24T15:05:52Z</time>
      </trkpt>
      <trkpt lat="46.69271" lon="5.59668">
        <ele>393.4</ele>
        <time>2021-03-24T15:05:57Z</time>
      </trkpt>
      <trkpt lat="46.69266" lon="5.59664">
        <ele>392.7</ele>
        <time>2021-03-24T15:06:02Z</time>
      </trkpt>
      <trkpt lat="46.69263" lon="5.59659">
        <ele>392.6</ele>
        <time>2021-03-24T15:06:06Z</time>
      </trkpt>
      <trkpt lat="46.69258" lon="5.59654">
        <ele>392.5</ele>
        <time>2021-03-24T15:06:11Z</time>
      </trkpt>
      <trkpt lat="46.69254" lon="5.5965">
        <ele>392.7</ele>
        <time>2021-03-24T15:06:17Z</time>
      </trkpt>
      <trkpt lat="46.6925" lon="5.59646">
        <ele>393.3</ele>
        <time>2021-03-24T15:06:23Z</time>
      </trkpt>
      <trkpt lat="46.69245" lon="5.59643">
        <ele>394</ele>
        <time>2021-03-24T15:06:28Z</time>
      </trkpt>
      <trkpt lat="46.69241" lon="5.59641">
        <ele>394.6</ele>
        <time>2021-03-24T15:06:34Z</time>
      </trkpt>
      <trkpt lat="46.69236" lon="5.5964">
        <ele>395</ele>
        <time>2021-03-24T15:06:40Z</time>
      </trkpt>
      <trkpt lat="46.6923" lon="5.59641">
        <ele>395.5</ele>
        <time>2021-03-24T15:06:45Z</time>
      </trkpt>
      <trkpt lat="46.69225" lon="5.59639">
        <ele>396</ele>
        <time>2021-03-24T15:06:51Z</time>
      </trkpt>
      <trkpt lat="46.69221" lon="5.59636">
        <ele>396.5</ele>
        <time>2021-03-24T15:06:57Z</time>
      </trkpt>
      <trkpt lat="46.69217" lon="5.59632">
        <ele>397</ele>
        <time>2021-03-24T15:07:03Z</time>
      </trkpt>
      <trkpt lat="46.69211" lon="5.59633">
        <ele>397.9</ele>
        <time>2021-03-24T15:07:08Z</time>
      </trkpt>
      <trkpt lat="46.69207" lon="5.5963">
        <ele>398.9</ele>
        <time>2021-03-24T15:07:14Z</time>
      </trkpt>
      <trkpt lat="46.69202" lon="5.59625">
        <ele>399.7</ele>
        <time>2021-03-24T15:07:20Z</time>
      </trkpt>
      <trkpt lat="46.69197" lon="5.59625">
        <ele>400.1</ele>
        <time>2021-03-24T15:07:25Z</time>
      </trkpt>
      <trkpt lat="46.69192" lon="5.59623">
        <ele>400.3</ele>
        <time>2021-03-24T15:07:31Z</time>
      </trkpt>
      <trkpt lat="46.69187" lon="5.59619">
        <ele>399.9</ele>
        <time>2021-03-24T15:07:37Z</time>
      </trkpt>
      <trkpt lat="46.69182" lon="5.59618">
        <ele>399.6</ele>
        <time>2021-03-24T15:07:42Z</time>
      </trkpt>
      <trkpt lat="46.69178" lon="5.59615">
        <ele>399.1</ele>
        <time>2021-03-24T15:07:49Z</time>
      </trkpt>
      <trkpt lat="46.69173" lon="5.59613">
        <ele>399.5</ele>
        <time>2021-03-24T15:07:53Z</time>
      </trkpt>
      <trkpt lat="46.69168" lon="5.59614">
        <ele>400.4</ele>
        <time>2021-03-24T15:07:57Z</time>
      </trkpt>
      <trkpt lat="46.69163" lon="5.5961">
        <ele>400.7</ele>
        <time>2021-03-24T15:08:04Z</time>
      </trkpt>
      <trkpt lat="46.69155" lon="5.59609">
        <ele>401.7</ele>
        <time>2021-03-24T15:08:09Z</time>
      </trkpt>
      <trkpt lat="46.69149" lon="5.59609">
        <ele>402.8</ele>
        <time>2021-03-24T15:08:13Z</time>
      </trkpt>
      <trkpt lat="46.69143" lon="5.59609">
        <ele>403.8</ele>
        <time>2021-03-24T15:08:19Z</time>
      </trkpt>
      <trkpt lat="46.69138" lon="5.59608">
        <ele>403.6</ele>
        <time>2021-03-24T15:08:27Z</time>
      </trkpt>
      <trkpt lat="46.69134" lon="5.59604">
        <ele>403.2</ele>
        <time>2021-03-24T15:08:34Z</time>
      </trkpt>
      <trkpt lat="46.6913" lon="5.59601">
        <ele>402.5</ele>
        <time>2021-03-24T15:08:40Z</time>
      </trkpt>
      <trkpt lat="46.69125" lon="5.596">
        <ele>402</ele>
        <time>2021-03-24T15:08:44Z</time>
      </trkpt>
      <trkpt lat="46.69121" lon="5.59599">
        <ele>401.4</ele>
        <time>2021-03-24T15:08:49Z</time>
      </trkpt>
      <trkpt lat="46.69116" lon="5.596">
        <ele>400.9</ele>
        <time>2021-03-24T15:08:54Z</time>
      </trkpt>
      <trkpt lat="46.69112" lon="5.59602">
        <ele>400.4</ele>
        <time>2021-03-24T15:08:59Z</time>
      </trkpt>
      <trkpt lat="46.69107" lon="5.59603">
        <ele>400.3</ele>
        <time>2021-03-24T15:09:07Z</time>
      </trkpt>
      <trkpt lat="46.691" lon="5.59605">
        <ele>403.1</ele>
        <time>2021-03-24T15:09:11Z</time>
      </trkpt>
      <trkpt lat="46.69093" lon="5.59608">
        <ele>406</ele>
        <time>2021-03-24T15:09:15Z</time>
      </trkpt>
      <trkpt lat="46.69089" lon="5.59611">
        <ele>409.1</ele>
        <time>2021-03-24T15:09:23Z</time>
      </trkpt>
      <trkpt lat="46.69084" lon="5.59612">
        <ele>409.8</ele>
        <time>2021-03-24T15:09:31Z</time>
      </trkpt>
      <trkpt lat="46.69079" lon="5.59612">
        <ele>410</ele>
        <time>2021-03-24T15:09:38Z</time>
      </trkpt>
      <trkpt lat="46.69074" lon="5.59613">
        <ele>409.9</ele>
        <time>2021-03-24T15:09:43Z</time>
      </trkpt>
      <trkpt lat="46.69064" lon="5.59613">
        <ele>410</ele>
        <time>2021-03-24T15:09:47Z</time>
      </trkpt>
      <trkpt lat="46.69059" lon="5.5961">
        <ele>409.8</ele>
        <time>2021-03-24T15:09:53Z</time>
      </trkpt>
      <trkpt lat="46.69055" lon="5.59605">
        <ele>409.5</ele>
        <time>2021-03-24T15:09:59Z</time>
      </trkpt>
      <trkpt lat="46.6905" lon="5.59602">
        <ele>409.3</ele>
        <time>2021-03-24T15:10:04Z</time>
      </trkpt>
      <trkpt lat="46.69046" lon="5.596">
        <ele>409.2</ele>
        <time>2021-03-24T15:10:09Z</time>
      </trkpt>
      <trkpt lat="46.69037" lon="5.59601">
        <ele>410.4</ele>
        <time>2021-03-24T15:10:13Z</time>
      </trkpt>
      <trkpt lat="46.69032" lon="5.59599">
        <ele>411</ele>
        <time>2021-03-24T15:10:18Z</time>
      </trkpt>
      <trkpt lat="46.69027" lon="5.59596">
        <ele>410.8</ele>
        <time>2021-03-24T15:10:24Z</time>
      </trkpt>
      <trkpt lat="46.69023" lon="5.59592">
        <ele>410.4</ele>
        <time>2021-03-24T15:10:29Z</time>
      </trkpt>
      <trkpt lat="46.69019" lon="5.59589">
        <ele>410</ele>
        <time>2021-03-24T15:10:34Z</time>
      </trkpt>
      <trkpt lat="46.69014" lon="5.59587">
        <ele>409.7</ele>
        <time>2021-03-24T15:10:39Z</time>
      </trkpt>
      <trkpt lat="46.6901" lon="5.59584">
        <ele>410</ele>
        <time>2021-03-24T15:10:51Z</time>
      </trkpt>
      <trkpt lat="46.69006" lon="5.59579">
        <ele>411.5</ele>
        <time>2021-03-24T15:11:05Z</time>
      </trkpt>
      <trkpt lat="46.69003" lon="5.59574">
        <ele>412.2</ele>
        <time>2021-03-24T15:11:15Z</time>
      </trkpt>
      <trkpt lat="46.69001" lon="5.59568">
        <ele>413.4</ele>
        <time>2021-03-24T15:11:33Z</time>
      </trkpt>
      <trkpt lat="46.68998" lon="5.59562">
        <ele>413.6</ele>
        <time>2021-03-24T15:11:38Z</time>
      </trkpt>
      <trkpt lat="46.68994" lon="5.59558">
        <ele>413.9</ele>
        <time>2021-03-24T15:11:44Z</time>
      </trkpt>
      <trkpt lat="46.68989" lon="5.59556">
        <ele>413.8</ele>
        <time>2021-03-24T15:11:50Z</time>
      </trkpt>
      <trkpt lat="46.68986" lon="5.59552">
        <ele>413.6</ele>
        <time>2021-03-24T15:11:55Z</time>
      </trkpt>
      <trkpt lat="46.68981" lon="5.59548">
        <ele>413.1</ele>
        <time>2021-03-24T15:12:00Z</time>
      </trkpt>
      <trkpt lat="46.68976" lon="5.59546">
        <ele>412.4</ele>
        <time>2021-03-24T15:12:05Z</time>
      </trkpt>
      <trkpt lat="46.68971" lon="5.59545">
        <ele>411.9</ele>
        <time>2021-03-24T15:12:10Z</time>
      </trkpt>
      <trkpt lat="46.68966" lon="5.59544">
        <ele>411.3</ele>
        <time>2021-03-24T15:12:16Z</time>
      </trkpt>
      <trkpt lat="46.68961" lon="5.59543">
        <ele>410.6</ele>
        <time>2021-03-24T15:12:21Z</time>
      </trkpt>
      <trkpt lat="46.68957" lon="5.59541">
        <ele>409.9</ele>
        <time>2021-03-24T15:12:28Z</time>
      </trkpt>
      <trkpt lat="46.68949" lon="5.59539">
        <ele>413.3</ele>
        <time>2021-03-24T15:12:32Z</time>
      </trkpt>
      <trkpt lat="46.68943" lon="5.59535">
        <ele>417.1</ele>
        <time>2021-03-24T15:12:36Z</time>
      </trkpt>
      <trkpt lat="46.68938" lon="5.59536">
        <ele>421.5</ele>
        <time>2021-03-24T15:12:44Z</time>
      </trkpt>
      <trkpt lat="46.68933" lon="5.59533">
        <ele>423.2</ele>
        <time>2021-03-24T15:12:52Z</time>
      </trkpt>
      <trkpt lat="46.68929" lon="5.5953">
        <ele>423.3</ele>
        <time>2021-03-24T15:12:57Z</time>
      </trkpt>
      <trkpt lat="46.68925" lon="5.59527">
        <ele>423.4</ele>
        <time>2021-03-24T15:13:02Z</time>
      </trkpt>
      <trkpt lat="46.6892" lon="5.59527">
        <ele>425.5</ele>
        <time>2021-03-24T15:13:13Z</time>
      </trkpt>
      <trkpt lat="46.68915" lon="5.59527">
        <ele>426.4</ele>
        <time>2021-03-24T15:13:19Z</time>
      </trkpt>
      <trkpt lat="46.6891" lon="5.59526">
        <ele>427.1</ele>
        <time>2021-03-24T15:13:25Z</time>
      </trkpt>
      <trkpt lat="46.68906" lon="5.59525">
        <ele>427.7</ele>
        <time>2021-03-24T15:13:31Z</time>
      </trkpt>
      <trkpt lat="46.68901" lon="5.59527">
        <ele>427.7</ele>
        <time>2021-03-24T15:13:36Z</time>
      </trkpt>
      <trkpt lat="46.68896" lon="5.59529">
        <ele>427.5</ele>
        <time>2021-03-24T15:13:41Z</time>
      </trkpt>
      <trkpt lat="46.68891" lon="5.59532">
        <ele>427</ele>
        <time>2021-03-24T15:13:45Z</time>
      </trkpt>
      <trkpt lat="46.68886" lon="5.59531">
        <ele>426.4</ele>
        <time>2021-03-24T15:13:51Z</time>
      </trkpt>
      <trkpt lat="46.68876" lon="5.59533">
        <ele>425.9</ele>
        <time>2021-03-24T15:13:55Z</time>
      </trkpt>
      <trkpt lat="46.68868" lon="5.59535">
        <ele>425.5</ele>
        <time>2021-03-24T15:13:59Z</time>
      </trkpt>
      <trkpt lat="46.68863" lon="5.59534">
        <ele>424.8</ele>
        <time>2021-03-24T15:14:04Z</time>
      </trkpt>
      <trkpt lat="46.68858" lon="5.59532">
        <ele>423.5</ele>
        <time>2021-03-24T15:14:13Z</time>
      </trkpt>
      <trkpt lat="46.68854" lon="5.59532">
        <ele>423.2</ele>
        <time>2021-03-24T15:14:17Z</time>
      </trkpt>
      <trkpt lat="46.68849" lon="5.59531">
        <ele>422.7</ele>
        <time>2021-03-24T15:14:22Z</time>
      </trkpt>
      <trkpt lat="46.68845" lon="5.59528">
        <ele>422</ele>
        <time>2021-03-24T15:14:28Z</time>
      </trkpt>
      <trkpt lat="46.6884" lon="5.59527">
        <ele>421.1</ele>
        <time>2021-03-24T15:14:34Z</time>
      </trkpt>
      <trkpt lat="46.68835" lon="5.59527">
        <ele>420.2</ele>
        <time>2021-03-24T15:14:40Z</time>
      </trkpt>
      <trkpt lat="46.68825" lon="5.59534">
        <ele>422.4</ele>
        <time>2021-03-24T15:14:44Z</time>
      </trkpt>
      <trkpt lat="46.6882" lon="5.59536">
        <ele>424.2</ele>
        <time>2021-03-24T15:14:48Z</time>
      </trkpt>
      <trkpt lat="46.68815" lon="5.59534">
        <ele>425.2</ele>
        <time>2021-03-24T15:14:54Z</time>
      </trkpt>
      <trkpt lat="46.6881" lon="5.59532">
        <ele>425.2</ele>
        <time>2021-03-24T15:15:00Z</time>
      </trkpt>
      <trkpt lat="46.68805" lon="5.5953">
        <ele>425.2</ele>
        <time>2021-03-24T15:15:05Z</time>
      </trkpt>
      <trkpt lat="46.688" lon="5.5953">
        <ele>425.8</ele>
        <time>2021-03-24T15:15:10Z</time>
      </trkpt>
      <trkpt lat="46.68795" lon="5.59528">
        <ele>426.9</ele>
        <time>2021-03-24T15:15:16Z</time>
      </trkpt>
      <trkpt lat="46.68791" lon="5.59526">
        <ele>427.8</ele>
        <time>2021-03-24T15:15:21Z</time>
      </trkpt>
      <trkpt lat="46.68786" lon="5.59525">
        <ele>428.8</ele>
        <time>2021-03-24T15:15:27Z</time>
      </trkpt>
      <trkpt lat="46.68781" lon="5.59524">
        <ele>429.6</ele>
        <time>2021-03-24T15:15:36Z</time>
      </trkpt>
      <trkpt lat="46.68776" lon="5.59523">
        <ele>429.9</ele>
        <time>2021-03-24T15:15:41Z</time>
      </trkpt>
      <trkpt lat="46.68771" lon="5.59523">
        <ele>430.1</ele>
        <time>2021-03-24T15:15:45Z</time>
      </trkpt>
      <trkpt lat="46.68766" lon="5.59522">
        <ele>430.1</ele>
        <time>2021-03-24T15:15:51Z</time>
      </trkpt>
      <trkpt lat="46.68761" lon="5.5952">
        <ele>430</ele>
        <time>2021-03-24T15:15:57Z</time>
      </trkpt>
      <trkpt lat="46.68757" lon="5.59517">
        <ele>429.8</ele>
        <time>2021-03-24T15:16:05Z</time>
      </trkpt>
      <trkpt lat="46.68753" lon="5.5952">
        <ele>430.9</ele>
        <time>2021-03-24T15:16:19Z</time>
      </trkpt>
      <trkpt lat="46.68746" lon="5.59524">
        <ele>430.7</ele>
        <time>2021-03-24T15:16:54Z</time>
      </trkpt>
      <trkpt lat="46.68742" lon="5.59528">
        <ele>430.4</ele>
        <time>2021-03-24T15:16:59Z</time>
      </trkpt>
      <trkpt lat="46.68746" lon="5.59533">
        <ele>433.1</ele>
        <time>2021-03-24T15:18:16Z</time>
      </trkpt>
      <trkpt lat="46.68751" lon="5.59532">
        <ele>437.1</ele>
        <time>2021-03-24T15:18:26Z</time>
      </trkpt>
      <trkpt lat="46.68755" lon="5.59528">
        <ele>438.1</ele>
        <time>2021-03-24T15:18:32Z</time>
      </trkpt>
      <trkpt lat="46.6875" lon="5.59526">
        <ele>439.5</ele>
        <time>2021-03-24T15:19:23Z</time>
      </trkpt>
      <trkpt lat="46.68745" lon="5.59526">
        <ele>439</ele>
        <time>2021-03-24T15:19:28Z</time>
      </trkpt>
      <trkpt lat="46.6874" lon="5.59524">
        <ele>438.5</ele>
        <time>2021-03-24T15:19:33Z</time>
      </trkpt>
      <trkpt lat="46.68735" lon="5.59521">
        <ele>438</ele>
        <time>2021-03-24T15:19:37Z</time>
      </trkpt>
      <trkpt lat="46.68731" lon="5.59518">
        <ele>437.5</ele>
        <time>2021-03-24T15:19:42Z</time>
      </trkpt>
      <trkpt lat="46.68726" lon="5.59517">
        <ele>437</ele>
        <time>2021-03-24T15:19:47Z</time>
      </trkpt>
      <trkpt lat="46.68721" lon="5.59515">
        <ele>436.7</ele>
        <time>2021-03-24T15:19:51Z</time>
      </trkpt>
      <trkpt lat="46.68716" lon="5.59513">
        <ele>436.3</ele>
        <time>2021-03-24T15:19:56Z</time>
      </trkpt>
      <trkpt lat="46.68712" lon="5.5951">
        <ele>436.3</ele>
        <time>2021-03-24T15:20:00Z</time>
      </trkpt>
      <trkpt lat="46.68707" lon="5.59508">
        <ele>436.4</ele>
        <time>2021-03-24T15:20:04Z</time>
      </trkpt>
      <trkpt lat="46.68702" lon="5.59505">
        <ele>436.7</ele>
        <time>2021-03-24T15:20:10Z</time>
      </trkpt>
      <trkpt lat="46.68697" lon="5.59502">
        <ele>437.3</ele>
        <time>2021-03-24T15:20:16Z</time>
      </trkpt>
      <trkpt lat="46.68692" lon="5.595">
        <ele>437.6</ele>
        <time>2021-03-24T15:20:21Z</time>
      </trkpt>
      <trkpt lat="46.68687" lon="5.59499">
        <ele>437.1</ele>
        <time>2021-03-24T15:20:27Z</time>
      </trkpt>
      <trkpt lat="46.68683" lon="5.59495">
        <ele>437.3</ele>
        <time>2021-03-24T15:20:32Z</time>
      </trkpt>
      <trkpt lat="46.68679" lon="5.59492">
        <ele>437.7</ele>
        <time>2021-03-24T15:20:36Z</time>
      </trkpt>
      <trkpt lat="46.68674" lon="5.5949">
        <ele>438.1</ele>
        <time>2021-03-24T15:20:41Z</time>
      </trkpt>
      <trkpt lat="46.68669" lon="5.5949">
        <ele>438.3</ele>
        <time>2021-03-24T15:20:48Z</time>
      </trkpt>
      <trkpt lat="46.68665" lon="5.59488">
        <ele>438.3</ele>
        <time>2021-03-24T15:20:56Z</time>
      </trkpt>
      <trkpt lat="46.6866" lon="5.59487">
        <ele>438</ele>
        <time>2021-03-24T15:21:01Z</time>
      </trkpt>
      <trkpt lat="46.68655" lon="5.59485">
        <ele>436.9</ele>
        <time>2021-03-24T15:21:09Z</time>
      </trkpt>
      <trkpt lat="46.6865" lon="5.59484">
        <ele>436.1</ele>
        <time>2021-03-24T15:21:14Z</time>
      </trkpt>
      <trkpt lat="46.68646" lon="5.59483">
        <ele>434.5</ele>
        <time>2021-03-24T15:21:22Z</time>
      </trkpt>
      <trkpt lat="46.6864" lon="5.59482">
        <ele>433.5</ele>
        <time>2021-03-24T15:21:29Z</time>
      </trkpt>
      <trkpt lat="46.68635" lon="5.59481">
        <ele>432.8</ele>
        <time>2021-03-24T15:21:34Z</time>
      </trkpt>
      <trkpt lat="46.68631" lon="5.59481">
        <ele>432.2</ele>
        <time>2021-03-24T15:21:38Z</time>
      </trkpt>
      <trkpt lat="46.68626" lon="5.59484">
        <ele>431.3</ele>
        <time>2021-03-24T15:21:42Z</time>
      </trkpt>
      <trkpt lat="46.68622" lon="5.59483">
        <ele>430.4</ele>
        <time>2021-03-24T15:21:49Z</time>
      </trkpt>
      <trkpt lat="46.68617" lon="5.59479">
        <ele>429.9</ele>
        <time>2021-03-24T15:21:55Z</time>
      </trkpt>
      <trkpt lat="46.6861" lon="5.59476">
        <ele>429.7</ele>
        <time>2021-03-24T15:21:59Z</time>
      </trkpt>
      <trkpt lat="46.68604" lon="5.59474">
        <ele>429.9</ele>
        <time>2021-03-24T15:22:03Z</time>
      </trkpt>
      <trkpt lat="46.68599" lon="5.59472">
        <ele>430.1</ele>
        <time>2021-03-24T15:22:08Z</time>
      </trkpt>
      <trkpt lat="46.68589" lon="5.59462">
        <ele>435.1</ele>
        <time>2021-03-24T15:22:12Z</time>
      </trkpt>
      <trkpt lat="46.68584" lon="5.59456">
        <ele>439.1</ele>
        <time>2021-03-24T15:22:16Z</time>
      </trkpt>
      <trkpt lat="46.6858" lon="5.59452">
        <ele>442</ele>
        <time>2021-03-24T15:22:21Z</time>
      </trkpt>
      <trkpt lat="46.68575" lon="5.59449">
        <ele>443.5</ele>
        <time>2021-03-24T15:22:28Z</time>
      </trkpt>
      <trkpt lat="46.68571" lon="5.59446">
        <ele>444</ele>
        <time>2021-03-24T15:22:34Z</time>
      </trkpt>
      <trkpt lat="46.68566" lon="5.59445">
        <ele>444.2</ele>
        <time>2021-03-24T15:22:41Z</time>
      </trkpt>
      <trkpt lat="46.68562" lon="5.59445">
        <ele>443.7</ele>
        <time>2021-03-24T15:22:50Z</time>
      </trkpt>
      <trkpt lat="46.68557" lon="5.59444">
        <ele>443.3</ele>
        <time>2021-03-24T15:22:54Z</time>
      </trkpt>
      <trkpt lat="46.6855" lon="5.59444">
        <ele>442.6</ele>
        <time>2021-03-24T15:22:58Z</time>
      </trkpt>
      <trkpt lat="46.68545" lon="5.59443">
        <ele>442</ele>
        <time>2021-03-24T15:23:02Z</time>
      </trkpt>
      <trkpt lat="46.6854" lon="5.59442">
        <ele>441.4</ele>
        <time>2021-03-24T15:23:09Z</time>
      </trkpt>
      <trkpt lat="46.68535" lon="5.59441">
        <ele>441.2</ele>
        <time>2021-03-24T15:23:14Z</time>
      </trkpt>
      <trkpt lat="46.68531" lon="5.59438">
        <ele>441.1</ele>
        <time>2021-03-24T15:23:19Z</time>
      </trkpt>
      <trkpt lat="46.68527" lon="5.59436">
        <ele>441</ele>
        <time>2021-03-24T15:23:26Z</time>
      </trkpt>
      <trkpt lat="46.68523" lon="5.59431">
        <ele>441.2</ele>
        <time>2021-03-24T15:23:30Z</time>
      </trkpt>
      <trkpt lat="46.68518" lon="5.59429">
        <ele>441.3</ele>
        <time>2021-03-24T15:23:34Z</time>
      </trkpt>
      <trkpt lat="46.68514" lon="5.59426">
        <ele>441.2</ele>
        <time>2021-03-24T15:23:39Z</time>
      </trkpt>
      <trkpt lat="46.6851" lon="5.59424">
        <ele>440.9</ele>
        <time>2021-03-24T15:23:44Z</time>
      </trkpt>
      <trkpt lat="46.68504" lon="5.59424">
        <ele>440.2</ele>
        <time>2021-03-24T15:23:50Z</time>
      </trkpt>
      <trkpt lat="46.685" lon="5.59423">
        <ele>439.5</ele>
        <time>2021-03-24T15:23:55Z</time>
      </trkpt>
      <trkpt lat="46.68495" lon="5.59423">
        <ele>439.1</ele>
        <time>2021-03-24T15:24:00Z</time>
      </trkpt>
      <trkpt lat="46.68489" lon="5.59425">
        <ele>439</ele>
        <time>2021-03-24T15:24:04Z</time>
      </trkpt>
      <trkpt lat="46.68485" lon="5.59423">
        <ele>438.7</ele>
        <time>2021-03-24T15:24:11Z</time>
      </trkpt>
      <trkpt lat="46.6848" lon="5.59423">
        <ele>438.6</ele>
        <time>2021-03-24T15:24:19Z</time>
      </trkpt>
      <trkpt lat="46.68475" lon="5.59425">
        <ele>438.1</ele>
        <time>2021-03-24T15:24:29Z</time>
      </trkpt>
      <trkpt lat="46.6847" lon="5.59424">
        <ele>437.8</ele>
        <time>2021-03-24T15:24:34Z</time>
      </trkpt>
      <trkpt lat="46.68462" lon="5.59424">
        <ele>437.4</ele>
        <time>2021-03-24T15:24:38Z</time>
      </trkpt>
      <trkpt lat="46.68457" lon="5.59423">
        <ele>437</ele>
        <time>2021-03-24T15:24:43Z</time>
      </trkpt>
      <trkpt lat="46.68451" lon="5.59422">
        <ele>436.4</ele>
        <time>2021-03-24T15:24:54Z</time>
      </trkpt>
      <trkpt lat="46.68446" lon="5.59421">
        <ele>437.2</ele>
        <time>2021-03-24T15:24:59Z</time>
      </trkpt>
      <trkpt lat="46.68441" lon="5.5942">
        <ele>438.7</ele>
        <time>2021-03-24T15:25:05Z</time>
      </trkpt>
      <trkpt lat="46.68434" lon="5.59415">
        <ele>439.4</ele>
        <time>2021-03-24T15:25:09Z</time>
      </trkpt>
      <trkpt lat="46.68427" lon="5.59414">
        <ele>439.2</ele>
        <time>2021-03-24T15:25:13Z</time>
      </trkpt>
      <trkpt lat="46.68422" lon="5.59415">
        <ele>438.7</ele>
        <time>2021-03-24T15:25:17Z</time>
      </trkpt>
      <trkpt lat="46.68417" lon="5.59413">
        <ele>438.6</ele>
        <time>2021-03-24T15:25:27Z</time>
      </trkpt>
      <trkpt lat="46.68412" lon="5.59412">
        <ele>438.6</ele>
        <time>2021-03-24T15:25:32Z</time>
      </trkpt>
      <trkpt lat="46.68407" lon="5.59412">
        <ele>438.8</ele>
        <time>2021-03-24T15:25:38Z</time>
      </trkpt>
      <trkpt lat="46.68402" lon="5.59412">
        <ele>439</ele>
        <time>2021-03-24T15:25:43Z</time>
      </trkpt>
      <trkpt lat="46.68398" lon="5.59412">
        <ele>438.9</ele>
        <time>2021-03-24T15:25:51Z</time>
      </trkpt>
      <trkpt lat="46.68393" lon="5.5941">
        <ele>438.3</ele>
        <time>2021-03-24T15:25:58Z</time>
      </trkpt>
      <trkpt lat="46.6838" lon="5.59419">
        <ele>434</ele>
        <time>2021-03-24T15:26:02Z</time>
      </trkpt>
      <trkpt lat="46.68375" lon="5.59421">
        <ele>431.9</ele>
        <time>2021-03-24T15:26:06Z</time>
      </trkpt>
      <trkpt lat="46.68371" lon="5.59422">
        <ele>429.3</ele>
        <time>2021-03-24T15:26:17Z</time>
      </trkpt>
      <trkpt lat="46.68366" lon="5.59421">
        <ele>428.5</ele>
        <time>2021-03-24T15:26:25Z</time>
      </trkpt>
      <trkpt lat="46.68361" lon="5.5942">
        <ele>428.3</ele>
        <time>2021-03-24T15:26:32Z</time>
      </trkpt>
      <trkpt lat="46.68356" lon="5.59425">
        <ele>428.5</ele>
        <time>2021-03-24T15:26:39Z</time>
      </trkpt>
      <trkpt lat="46.68344" lon="5.59425">
        <ele>432</ele>
        <time>2021-03-24T15:26:43Z</time>
      </trkpt>
      <trkpt lat="46.68333" lon="5.59425">
        <ele>435.6</ele>
        <time>2021-03-24T15:26:47Z</time>
      </trkpt>
      <trkpt lat="46.68328" lon="5.59423">
        <ele>438.6</ele>
        <time>2021-03-24T15:26:52Z</time>
      </trkpt>
      <trkpt lat="46.68324" lon="5.59425">
        <ele>441.8</ele>
        <time>2021-03-24T15:27:04Z</time>
      </trkpt>
      <trkpt lat="46.68318" lon="5.59424">
        <ele>442.6</ele>
        <time>2021-03-24T15:27:11Z</time>
      </trkpt>
      <trkpt lat="46.68314" lon="5.59425">
        <ele>442.7</ele>
        <time>2021-03-24T15:27:15Z</time>
      </trkpt>
      <trkpt lat="46.68309" lon="5.59424">
        <ele>442.3</ele>
        <time>2021-03-24T15:27:20Z</time>
      </trkpt>
      <trkpt lat="46.68304" lon="5.59424">
        <ele>442.2</ele>
        <time>2021-03-24T15:27:25Z</time>
      </trkpt>
      <trkpt lat="46.68299" lon="5.59424">
        <ele>442.5</ele>
        <time>2021-03-24T15:27:29Z</time>
      </trkpt>
      <trkpt lat="46.68294" lon="5.59422">
        <ele>442.5</ele>
        <time>2021-03-24T15:27:35Z</time>
      </trkpt>
      <trkpt lat="46.6829" lon="5.5942">
        <ele>441.9</ele>
        <time>2021-03-24T15:27:40Z</time>
      </trkpt>
      <trkpt lat="46.68285" lon="5.59419">
        <ele>441.5</ele>
        <time>2021-03-24T15:27:45Z</time>
      </trkpt>
      <trkpt lat="46.6828" lon="5.59416">
        <ele>440.5</ele>
        <time>2021-03-24T15:27:52Z</time>
      </trkpt>
      <trkpt lat="46.68275" lon="5.59413">
        <ele>439.3</ele>
        <time>2021-03-24T15:27:58Z</time>
      </trkpt>
      <trkpt lat="46.68271" lon="5.59413">
        <ele>437.9</ele>
        <time>2021-03-24T15:28:04Z</time>
      </trkpt>
      <trkpt lat="46.68266" lon="5.59412">
        <ele>437</ele>
        <time>2021-03-24T15:28:09Z</time>
      </trkpt>
      <trkpt lat="46.68261" lon="5.59408">
        <ele>436.4</ele>
        <time>2021-03-24T15:28:15Z</time>
      </trkpt>
      <trkpt lat="46.68257" lon="5.59404">
        <ele>436.9</ele>
        <time>2021-03-24T15:28:20Z</time>
      </trkpt>
      <trkpt lat="46.68253" lon="5.59399">
        <ele>437.9</ele>
        <time>2021-03-24T15:28:27Z</time>
      </trkpt>
      <trkpt lat="46.68249" lon="5.59398">
        <ele>438.6</ele>
        <time>2021-03-24T15:28:36Z</time>
      </trkpt>
      <trkpt lat="46.68244" lon="5.59397">
        <ele>438.7</ele>
        <time>2021-03-24T15:28:42Z</time>
      </trkpt>
      <trkpt lat="46.68239" lon="5.59396">
        <ele>438.8</ele>
        <time>2021-03-24T15:28:47Z</time>
      </trkpt>
      <trkpt lat="46.68234" lon="5.59396">
        <ele>438.9</ele>
        <time>2021-03-24T15:28:53Z</time>
      </trkpt>
      <trkpt lat="46.68229" lon="5.59396">
        <ele>438.7</ele>
        <time>2021-03-24T15:28:58Z</time>
      </trkpt>
      <trkpt lat="46.68224" lon="5.59394">
        <ele>438.2</ele>
        <time>2021-03-24T15:29:04Z</time>
      </trkpt>
      <trkpt lat="46.68217" lon="5.59393">
        <ele>437.6</ele>
        <time>2021-03-24T15:29:17Z</time>
      </trkpt>
      <trkpt lat="46.68211" lon="5.59388">
        <ele>438.9</ele>
        <time>2021-03-24T15:29:21Z</time>
      </trkpt>
      <trkpt lat="46.68208" lon="5.59385">
        <ele>439.8</ele>
        <time>2021-03-24T15:29:26Z</time>
      </trkpt>
      <trkpt lat="46.68203" lon="5.59383">
        <ele>440.3</ele>
        <time>2021-03-24T15:29:31Z</time>
      </trkpt>
      <trkpt lat="46.68197" lon="5.59382">
        <ele>440.8</ele>
        <time>2021-03-24T15:29:36Z</time>
      </trkpt>
      <trkpt lat="46.68193" lon="5.5938">
        <ele>441.1</ele>
        <time>2021-03-24T15:29:41Z</time>
      </trkpt>
      <trkpt lat="46.68188" lon="5.59378">
        <ele>441.1</ele>
        <time>2021-03-24T15:29:45Z</time>
      </trkpt>
      <trkpt lat="46.68184" lon="5.59375">
        <ele>441.1</ele>
        <time>2021-03-24T15:29:49Z</time>
      </trkpt>
      <trkpt lat="46.68179" lon="5.59373">
        <ele>441.2</ele>
        <time>2021-03-24T15:29:53Z</time>
      </trkpt>
      <trkpt lat="46.68174" lon="5.59372">
        <ele>441.2</ele>
        <time>2021-03-24T15:29:58Z</time>
      </trkpt>
      <trkpt lat="46.68169" lon="5.5937">
        <ele>441</ele>
        <time>2021-03-24T15:30:02Z</time>
      </trkpt>
      <trkpt lat="46.68164" lon="5.59369">
        <ele>440.3</ele>
        <time>2021-03-24T15:30:09Z</time>
      </trkpt>
      <trkpt lat="46.68159" lon="5.5937">
        <ele>439.8</ele>
        <time>2021-03-24T15:30:18Z</time>
      </trkpt>
      <trkpt lat="46.68155" lon="5.59367">
        <ele>439.7</ele>
        <time>2021-03-24T15:30:27Z</time>
      </trkpt>
      <trkpt lat="46.6815" lon="5.59363">
        <ele>439.7</ele>
        <time>2021-03-24T15:30:32Z</time>
      </trkpt>
      <trkpt lat="46.68146" lon="5.5936">
        <ele>439.9</ele>
        <time>2021-03-24T15:30:39Z</time>
      </trkpt>
      <trkpt lat="46.68133" lon="5.59359">
        <ele>442.8</ele>
        <time>2021-03-24T15:30:43Z</time>
      </trkpt>
      <trkpt lat="46.68129" lon="5.59357">
        <ele>444.9</ele>
        <time>2021-03-24T15:30:47Z</time>
      </trkpt>
      <trkpt lat="46.68124" lon="5.59354">
        <ele>448.7</ele>
        <time>2021-03-24T15:30:54Z</time>
      </trkpt>
      <trkpt lat="46.68119" lon="5.5935">
        <ele>450.6</ele>
        <time>2021-03-24T15:31:00Z</time>
      </trkpt>
      <trkpt lat="46.68114" lon="5.59347">
        <ele>450.9</ele>
        <time>2021-03-24T15:31:07Z</time>
      </trkpt>
      <trkpt lat="46.68109" lon="5.59344">
        <ele>449.7</ele>
        <time>2021-03-24T15:31:13Z</time>
      </trkpt>
      <trkpt lat="46.68105" lon="5.59342">
        <ele>448.3</ele>
        <time>2021-03-24T15:31:18Z</time>
      </trkpt>
      <trkpt lat="46.681" lon="5.59343">
        <ele>447.6</ele>
        <time>2021-03-24T15:31:23Z</time>
      </trkpt>
      <trkpt lat="46.68095" lon="5.59342">
        <ele>447</ele>
        <time>2021-03-24T15:31:30Z</time>
      </trkpt>
      <trkpt lat="46.6809" lon="5.59342">
        <ele>446.4</ele>
        <time>2021-03-24T15:31:36Z</time>
      </trkpt>
      <trkpt lat="46.68085" lon="5.59342">
        <ele>446.3</ele>
        <time>2021-03-24T15:31:41Z</time>
      </trkpt>
      <trkpt lat="46.6808" lon="5.59341">
        <ele>446.1</ele>
        <time>2021-03-24T15:31:47Z</time>
      </trkpt>
      <trkpt lat="46.68075" lon="5.5934">
        <ele>445.9</ele>
        <time>2021-03-24T15:31:55Z</time>
      </trkpt>
      <trkpt lat="46.6807" lon="5.59337">
        <ele>445.6</ele>
        <time>2021-03-24T15:32:00Z</time>
      </trkpt>
      <trkpt lat="46.68065" lon="5.59335">
        <ele>445.5</ele>
        <time>2021-03-24T15:32:04Z</time>
      </trkpt>
      <trkpt lat="46.6806" lon="5.59334">
        <ele>445.5</ele>
        <time>2021-03-24T15:32:08Z</time>
      </trkpt>
      <trkpt lat="46.68055" lon="5.59335">
        <ele>445.1</ele>
        <time>2021-03-24T15:32:13Z</time>
      </trkpt>
      <trkpt lat="46.6805" lon="5.59336">
        <ele>444.5</ele>
        <time>2021-03-24T15:32:18Z</time>
      </trkpt>
      <trkpt lat="46.68045" lon="5.59336">
        <ele>444</ele>
        <time>2021-03-24T15:32:22Z</time>
      </trkpt>
      <trkpt lat="46.68041" lon="5.59334">
        <ele>443.4</ele>
        <time>2021-03-24T15:32:27Z</time>
      </trkpt>
      <trkpt lat="46.68036" lon="5.59332">
        <ele>442.8</ele>
        <time>2021-03-24T15:32:33Z</time>
      </trkpt>
      <trkpt lat="46.68031" lon="5.5933">
        <ele>442.2</ele>
        <time>2021-03-24T15:32:38Z</time>
      </trkpt>
      <trkpt lat="46.68026" lon="5.59328">
        <ele>441.7</ele>
        <time>2021-03-24T15:32:43Z</time>
      </trkpt>
      <trkpt lat="46.68022" lon="5.59326">
        <ele>442</ele>
        <time>2021-03-24T15:32:48Z</time>
      </trkpt>
      <trkpt lat="46.68017" lon="5.59325">
        <ele>442.6</ele>
        <time>2021-03-24T15:32:53Z</time>
      </trkpt>
      <trkpt lat="46.68012" lon="5.59325">
        <ele>442.6</ele>
        <time>2021-03-24T15:32:58Z</time>
      </trkpt>
      <trkpt lat="46.68007" lon="5.59326">
        <ele>442.4</ele>
        <time>2021-03-24T15:33:02Z</time>
      </trkpt>
      <trkpt lat="46.68003" lon="5.59324">
        <ele>442</ele>
        <time>2021-03-24T15:33:06Z</time>
      </trkpt>
      <trkpt lat="46.67998" lon="5.59322">
        <ele>441.4</ele>
        <time>2021-03-24T15:33:10Z</time>
      </trkpt>
      <trkpt lat="46.67994" lon="5.59319">
        <ele>440.7</ele>
        <time>2021-03-24T15:33:14Z</time>
      </trkpt>
      <trkpt lat="46.67989" lon="5.59319">
        <ele>438</ele>
        <time>2021-03-24T15:33:18Z</time>
      </trkpt>
      <trkpt lat="46.67983" lon="5.59316">
        <ele>435.5</ele>
        <time>2021-03-24T15:33:23Z</time>
      </trkpt>
      <trkpt lat="46.67979" lon="5.59314">
        <ele>434.5</ele>
        <time>2021-03-24T15:33:27Z</time>
      </trkpt>
      <trkpt lat="46.67975" lon="5.59312">
        <ele>433.8</ele>
        <time>2021-03-24T15:33:31Z</time>
      </trkpt>
      <trkpt lat="46.67969" lon="5.59311">
        <ele>433.5</ele>
        <time>2021-03-24T15:33:36Z</time>
      </trkpt>
      <trkpt lat="46.67965" lon="5.5931">
        <ele>433.2</ele>
        <time>2021-03-24T15:33:42Z</time>
      </trkpt>
      <trkpt lat="46.6796" lon="5.59307">
        <ele>433</ele>
        <time>2021-03-24T15:33:49Z</time>
      </trkpt>
      <trkpt lat="46.67956" lon="5.59304">
        <ele>433</ele>
        <time>2021-03-24T15:33:55Z</time>
      </trkpt>
      <trkpt lat="46.67951" lon="5.59302">
        <ele>433.1</ele>
        <time>2021-03-24T15:34:00Z</time>
      </trkpt>
      <trkpt lat="46.67946" lon="5.59301">
        <ele>433</ele>
        <time>2021-03-24T15:34:05Z</time>
      </trkpt>
      <trkpt lat="46.67941" lon="5.59299">
        <ele>432.8</ele>
        <time>2021-03-24T15:34:10Z</time>
      </trkpt>
      <trkpt lat="46.67936" lon="5.593">
        <ele>432.1</ele>
        <time>2021-03-24T15:34:17Z</time>
      </trkpt>
      <trkpt lat="46.67931" lon="5.59299">
        <ele>431.2</ele>
        <time>2021-03-24T15:34:25Z</time>
      </trkpt>
      <trkpt lat="46.67927" lon="5.59302">
        <ele>430.3</ele>
        <time>2021-03-24T15:34:33Z</time>
      </trkpt>
      <trkpt lat="46.67919" lon="5.59304">
        <ele>430.5</ele>
        <time>2021-03-24T15:34:40Z</time>
      </trkpt>
      <trkpt lat="46.67913" lon="5.59304">
        <ele>431.1</ele>
        <time>2021-03-24T15:34:44Z</time>
      </trkpt>
      <trkpt lat="46.67908" lon="5.59304">
        <ele>431.6</ele>
        <time>2021-03-24T15:34:51Z</time>
      </trkpt>
      <trkpt lat="46.67903" lon="5.59304">
        <ele>431.5</ele>
        <time>2021-03-24T15:34:58Z</time>
      </trkpt>
      <trkpt lat="46.67897" lon="5.59305">
        <ele>431</ele>
        <time>2021-03-24T15:35:03Z</time>
      </trkpt>
      <trkpt lat="46.67891" lon="5.59305">
        <ele>430.4</ele>
        <time>2021-03-24T15:35:08Z</time>
      </trkpt>
      <trkpt lat="46.67886" lon="5.59306">
        <ele>429.9</ele>
        <time>2021-03-24T15:35:12Z</time>
      </trkpt>
      <trkpt lat="46.67882" lon="5.59306">
        <ele>429.6</ele>
        <time>2021-03-24T15:35:17Z</time>
      </trkpt>
      <trkpt lat="46.67877" lon="5.59305">
        <ele>430.1</ele>
        <time>2021-03-24T15:35:24Z</time>
      </trkpt>
      <trkpt lat="46.67872" lon="5.59307">
        <ele>430.9</ele>
        <time>2021-03-24T15:35:29Z</time>
      </trkpt>
      <trkpt lat="46.67867" lon="5.59309">
        <ele>431.4</ele>
        <time>2021-03-24T15:35:36Z</time>
      </trkpt>
      <trkpt lat="46.67863" lon="5.59311">
        <ele>431.6</ele>
        <time>2021-03-24T15:35:41Z</time>
      </trkpt>
      <trkpt lat="46.67858" lon="5.59311">
        <ele>431.3</ele>
        <time>2021-03-24T15:35:45Z</time>
      </trkpt>
      <trkpt lat="46.67853" lon="5.59311">
        <ele>430.8</ele>
        <time>2021-03-24T15:35:50Z</time>
      </trkpt>
      <trkpt lat="46.67848" lon="5.59312">
        <ele>430.5</ele>
        <time>2021-03-24T15:35:55Z</time>
      </trkpt>
      <trkpt lat="46.67843" lon="5.59312">
        <ele>429.6</ele>
        <time>2021-03-24T15:36:03Z</time>
      </trkpt>
      <trkpt lat="46.67839" lon="5.59311">
        <ele>428.7</ele>
        <time>2021-03-24T15:36:11Z</time>
      </trkpt>
      <trkpt lat="46.67834" lon="5.59311">
        <ele>428</ele>
        <time>2021-03-24T15:36:17Z</time>
      </trkpt>
      <trkpt lat="46.67829" lon="5.59313">
        <ele>426.9</ele>
        <time>2021-03-24T15:36:22Z</time>
      </trkpt>
      <trkpt lat="46.67824" lon="5.59315">
        <ele>425.4</ele>
        <time>2021-03-24T15:36:26Z</time>
      </trkpt>
      <trkpt lat="46.6782" lon="5.59315">
        <ele>424.1</ele>
        <time>2021-03-24T15:36:30Z</time>
      </trkpt>
      <trkpt lat="46.67814" lon="5.59313">
        <ele>422.4</ele>
        <time>2021-03-24T15:36:35Z</time>
      </trkpt>
      <trkpt lat="46.67809" lon="5.5931">
        <ele>421</ele>
        <time>2021-03-24T15:36:40Z</time>
      </trkpt>
      <trkpt lat="46.67806" lon="5.59305">
        <ele>419.5</ele>
        <time>2021-03-24T15:36:46Z</time>
      </trkpt>
      <trkpt lat="46.67804" lon="5.59298">
        <ele>417.8</ele>
        <time>2021-03-24T15:36:51Z</time>
      </trkpt>
      <trkpt lat="46.67803" lon="5.59291">
        <ele>416.4</ele>
        <time>2021-03-24T15:36:56Z</time>
      </trkpt>
      <trkpt lat="46.67802" lon="5.59284">
        <ele>415.1</ele>
        <time>2021-03-24T15:37:01Z</time>
      </trkpt>
      <trkpt lat="46.67801" lon="5.59277">
        <ele>413.5</ele>
        <time>2021-03-24T15:37:08Z</time>
      </trkpt>
      <trkpt lat="46.67801" lon="5.5927">
        <ele>411.9</ele>
        <time>2021-03-24T15:37:15Z</time>
      </trkpt>
      <trkpt lat="46.67801" lon="5.59263">
        <ele>411.1</ele>
        <time>2021-03-24T15:37:20Z</time>
      </trkpt>
      <trkpt lat="46.67801" lon="5.59256">
        <ele>410.2</ele>
        <time>2021-03-24T15:37:27Z</time>
      </trkpt>
      <trkpt lat="46.67799" lon="5.59249">
        <ele>409.2</ele>
        <time>2021-03-24T15:37:37Z</time>
      </trkpt>
      <trkpt lat="46.67799" lon="5.59242">
        <ele>407.5</ele>
        <time>2021-03-24T15:37:45Z</time>
      </trkpt>
      <trkpt lat="46.678" lon="5.59234">
        <ele>405.9</ele>
        <time>2021-03-24T15:37:51Z</time>
      </trkpt>
      <trkpt lat="46.678" lon="5.59227">
        <ele>403.6</ele>
        <time>2021-03-24T15:37:59Z</time>
      </trkpt>
      <trkpt lat="46.67799" lon="5.5922">
        <ele>402</ele>
        <time>2021-03-24T15:38:05Z</time>
      </trkpt>
      <trkpt lat="46.67799" lon="5.59212">
        <ele>400.9</ele>
        <time>2021-03-24T15:38:10Z</time>
      </trkpt>
      <trkpt lat="46.67799" lon="5.59205">
        <ele>400.1</ele>
        <time>2021-03-24T15:38:15Z</time>
      </trkpt>
      <trkpt lat="46.67799" lon="5.59198">
        <ele>399</ele>
        <time>2021-03-24T15:38:21Z</time>
      </trkpt>
      <trkpt lat="46.67797" lon="5.59191">
        <ele>398</ele>
        <time>2021-03-24T15:38:26Z</time>
      </trkpt>
      <trkpt lat="46.67795" lon="5.59185">
        <ele>397.2</ele>
        <time>2021-03-24T15:38:31Z</time>
      </trkpt>
      <trkpt lat="46.67793" lon="5.59178">
        <ele>396.6</ele>
        <time>2021-03-24T15:38:36Z</time>
      </trkpt>
      <trkpt lat="46.67792" lon="5.59171">
        <ele>395.7</ele>
        <time>2021-03-24T15:38:41Z</time>
      </trkpt>
      <trkpt lat="46.67789" lon="5.59164">
        <ele>394.8</ele>
        <time>2021-03-24T15:38:46Z</time>
      </trkpt>
      <trkpt lat="46.67787" lon="5.59158">
        <ele>394</ele>
        <time>2021-03-24T15:38:51Z</time>
      </trkpt>
      <trkpt lat="46.67785" lon="5.59152">
        <ele>393.2</ele>
        <time>2021-03-24T15:38:56Z</time>
      </trkpt>
      <trkpt lat="46.67782" lon="5.59145">
        <ele>392.3</ele>
        <time>2021-03-24T15:39:03Z</time>
      </trkpt>
      <trkpt lat="46.6778" lon="5.59137">
        <ele>391.8</ele>
        <time>2021-03-24T15:39:08Z</time>
      </trkpt>
      <trkpt lat="46.67779" lon="5.5913">
        <ele>391.2</ele>
        <time>2021-03-24T15:39:13Z</time>
      </trkpt>
      <trkpt lat="46.67777" lon="5.59122">
        <ele>390.3</ele>
        <time>2021-03-24T15:39:18Z</time>
      </trkpt>
      <trkpt lat="46.67776" lon="5.59114">
        <ele>390</ele>
        <time>2021-03-24T15:39:23Z</time>
      </trkpt>
      <trkpt lat="46.67776" lon="5.59107">
        <ele>389.5</ele>
        <time>2021-03-24T15:39:28Z</time>
      </trkpt>
      <trkpt lat="46.67776" lon="5.591">
        <ele>388.8</ele>
        <time>2021-03-24T15:39:33Z</time>
      </trkpt>
      <trkpt lat="46.67774" lon="5.59093">
        <ele>388.1</ele>
        <time>2021-03-24T15:39:38Z</time>
      </trkpt>
      <trkpt lat="46.67773" lon="5.59086">
        <ele>387.2</ele>
        <time>2021-03-24T15:39:44Z</time>
      </trkpt>
      <trkpt lat="46.67772" lon="5.59079">
        <ele>386.7</ele>
        <time>2021-03-24T15:39:49Z</time>
      </trkpt>
      <trkpt lat="46.67772" lon="5.59072">
        <ele>387</ele>
        <time>2021-03-24T15:39:54Z</time>
      </trkpt>
      <trkpt lat="46.67767" lon="5.59071">
        <ele>389.1</ele>
        <time>2021-03-24T15:40:56Z</time>
      </trkpt>
      <trkpt lat="46.67763" lon="5.59068">
        <ele>389.3</ele>
        <time>2021-03-24T15:41:05Z</time>
      </trkpt>
      <trkpt lat="46.67758" lon="5.59067">
        <ele>389.2</ele>
        <time>2021-03-24T15:41:10Z</time>
      </trkpt>
      <trkpt lat="46.67754" lon="5.59065">
        <ele>389</ele>
        <time>2021-03-24T15:41:14Z</time>
      </trkpt>
      <trkpt lat="46.67749" lon="5.59063">
        <ele>388.9</ele>
        <time>2021-03-24T15:41:18Z</time>
      </trkpt>
      <trkpt lat="46.67744" lon="5.59062">
        <ele>388.7</ele>
        <time>2021-03-24T15:41:23Z</time>
      </trkpt>
      <trkpt lat="46.6774" lon="5.59058">
        <ele>388.5</ele>
        <time>2021-03-24T15:41:28Z</time>
      </trkpt>
      <trkpt lat="46.67735" lon="5.59054">
        <ele>388.3</ele>
        <time>2021-03-24T15:41:33Z</time>
      </trkpt>
      <trkpt lat="46.6773" lon="5.59053">
        <ele>388.2</ele>
        <time>2021-03-24T15:41:38Z</time>
      </trkpt>
      <trkpt lat="46.67726" lon="5.59051">
        <ele>388.2</ele>
        <time>2021-03-24T15:41:43Z</time>
      </trkpt>
      <trkpt lat="46.67722" lon="5.59049">
        <ele>387.9</ele>
        <time>2021-03-24T15:41:47Z</time>
      </trkpt>
      <trkpt lat="46.67717" lon="5.59045">
        <ele>387.4</ele>
        <time>2021-03-24T15:41:52Z</time>
      </trkpt>
      <trkpt lat="46.67714" lon="5.59041">
        <ele>387</ele>
        <time>2021-03-24T15:41:56Z</time>
      </trkpt>
      <trkpt lat="46.67709" lon="5.59038">
        <ele>386.4</ele>
        <time>2021-03-24T15:42:01Z</time>
      </trkpt>
      <trkpt lat="46.67705" lon="5.59034">
        <ele>385.9</ele>
        <time>2021-03-24T15:42:06Z</time>
      </trkpt>
      <trkpt lat="46.67701" lon="5.5903">
        <ele>385.4</ele>
        <time>2021-03-24T15:42:10Z</time>
      </trkpt>
      <trkpt lat="46.67697" lon="5.59025">
        <ele>385.2</ele>
        <time>2021-03-24T15:42:14Z</time>
      </trkpt>
      <trkpt lat="46.67693" lon="5.59021">
        <ele>385.1</ele>
        <time>2021-03-24T15:42:18Z</time>
      </trkpt>
      <trkpt lat="46.67689" lon="5.59018">
        <ele>384.9</ele>
        <time>2021-03-24T15:42:23Z</time>
      </trkpt>
      <trkpt lat="46.67685" lon="5.59014">
        <ele>384.9</ele>
        <time>2021-03-24T15:42:28Z</time>
      </trkpt>
      <trkpt lat="46.6768" lon="5.59011">
        <ele>384.1</ele>
        <time>2021-03-24T15:42:34Z</time>
      </trkpt>
      <trkpt lat="46.67676" lon="5.59007">
        <ele>382.8</ele>
        <time>2021-03-24T15:42:40Z</time>
      </trkpt>
      <trkpt lat="46.67671" lon="5.59003">
        <ele>382.2</ele>
        <time>2021-03-24T15:42:45Z</time>
      </trkpt>
      <trkpt lat="46.67667" lon="5.59">
        <ele>381.6</ele>
        <time>2021-03-24T15:42:50Z</time>
      </trkpt>
      <trkpt lat="46.67661" lon="5.58998">
        <ele>381</ele>
        <time>2021-03-24T15:42:55Z</time>
      </trkpt>
      <trkpt lat="46.67657" lon="5.58997">
        <ele>380.6</ele>
        <time>2021-03-24T15:42:59Z</time>
      </trkpt>
      <trkpt lat="46.67652" lon="5.58995">
        <ele>380.1</ele>
        <time>2021-03-24T15:43:04Z</time>
      </trkpt>
      <trkpt lat="46.67647" lon="5.58994">
        <ele>379.3</ele>
        <time>2021-03-24T15:43:10Z</time>
      </trkpt>
      <trkpt lat="46.67642" lon="5.58993">
        <ele>378.7</ele>
        <time>2021-03-24T15:43:15Z</time>
      </trkpt>
      <trkpt lat="46.67636" lon="5.58993">
        <ele>378.3</ele>
        <time>2021-03-24T15:43:20Z</time>
      </trkpt>
      <trkpt lat="46.67631" lon="5.58994">
        <ele>378.3</ele>
        <time>2021-03-24T15:43:24Z</time>
      </trkpt>
      <trkpt lat="46.67627" lon="5.58994">
        <ele>378.4</ele>
        <time>2021-03-24T15:43:28Z</time>
      </trkpt>
      <trkpt lat="46.67622" lon="5.58995">
        <ele>378.2</ele>
        <time>2021-03-24T15:43:32Z</time>
      </trkpt>
      <trkpt lat="46.67617" lon="5.58995">
        <ele>378.1</ele>
        <time>2021-03-24T15:43:37Z</time>
      </trkpt>
      <trkpt lat="46.67611" lon="5.58995">
        <ele>377.9</ele>
        <time>2021-03-24T15:43:42Z</time>
      </trkpt>
      <trkpt lat="46.67606" lon="5.58993">
        <ele>377.3</ele>
        <time>2021-03-24T15:43:47Z</time>
      </trkpt>
      <trkpt lat="46.67601" lon="5.58993">
        <ele>377</ele>
        <time>2021-03-24T15:43:51Z</time>
      </trkpt>
      <trkpt lat="46.67596" lon="5.58993">
        <ele>377</ele>
        <time>2021-03-24T15:43:55Z</time>
      </trkpt>
      <trkpt lat="46.67592" lon="5.58993">
        <ele>377.2</ele>
        <time>2021-03-24T15:44:00Z</time>
      </trkpt>
      <trkpt lat="46.67587" lon="5.5899">
        <ele>377.4</ele>
        <time>2021-03-24T15:44:06Z</time>
      </trkpt>
      <trkpt lat="46.67582" lon="5.58989">
        <ele>377.5</ele>
        <time>2021-03-24T15:44:11Z</time>
      </trkpt>
      <trkpt lat="46.67577" lon="5.58987">
        <ele>377.6</ele>
        <time>2021-03-24T15:44:17Z</time>
      </trkpt>
      <trkpt lat="46.67572" lon="5.58987">
        <ele>377.7</ele>
        <time>2021-03-24T15:44:22Z</time>
      </trkpt>
      <trkpt lat="46.67566" lon="5.58987">
        <ele>377.7</ele>
        <time>2021-03-24T15:44:26Z</time>
      </trkpt>
      <trkpt lat="46.67561" lon="5.58987">
        <ele>377.6</ele>
        <time>2021-03-24T15:44:30Z</time>
      </trkpt>
      <trkpt lat="46.67556" lon="5.58985">
        <ele>377.6</ele>
        <time>2021-03-24T15:44:34Z</time>
      </trkpt>
      <trkpt lat="46.67552" lon="5.58985">
        <ele>377.7</ele>
        <time>2021-03-24T15:44:39Z</time>
      </trkpt>
      <trkpt lat="46.67547" lon="5.58985">
        <ele>377.8</ele>
        <time>2021-03-24T15:44:45Z</time>
      </trkpt>
      <trkpt lat="46.67542" lon="5.58983">
        <ele>377.8</ele>
        <time>2021-03-24T15:44:50Z</time>
      </trkpt>
      <trkpt lat="46.67537" lon="5.58982">
        <ele>378</ele>
        <time>2021-03-24T15:44:54Z</time>
      </trkpt>
      <trkpt lat="46.67532" lon="5.58981">
        <ele>378.1</ele>
        <time>2021-03-24T15:44:58Z</time>
      </trkpt>
      <trkpt lat="46.67527" lon="5.5898">
        <ele>378.3</ele>
        <time>2021-03-24T15:45:02Z</time>
      </trkpt>
      <trkpt lat="46.67522" lon="5.58978">
        <ele>378.5</ele>
        <time>2021-03-24T15:45:08Z</time>
      </trkpt>
      <trkpt lat="46.67518" lon="5.58976">
        <ele>378.5</ele>
        <time>2021-03-24T15:45:13Z</time>
      </trkpt>
      <trkpt lat="46.67513" lon="5.58975">
        <ele>378.7</ele>
        <time>2021-03-24T15:45:18Z</time>
      </trkpt>
      <trkpt lat="46.67507" lon="5.58975">
        <ele>378.7</ele>
        <time>2021-03-24T15:45:23Z</time>
      </trkpt>
      <trkpt lat="46.67502" lon="5.58973">
        <ele>378.6</ele>
        <time>2021-03-24T15:45:28Z</time>
      </trkpt>
      <trkpt lat="46.67497" lon="5.58971">
        <ele>378.5</ele>
        <time>2021-03-24T15:45:33Z</time>
      </trkpt>
      <trkpt lat="46.67492" lon="5.5897">
        <ele>378.1</ele>
        <time>2021-03-24T15:45:38Z</time>
      </trkpt>
      <trkpt lat="46.67487" lon="5.58969">
        <ele>377.5</ele>
        <time>2021-03-24T15:45:43Z</time>
      </trkpt>
      <trkpt lat="46.67482" lon="5.58967">
        <ele>376.5</ele>
        <time>2021-03-24T15:45:48Z</time>
      </trkpt>
      <trkpt lat="46.67477" lon="5.58965">
        <ele>375.3</ele>
        <time>2021-03-24T15:45:53Z</time>
      </trkpt>
      <trkpt lat="46.67473" lon="5.58964">
        <ele>374.5</ele>
        <time>2021-03-24T15:45:57Z</time>
      </trkpt>
      <trkpt lat="46.67468" lon="5.58963">
        <ele>373.7</ele>
        <time>2021-03-24T15:46:01Z</time>
      </trkpt>
      <trkpt lat="46.67463" lon="5.58961">
        <ele>372.9</ele>
        <time>2021-03-24T15:46:06Z</time>
      </trkpt>
      <trkpt lat="46.67458" lon="5.58958">
        <ele>372.7</ele>
        <time>2021-03-24T15:46:10Z</time>
      </trkpt>
      <trkpt lat="46.67455" lon="5.58954">
        <ele>372.5</ele>
        <time>2021-03-24T15:46:14Z</time>
      </trkpt>
      <trkpt lat="46.6745" lon="5.58946">
        <ele>374.6</ele>
        <time>2021-03-24T15:46:18Z</time>
      </trkpt>
      <trkpt lat="46.67445" lon="5.58942">
        <ele>375.6</ele>
        <time>2021-03-24T15:46:23Z</time>
      </trkpt>
      <trkpt lat="46.67442" lon="5.58937">
        <ele>376.2</ele>
        <time>2021-03-24T15:46:29Z</time>
      </trkpt>
      <trkpt lat="46.67438" lon="5.58932">
        <ele>376.3</ele>
        <time>2021-03-24T15:46:34Z</time>
      </trkpt>
      <trkpt lat="46.67434" lon="5.58928">
        <ele>376.3</ele>
        <time>2021-03-24T15:46:38Z</time>
      </trkpt>
      <trkpt lat="46.6743" lon="5.58923">
        <ele>376.4</ele>
        <time>2021-03-24T15:46:42Z</time>
      </trkpt>
      <trkpt lat="46.67426" lon="5.58917">
        <ele>376.3</ele>
        <time>2021-03-24T15:46:47Z</time>
      </trkpt>
      <trkpt lat="46.67422" lon="5.58913">
        <ele>375.9</ele>
        <time>2021-03-24T15:46:52Z</time>
      </trkpt>
      <trkpt lat="46.67417" lon="5.58911">
        <ele>375.6</ele>
        <time>2021-03-24T15:46:58Z</time>
      </trkpt>
      <trkpt lat="46.67412" lon="5.58908">
        <ele>375.3</ele>
        <time>2021-03-24T15:47:03Z</time>
      </trkpt>
      <trkpt lat="46.67406" lon="5.58908">
        <ele>375</ele>
        <time>2021-03-24T15:47:08Z</time>
      </trkpt>
      <trkpt lat="46.67402" lon="5.58907">
        <ele>375</ele>
        <time>2021-03-24T15:47:12Z</time>
      </trkpt>
      <trkpt lat="46.67397" lon="5.58907">
        <ele>375.1</ele>
        <time>2021-03-24T15:47:16Z</time>
      </trkpt>
      <trkpt lat="46.67392" lon="5.58907">
        <ele>375.3</ele>
        <time>2021-03-24T15:47:21Z</time>
      </trkpt>
      <trkpt lat="46.67387" lon="5.58907">
        <ele>375.6</ele>
        <time>2021-03-24T15:47:26Z</time>
      </trkpt>
      <trkpt lat="46.67382" lon="5.58906">
        <ele>376</ele>
        <time>2021-03-24T15:47:31Z</time>
      </trkpt>
      <trkpt lat="46.67377" lon="5.58906">
        <ele>376.3</ele>
        <time>2021-03-24T15:47:36Z</time>
      </trkpt>
      <trkpt lat="46.67373" lon="5.58906">
        <ele>376.4</ele>
        <time>2021-03-24T15:47:40Z</time>
      </trkpt>
      <trkpt lat="46.67368" lon="5.58904">
        <ele>376.6</ele>
        <time>2021-03-24T15:47:44Z</time>
      </trkpt>
      <trkpt lat="46.67363" lon="5.58903">
        <ele>376.6</ele>
        <time>2021-03-24T15:47:49Z</time>
      </trkpt>
      <trkpt lat="46.67358" lon="5.58901">
        <ele>377</ele>
        <time>2021-03-24T15:47:53Z</time>
      </trkpt>
      <trkpt lat="46.67353" lon="5.589">
        <ele>377.8</ele>
        <time>2021-03-24T15:47:57Z</time>
      </trkpt>
      <trkpt lat="46.67348" lon="5.589">
        <ele>378.5</ele>
        <time>2021-03-24T15:48:02Z</time>
      </trkpt>
      <trkpt lat="46.67343" lon="5.589">
        <ele>379.1</ele>
        <time>2021-03-24T15:48:06Z</time>
      </trkpt>
      <trkpt lat="46.67339" lon="5.589">
        <ele>379.5</ele>
        <time>2021-03-24T15:48:11Z</time>
      </trkpt>
      <trkpt lat="46.67333" lon="5.58901">
        <ele>379.7</ele>
        <time>2021-03-24T15:48:16Z</time>
      </trkpt>
      <trkpt lat="46.67328" lon="5.58901">
        <ele>379.7</ele>
        <time>2021-03-24T15:48:20Z</time>
      </trkpt>
      <trkpt lat="46.67322" lon="5.58902">
        <ele>379.5</ele>
        <time>2021-03-24T15:48:24Z</time>
      </trkpt>
      <trkpt lat="46.67316" lon="5.58902">
        <ele>379.1</ele>
        <time>2021-03-24T15:48:29Z</time>
      </trkpt>
      <trkpt lat="46.67311" lon="5.58901">
        <ele>378.9</ele>
        <time>2021-03-24T15:48:34Z</time>
      </trkpt>
      <trkpt lat="46.67306" lon="5.58899">
        <ele>379.1</ele>
        <time>2021-03-24T15:48:40Z</time>
      </trkpt>
      <trkpt lat="46.67302" lon="5.58898">
        <ele>379.5</ele>
        <time>2021-03-24T15:48:44Z</time>
      </trkpt>
      <trkpt lat="46.67296" lon="5.58897">
        <ele>379.9</ele>
        <time>2021-03-24T15:48:49Z</time>
      </trkpt>
      <trkpt lat="46.67292" lon="5.58896">
        <ele>380</ele>
        <time>2021-03-24T15:48:53Z</time>
      </trkpt>
      <trkpt lat="46.67287" lon="5.58894">
        <ele>379.8</ele>
        <time>2021-03-24T15:49:04Z</time>
      </trkpt>
      <trkpt lat="46.67283" lon="5.58892">
        <ele>379.4</ele>
        <time>2021-03-24T15:49:09Z</time>
      </trkpt>
      <trkpt lat="46.67278" lon="5.58889">
        <ele>378.6</ele>
        <time>2021-03-24T15:49:15Z</time>
      </trkpt>
      <trkpt lat="46.67273" lon="5.58885">
        <ele>378.1</ele>
        <time>2021-03-24T15:49:21Z</time>
      </trkpt>
      <trkpt lat="46.67269" lon="5.58882">
        <ele>377.5</ele>
        <time>2021-03-24T15:49:26Z</time>
      </trkpt>
      <trkpt lat="46.67264" lon="5.58879">
        <ele>376.9</ele>
        <time>2021-03-24T15:49:32Z</time>
      </trkpt>
      <trkpt lat="46.67259" lon="5.58877">
        <ele>376.1</ele>
        <time>2021-03-24T15:49:37Z</time>
      </trkpt>
      <trkpt lat="46.67254" lon="5.58874">
        <ele>375.2</ele>
        <time>2021-03-24T15:49:42Z</time>
      </trkpt>
      <trkpt lat="46.67249" lon="5.58873">
        <ele>374.5</ele>
        <time>2021-03-24T15:49:47Z</time>
      </trkpt>
      <trkpt lat="46.67244" lon="5.58871">
        <ele>373.9</ele>
        <time>2021-03-24T15:49:52Z</time>
      </trkpt>
      <trkpt lat="46.67239" lon="5.58868">
        <ele>373.1</ele>
        <time>2021-03-24T15:49:57Z</time>
      </trkpt>
      <trkpt lat="46.67235" lon="5.58867">
        <ele>372.6</ele>
        <time>2021-03-24T15:50:01Z</time>
      </trkpt>
      <trkpt lat="46.6723" lon="5.58865">
        <ele>372.3</ele>
        <time>2021-03-24T15:50:06Z</time>
      </trkpt>
      <trkpt lat="46.67226" lon="5.58862">
        <ele>371.9</ele>
        <time>2021-03-24T15:50:11Z</time>
      </trkpt>
      <trkpt lat="46.67222" lon="5.5886">
        <ele>371.5</ele>
        <time>2021-03-24T15:50:15Z</time>
      </trkpt>
      <trkpt lat="46.67217" lon="5.58859">
        <ele>371</ele>
        <time>2021-03-24T15:50:20Z</time>
      </trkpt>
      <trkpt lat="46.67213" lon="5.58857">
        <ele>370.3</ele>
        <time>2021-03-24T15:50:26Z</time>
      </trkpt>
      <trkpt lat="46.67208" lon="5.58855">
        <ele>370</ele>
        <time>2021-03-24T15:50:31Z</time>
      </trkpt>
      <trkpt lat="46.67203" lon="5.58854">
        <ele>369.9</ele>
        <time>2021-03-24T15:50:36Z</time>
      </trkpt>
      <trkpt lat="46.67198" lon="5.58852">
        <ele>369.8</ele>
        <time>2021-03-24T15:50:41Z</time>
      </trkpt>
      <trkpt lat="46.67194" lon="5.5885">
        <ele>369.4</ele>
        <time>2021-03-24T15:50:47Z</time>
      </trkpt>
      <trkpt lat="46.67188" lon="5.58847">
        <ele>368.7</ele>
        <time>2021-03-24T15:50:52Z</time>
      </trkpt>
      <trkpt lat="46.67183" lon="5.58846">
        <ele>368</ele>
        <time>2021-03-24T15:50:56Z</time>
      </trkpt>
      <trkpt lat="46.67178" lon="5.58845">
        <ele>367</ele>
        <time>2021-03-24T15:51:01Z</time>
      </trkpt>
      <trkpt lat="46.67173" lon="5.58842">
        <ele>366</ele>
        <time>2021-03-24T15:51:06Z</time>
      </trkpt>
      <trkpt lat="46.67169" lon="5.58839">
        <ele>364.8</ele>
        <time>2021-03-24T15:51:11Z</time>
      </trkpt>
      <trkpt lat="46.67164" lon="5.58836">
        <ele>363.4</ele>
        <time>2021-03-24T15:51:17Z</time>
      </trkpt>
      <trkpt lat="46.67159" lon="5.58834">
        <ele>362.6</ele>
        <time>2021-03-24T15:51:22Z</time>
      </trkpt>
      <trkpt lat="46.67154" lon="5.58831">
        <ele>362.5</ele>
        <time>2021-03-24T15:51:26Z</time>
      </trkpt>
      <trkpt lat="46.67149" lon="5.5883">
        <ele>362.3</ele>
        <time>2021-03-24T15:51:30Z</time>
      </trkpt>
      <trkpt lat="46.67145" lon="5.58828">
        <ele>362.4</ele>
        <time>2021-03-24T15:51:34Z</time>
      </trkpt>
      <trkpt lat="46.67139" lon="5.58827">
        <ele>362.7</ele>
        <time>2021-03-24T15:51:39Z</time>
      </trkpt>
      <trkpt lat="46.67135" lon="5.58826">
        <ele>363</ele>
        <time>2021-03-24T15:51:43Z</time>
      </trkpt>
      <trkpt lat="46.6713" lon="5.58826">
        <ele>363.6</ele>
        <time>2021-03-24T15:51:48Z</time>
      </trkpt>
      <trkpt lat="46.67125" lon="5.58825">
        <ele>364</ele>
        <time>2021-03-24T15:51:54Z</time>
      </trkpt>
      <trkpt lat="46.67119" lon="5.58823">
        <ele>364.1</ele>
        <time>2021-03-24T15:51:59Z</time>
      </trkpt>
      <trkpt lat="46.67115" lon="5.58823">
        <ele>364.3</ele>
        <time>2021-03-24T15:52:03Z</time>
      </trkpt>
      <trkpt lat="46.6711" lon="5.58824">
        <ele>364.6</ele>
        <time>2021-03-24T15:52:07Z</time>
      </trkpt>
      <trkpt lat="46.67105" lon="5.58824">
        <ele>365</ele>
        <time>2021-03-24T15:52:11Z</time>
      </trkpt>
      <trkpt lat="46.67099" lon="5.58824">
        <ele>365.4</ele>
        <time>2021-03-24T15:52:16Z</time>
      </trkpt>
      <trkpt lat="46.67094" lon="5.58824">
        <ele>365.3</ele>
        <time>2021-03-24T15:52:21Z</time>
      </trkpt>
      <trkpt lat="46.6709" lon="5.58825">
        <ele>365</ele>
        <time>2021-03-24T15:52:25Z</time>
      </trkpt>
      <trkpt lat="46.67085" lon="5.58826">
        <ele>364.6</ele>
        <time>2021-03-24T15:52:29Z</time>
      </trkpt>
      <trkpt lat="46.67081" lon="5.58826">
        <ele>364</ele>
        <time>2021-03-24T15:52:34Z</time>
      </trkpt>
      <trkpt lat="46.67076" lon="5.58826">
        <ele>363.4</ele>
        <time>2021-03-24T15:52:39Z</time>
      </trkpt>
      <trkpt lat="46.67071" lon="5.58825">
        <ele>362.9</ele>
        <time>2021-03-24T15:52:45Z</time>
      </trkpt>
      <trkpt lat="46.67066" lon="5.58826">
        <ele>363</ele>
        <time>2021-03-24T15:52:50Z</time>
      </trkpt>
      <trkpt lat="46.67061" lon="5.58827">
        <ele>363.2</ele>
        <time>2021-03-24T15:52:55Z</time>
      </trkpt>
      <trkpt lat="46.67056" lon="5.58829">
        <ele>363.3</ele>
        <time>2021-03-24T15:53:00Z</time>
      </trkpt>
      <trkpt lat="46.67051" lon="5.58829">
        <ele>363.2</ele>
        <time>2021-03-24T15:53:04Z</time>
      </trkpt>
      <trkpt lat="46.67046" lon="5.58831">
        <ele>363.1</ele>
        <time>2021-03-24T15:53:08Z</time>
      </trkpt>
      <trkpt lat="46.67042" lon="5.58832">
        <ele>363</ele>
        <time>2021-03-24T15:53:12Z</time>
      </trkpt>
      <trkpt lat="46.67037" lon="5.58834">
        <ele>363</ele>
        <time>2021-03-24T15:53:17Z</time>
      </trkpt>
      <trkpt lat="46.67032" lon="5.58838">
        <ele>363</ele>
        <time>2021-03-24T15:53:24Z</time>
      </trkpt>
      <trkpt lat="46.67029" lon="5.58845">
        <ele>362.5</ele>
        <time>2021-03-24T15:53:41Z</time>
      </trkpt>
      <trkpt lat="46.67032" lon="5.58851">
        <ele>364.4</ele>
        <time>2021-03-24T15:54:25Z</time>
      </trkpt>
      <trkpt lat="46.67033" lon="5.58858">
        <ele>365.4</ele>
        <time>2021-03-24T15:54:31Z</time>
      </trkpt>
      <trkpt lat="46.67034" lon="5.58865">
        <ele>365.6</ele>
        <time>2021-03-24T15:54:36Z</time>
      </trkpt>
      <trkpt lat="46.67037" lon="5.58869">
        <ele>366.1</ele>
        <time>2021-03-24T15:54:40Z</time>
      </trkpt>
      <trkpt lat="46.67039" lon="5.58876">
        <ele>367.1</ele>
        <time>2021-03-24T15:54:46Z</time>
      </trkpt>
      <trkpt lat="46.67043" lon="5.5888">
        <ele>368.1</ele>
        <time>2021-03-24T15:54:50Z</time>
      </trkpt>
      <trkpt lat="46.67046" lon="5.58884">
        <ele>369.9</ele>
        <time>2021-03-24T15:54:55Z</time>
      </trkpt>
      <trkpt lat="46.67048" lon="5.58892">
        <ele>372.1</ele>
        <time>2021-03-24T15:55:01Z</time>
      </trkpt>
      <trkpt lat="46.6705" lon="5.58898">
        <ele>374.2</ele>
        <time>2021-03-24T15:55:07Z</time>
      </trkpt>
      <trkpt lat="46.67052" lon="5.58904">
        <ele>376.7</ele>
        <time>2021-03-24T15:55:14Z</time>
      </trkpt>
      <trkpt lat="46.67053" lon="5.5891">
        <ele>378.8</ele>
        <time>2021-03-24T15:55:21Z</time>
      </trkpt>
      <trkpt lat="46.67054" lon="5.58917">
        <ele>380.7</ele>
        <time>2021-03-24T15:55:29Z</time>
      </trkpt>
      <trkpt lat="46.67054" lon="5.58924">
        <ele>382.3</ele>
        <time>2021-03-24T15:55:36Z</time>
      </trkpt>
      <trkpt lat="46.67057" lon="5.5893">
        <ele>383.3</ele>
        <time>2021-03-24T15:55:41Z</time>
      </trkpt>
      <trkpt lat="46.6706" lon="5.58936">
        <ele>384.7</ele>
        <time>2021-03-24T15:55:47Z</time>
      </trkpt>
      <trkpt lat="46.67064" lon="5.58942">
        <ele>386.1</ele>
        <time>2021-03-24T15:55:53Z</time>
      </trkpt>
      <trkpt lat="46.67066" lon="5.58947">
        <ele>387.3</ele>
        <time>2021-03-24T15:56:00Z</time>
      </trkpt>
      <trkpt lat="46.67065" lon="5.58954">
        <ele>388.5</ele>
        <time>2021-03-24T15:56:08Z</time>
      </trkpt>
      <trkpt lat="46.67067" lon="5.5896">
        <ele>389.3</ele>
        <time>2021-03-24T15:56:15Z</time>
      </trkpt>
      <trkpt lat="46.6707" lon="5.58966">
        <ele>390.2</ele>
        <time>2021-03-24T15:56:22Z</time>
      </trkpt>
      <trkpt lat="46.67073" lon="5.58972">
        <ele>391.1</ele>
        <time>2021-03-24T15:56:28Z</time>
      </trkpt>
      <trkpt lat="46.67076" lon="5.58978">
        <ele>391.9</ele>
        <time>2021-03-24T15:56:34Z</time>
      </trkpt>
      <trkpt lat="46.67079" lon="5.58984">
        <ele>392.7</ele>
        <time>2021-03-24T15:56:41Z</time>
      </trkpt>
      <trkpt lat="46.67081" lon="5.58989">
        <ele>393.3</ele>
        <time>2021-03-24T15:56:47Z</time>
      </trkpt>
      <trkpt lat="46.67083" lon="5.58996">
        <ele>394.2</ele>
        <time>2021-03-24T15:56:53Z</time>
      </trkpt>
      <trkpt lat="46.67085" lon="5.59003">
        <ele>394.9</ele>
        <time>2021-03-24T15:57:00Z</time>
      </trkpt>
      <trkpt lat="46.67087" lon="5.5901">
        <ele>395.4</ele>
        <time>2021-03-24T15:57:09Z</time>
      </trkpt>
      <trkpt lat="46.67087" lon="5.59016">
        <ele>395.9</ele>
        <time>2021-03-24T15:57:16Z</time>
      </trkpt>
      <trkpt lat="46.67088" lon="5.59022">
        <ele>395.9</ele>
        <time>2021-03-24T15:57:23Z</time>
      </trkpt>
      <trkpt lat="46.6709" lon="5.5903">
        <ele>395.7</ele>
        <time>2021-03-24T15:57:30Z</time>
      </trkpt>
      <trkpt lat="46.67092" lon="5.59036">
        <ele>395.4</ele>
        <time>2021-03-24T15:57:39Z</time>
      </trkpt>
      <trkpt lat="46.67097" lon="5.5904">
        <ele>394.7</ele>
        <time>2021-03-24T15:58:25Z</time>
      </trkpt>
      <trkpt lat="46.67099" lon="5.59047">
        <ele>394.8</ele>
        <time>2021-03-24T15:58:29Z</time>
      </trkpt>
      <trkpt lat="46.67098" lon="5.59053">
        <ele>395.2</ele>
        <time>2021-03-24T15:58:36Z</time>
      </trkpt>
      <trkpt lat="46.67099" lon="5.5906">
        <ele>395.8</ele>
        <time>2021-03-24T15:58:46Z</time>
      </trkpt>
      <trkpt lat="46.67102" lon="5.59066">
        <ele>396.1</ele>
        <time>2021-03-24T15:58:54Z</time>
      </trkpt>
      <trkpt lat="46.67104" lon="5.59072">
        <ele>396.4</ele>
        <time>2021-03-24T15:59:01Z</time>
      </trkpt>
      <trkpt lat="46.67106" lon="5.59077">
        <ele>396.6</ele>
        <time>2021-03-24T15:59:08Z</time>
      </trkpt>
      <trkpt lat="46.67109" lon="5.59083">
        <ele>397.2</ele>
        <time>2021-03-24T15:59:15Z</time>
      </trkpt>
      <trkpt lat="46.67111" lon="5.59089">
        <ele>397.9</ele>
        <time>2021-03-24T15:59:22Z</time>
      </trkpt>
      <trkpt lat="46.67113" lon="5.59096">
        <ele>398.5</ele>
        <time>2021-03-24T15:59:30Z</time>
      </trkpt>
      <trkpt lat="46.67116" lon="5.59101">
        <ele>399.1</ele>
        <time>2021-03-24T15:59:35Z</time>
      </trkpt>
      <trkpt lat="46.67117" lon="5.59108">
        <ele>399.3</ele>
        <time>2021-03-24T15:59:44Z</time>
      </trkpt>
      <trkpt lat="46.67118" lon="5.59115">
        <ele>399.3</ele>
        <time>2021-03-24T15:59:52Z</time>
      </trkpt>
      <trkpt lat="46.6712" lon="5.59121">
        <ele>399.6</ele>
        <time>2021-03-24T15:59:58Z</time>
      </trkpt>
      <trkpt lat="46.67121" lon="5.59128">
        <ele>400.1</ele>
        <time>2021-03-24T16:00:04Z</time>
      </trkpt>
      <trkpt lat="46.67124" lon="5.59135">
        <ele>401.4</ele>
        <time>2021-03-24T16:00:14Z</time>
      </trkpt>
      <trkpt lat="46.67126" lon="5.59141">
        <ele>402.4</ele>
        <time>2021-03-24T16:00:20Z</time>
      </trkpt>
      <trkpt lat="46.6713" lon="5.59146">
        <ele>403.3</ele>
        <time>2021-03-24T16:00:26Z</time>
      </trkpt>
      <trkpt lat="46.67133" lon="5.59151">
        <ele>404.5</ele>
        <time>2021-03-24T16:00:35Z</time>
      </trkpt>
      <trkpt lat="46.67137" lon="5.59155">
        <ele>405.6</ele>
        <time>2021-03-24T16:00:42Z</time>
      </trkpt>
      <trkpt lat="46.67139" lon="5.59161">
        <ele>406.5</ele>
        <time>2021-03-24T16:00:49Z</time>
      </trkpt>
      <trkpt lat="46.67143" lon="5.59167">
        <ele>407.7</ele>
        <time>2021-03-24T16:00:59Z</time>
      </trkpt>
      <trkpt lat="46.67145" lon="5.59172">
        <ele>409</ele>
        <time>2021-03-24T16:01:08Z</time>
      </trkpt>
      <trkpt lat="46.67149" lon="5.59179">
        <ele>409.8</ele>
        <time>2021-03-24T16:01:16Z</time>
      </trkpt>
      <trkpt lat="46.67152" lon="5.59183">
        <ele>410.2</ele>
        <time>2021-03-24T16:01:21Z</time>
      </trkpt>
      <trkpt lat="46.67154" lon="5.59189">
        <ele>410.7</ele>
        <time>2021-03-24T16:01:29Z</time>
      </trkpt>
      <trkpt lat="46.67156" lon="5.59196">
        <ele>412.1</ele>
        <time>2021-03-24T16:01:41Z</time>
      </trkpt>
      <trkpt lat="46.67158" lon="5.59207">
        <ele>414.2</ele>
        <time>2021-03-24T16:01:58Z</time>
      </trkpt>
      <trkpt lat="46.67161" lon="5.59215">
        <ele>415.3</ele>
        <time>2021-03-24T16:02:02Z</time>
      </trkpt>
      <trkpt lat="46.67165" lon="5.5922">
        <ele>416.7</ele>
        <time>2021-03-24T16:02:07Z</time>
      </trkpt>
      <trkpt lat="46.67169" lon="5.59225">
        <ele>418.2</ele>
        <time>2021-03-24T16:02:13Z</time>
      </trkpt>
      <trkpt lat="46.67172" lon="5.5923">
        <ele>419.4</ele>
        <time>2021-03-24T16:02:21Z</time>
      </trkpt>
      <trkpt lat="46.67173" lon="5.59237">
        <ele>418.9</ele>
        <time>2021-03-24T16:02:30Z</time>
      </trkpt>
      <trkpt lat="46.67176" lon="5.59243">
        <ele>417.9</ele>
        <time>2021-03-24T16:02:40Z</time>
      </trkpt>
      <trkpt lat="46.67176" lon="5.5925">
        <ele>419.4</ele>
        <time>2021-03-24T16:03:00Z</time>
      </trkpt>
      <trkpt lat="46.6718" lon="5.59253">
        <ele>418.9</ele>
        <time>2021-03-24T16:03:14Z</time>
      </trkpt>
      <trkpt lat="46.67179" lon="5.5926">
        <ele>417.9</ele>
        <time>2021-03-24T16:03:46Z</time>
      </trkpt>
      <trkpt lat="46.67184" lon="5.59262">
        <ele>416.6</ele>
        <time>2021-03-24T16:04:01Z</time>
      </trkpt>
      <trkpt lat="46.67188" lon="5.59259">
        <ele>417</ele>
        <time>2021-03-24T16:04:05Z</time>
      </trkpt>
      <trkpt lat="46.67192" lon="5.59248">
        <ele>420.4</ele>
        <time>2021-03-24T16:04:09Z</time>
      </trkpt>
      <trkpt lat="46.67197" lon="5.59249">
        <ele>425.8</ele>
        <time>2021-03-24T16:04:17Z</time>
      </trkpt>
      <trkpt lat="46.67201" lon="5.59253">
        <ele>429.7</ele>
        <time>2021-03-24T16:04:26Z</time>
      </trkpt>
      <trkpt lat="46.67205" lon="5.59257">
        <ele>431.6</ele>
        <time>2021-03-24T16:04:37Z</time>
      </trkpt>
      <trkpt lat="46.6721" lon="5.59259">
        <ele>432.5</ele>
        <time>2021-03-24T16:04:45Z</time>
      </trkpt>
      <trkpt lat="46.67213" lon="5.59263">
        <ele>433.2</ele>
        <time>2021-03-24T16:04:51Z</time>
      </trkpt>
      <trkpt lat="46.67217" lon="5.59269">
        <ele>433.7</ele>
        <time>2021-03-24T16:04:57Z</time>
      </trkpt>
      <trkpt lat="46.67222" lon="5.59273">
        <ele>434.4</ele>
        <time>2021-03-24T16:05:05Z</time>
      </trkpt>
      <trkpt lat="46.67226" lon="5.59276">
        <ele>434.9</ele>
        <time>2021-03-24T16:05:11Z</time>
      </trkpt>
      <trkpt lat="46.67229" lon="5.5928">
        <ele>435.3</ele>
        <time>2021-03-24T16:05:17Z</time>
      </trkpt>
      <trkpt lat="46.67234" lon="5.59283">
        <ele>435.7</ele>
        <time>2021-03-24T16:05:23Z</time>
      </trkpt>
      <trkpt lat="46.67238" lon="5.59286">
        <ele>436.3</ele>
        <time>2021-03-24T16:05:30Z</time>
      </trkpt>
      <trkpt lat="46.67243" lon="5.59287">
        <ele>436.7</ele>
        <time>2021-03-24T16:05:37Z</time>
      </trkpt>
      <trkpt lat="46.67247" lon="5.59291">
        <ele>437.4</ele>
        <time>2021-03-24T16:05:45Z</time>
      </trkpt>
      <trkpt lat="46.67251" lon="5.59294">
        <ele>438.7</ele>
        <time>2021-03-24T16:05:53Z</time>
      </trkpt>
      <trkpt lat="46.67257" lon="5.59298">
        <ele>439.8</ele>
        <time>2021-03-24T16:06:10Z</time>
      </trkpt>
      <trkpt lat="46.67254" lon="5.59283">
        <ele>450.1</ele>
        <time>2021-03-24T16:06:14Z</time>
      </trkpt>
      <trkpt lat="46.67252" lon="5.59275">
        <ele>458.2</ele>
        <time>2021-03-24T16:06:18Z</time>
      </trkpt>
      <trkpt lat="46.67255" lon="5.59282">
        <ele>467.5</ele>
        <time>2021-03-24T16:06:37Z</time>
      </trkpt>
      <trkpt lat="46.67258" lon="5.59287">
        <ele>467.5</ele>
        <time>2021-03-24T16:06:43Z</time>
      </trkpt>
      <trkpt lat="46.67261" lon="5.59292">
        <ele>467.8</ele>
        <time>2021-03-24T16:06:53Z</time>
      </trkpt>
      <trkpt lat="46.67265" lon="5.59296">
        <ele>468.2</ele>
        <time>2021-03-24T16:07:01Z</time>
      </trkpt>
      <trkpt lat="46.6727" lon="5.59297">
        <ele>464.7</ele>
        <time>2021-03-24T16:07:28Z</time>
      </trkpt>
      <trkpt lat="46.67274" lon="5.59299">
        <ele>463.3</ele>
        <time>2021-03-24T16:07:39Z</time>
      </trkpt>
      <trkpt lat="46.67279" lon="5.59303">
        <ele>463.4</ele>
        <time>2021-03-24T16:07:47Z</time>
      </trkpt>
      <trkpt lat="46.67283" lon="5.59306">
        <ele>463.9</ele>
        <time>2021-03-24T16:07:52Z</time>
      </trkpt>
      <trkpt lat="46.67289" lon="5.59311">
        <ele>465</ele>
        <time>2021-03-24T16:08:07Z</time>
      </trkpt>
      <trkpt lat="46.67294" lon="5.59314">
        <ele>465</ele>
        <time>2021-03-24T16:08:12Z</time>
      </trkpt>
      <trkpt lat="46.67299" lon="5.59314">
        <ele>464.7</ele>
        <time>2021-03-24T16:08:19Z</time>
      </trkpt>
      <trkpt lat="46.67304" lon="5.59316">
        <ele>464.4</ele>
        <time>2021-03-24T16:08:28Z</time>
      </trkpt>
      <trkpt lat="46.67309" lon="5.59319">
        <ele>464.2</ele>
        <time>2021-03-24T16:08:33Z</time>
      </trkpt>
      <trkpt lat="46.67315" lon="5.5932">
        <ele>464.1</ele>
        <time>2021-03-24T16:08:38Z</time>
      </trkpt>
      <trkpt lat="46.6732" lon="5.59322">
        <ele>464.1</ele>
        <time>2021-03-24T16:08:42Z</time>
      </trkpt>
      <trkpt lat="46.67339" lon="5.59331">
        <ele>457.8</ele>
        <time>2021-03-24T16:08:46Z</time>
      </trkpt>
      <trkpt lat="46.67345" lon="5.59332">
        <ele>453.9</ele>
        <time>2021-03-24T16:08:50Z</time>
      </trkpt>
      <trkpt lat="46.6735" lon="5.59331">
        <ele>449.5</ele>
        <time>2021-03-24T16:09:08Z</time>
      </trkpt>
      <trkpt lat="46.67355" lon="5.5933">
        <ele>449.4</ele>
        <time>2021-03-24T16:09:16Z</time>
      </trkpt>
      <trkpt lat="46.67359" lon="5.59327">
        <ele>450</ele>
        <time>2021-03-24T16:09:22Z</time>
      </trkpt>
      <trkpt lat="46.67366" lon="5.59313">
        <ele>455.1</ele>
        <time>2021-03-24T16:09:26Z</time>
      </trkpt>
      <trkpt lat="46.67372" lon="5.593">
        <ele>460.9</ele>
        <time>2021-03-24T16:09:30Z</time>
      </trkpt>
      <trkpt lat="46.67376" lon="5.59299">
        <ele>468.2</ele>
        <time>2021-03-24T16:09:39Z</time>
      </trkpt>
      <trkpt lat="46.67382" lon="5.593">
        <ele>469.7</ele>
        <time>2021-03-24T16:09:44Z</time>
      </trkpt>
      <trkpt lat="46.67389" lon="5.59301">
        <ele>470.5</ele>
        <time>2021-03-24T16:09:48Z</time>
      </trkpt>
      <trkpt lat="46.67395" lon="5.593">
        <ele>470.6</ele>
        <time>2021-03-24T16:09:52Z</time>
      </trkpt>
      <trkpt lat="46.674" lon="5.59302">
        <ele>470.1</ele>
        <time>2021-03-24T16:09:57Z</time>
      </trkpt>
      <trkpt lat="46.67405" lon="5.59303">
        <ele>469.7</ele>
        <time>2021-03-24T16:10:01Z</time>
      </trkpt>
      <trkpt lat="46.67409" lon="5.593">
        <ele>468.7</ele>
        <time>2021-03-24T16:10:06Z</time>
      </trkpt>
      <trkpt lat="46.67414" lon="5.59301">
        <ele>467.6</ele>
        <time>2021-03-24T16:10:13Z</time>
      </trkpt>
      <trkpt lat="46.67419" lon="5.59302">
        <ele>466.6</ele>
        <time>2021-03-24T16:10:20Z</time>
      </trkpt>
      <trkpt lat="46.67424" lon="5.59303">
        <ele>465.9</ele>
        <time>2021-03-24T16:10:25Z</time>
      </trkpt>
      <trkpt lat="46.67429" lon="5.59303">
        <ele>465.3</ele>
        <time>2021-03-24T16:10:31Z</time>
      </trkpt>
      <trkpt lat="46.67434" lon="5.59302">
        <ele>465.8</ele>
        <time>2021-03-24T16:10:36Z</time>
      </trkpt>
      <trkpt lat="46.67439" lon="5.59303">
        <ele>466.3</ele>
        <time>2021-03-24T16:10:42Z</time>
      </trkpt>
      <trkpt lat="46.67444" lon="5.59304">
        <ele>467.1</ele>
        <time>2021-03-24T16:10:49Z</time>
      </trkpt>
      <trkpt lat="46.67449" lon="5.59307">
        <ele>468.4</ele>
        <time>2021-03-24T16:10:56Z</time>
      </trkpt>
      <trkpt lat="46.67453" lon="5.5931">
        <ele>469.2</ele>
        <time>2021-03-24T16:11:03Z</time>
      </trkpt>
      <trkpt lat="46.67458" lon="5.59313">
        <ele>469.5</ele>
        <time>2021-03-24T16:11:08Z</time>
      </trkpt>
      <trkpt lat="46.67462" lon="5.59317">
        <ele>469.8</ele>
        <time>2021-03-24T16:11:14Z</time>
      </trkpt>
      <trkpt lat="46.67467" lon="5.59318">
        <ele>470.1</ele>
        <time>2021-03-24T16:11:19Z</time>
      </trkpt>
      <trkpt lat="46.67482" lon="5.59314">
        <ele>473.1</ele>
        <time>2021-03-24T16:11:23Z</time>
      </trkpt>
      <trkpt lat="46.67491" lon="5.59315">
        <ele>475.6</ele>
        <time>2021-03-24T16:11:27Z</time>
      </trkpt>
      <trkpt lat="46.67495" lon="5.5932">
        <ele>477.3</ele>
        <time>2021-03-24T16:11:31Z</time>
      </trkpt>
      <trkpt lat="46.67499" lon="5.59325">
        <ele>478.7</ele>
        <time>2021-03-24T16:11:36Z</time>
      </trkpt>
      <trkpt lat="46.67503" lon="5.59328">
        <ele>479.7</ele>
        <time>2021-03-24T16:11:41Z</time>
      </trkpt>
      <trkpt lat="46.67508" lon="5.5933">
        <ele>480.7</ele>
        <time>2021-03-24T16:11:47Z</time>
      </trkpt>
      <trkpt lat="46.67512" lon="5.59333">
        <ele>481.2</ele>
        <time>2021-03-24T16:11:53Z</time>
      </trkpt>
      <trkpt lat="46.67516" lon="5.59336">
        <ele>481</ele>
        <time>2021-03-24T16:12:06Z</time>
      </trkpt>
      <trkpt lat="46.67523" lon="5.59339">
        <ele>479.6</ele>
        <time>2021-03-24T16:12:10Z</time>
      </trkpt>
      <trkpt lat="46.67528" lon="5.5934">
        <ele>478.2</ele>
        <time>2021-03-24T16:12:14Z</time>
      </trkpt>
      <trkpt lat="46.67534" lon="5.5934">
        <ele>476.9</ele>
        <time>2021-03-24T16:12:18Z</time>
      </trkpt>
      <trkpt lat="46.67542" lon="5.59342">
        <ele>475.4</ele>
        <time>2021-03-24T16:12:22Z</time>
      </trkpt>
      <trkpt lat="46.67547" lon="5.59344">
        <ele>473.8</ele>
        <time>2021-03-24T16:12:26Z</time>
      </trkpt>
      <trkpt lat="46.67551" lon="5.59347">
        <ele>472.2</ele>
        <time>2021-03-24T16:12:32Z</time>
      </trkpt>
      <trkpt lat="46.67556" lon="5.59348">
        <ele>471.2</ele>
        <time>2021-03-24T16:12:38Z</time>
      </trkpt>
      <trkpt lat="46.67561" lon="5.59349">
        <ele>470.5</ele>
        <time>2021-03-24T16:12:44Z</time>
      </trkpt>
      <trkpt lat="46.67566" lon="5.59351">
        <ele>470.1</ele>
        <time>2021-03-24T16:12:51Z</time>
      </trkpt>
      <trkpt lat="46.67572" lon="5.59346">
        <ele>476.2</ele>
        <time>2021-03-24T16:12:56Z</time>
      </trkpt>
      <trkpt lat="46.67577" lon="5.59342">
        <ele>482.5</ele>
        <time>2021-03-24T16:13:00Z</time>
      </trkpt>
      <trkpt lat="46.67582" lon="5.59343">
        <ele>487.2</ele>
        <time>2021-03-24T16:13:05Z</time>
      </trkpt>
      <trkpt lat="46.67587" lon="5.59346">
        <ele>489.2</ele>
        <time>2021-03-24T16:13:09Z</time>
      </trkpt>
      <trkpt lat="46.67591" lon="5.59349">
        <ele>490.1</ele>
        <time>2021-03-24T16:13:13Z</time>
      </trkpt>
      <trkpt lat="46.67596" lon="5.59351">
        <ele>490.3</ele>
        <time>2021-03-24T16:13:17Z</time>
      </trkpt>
      <trkpt lat="46.676" lon="5.59352">
        <ele>489.7</ele>
        <time>2021-03-24T16:13:22Z</time>
      </trkpt>
      <trkpt lat="46.67605" lon="5.59356">
        <ele>488.5</ele>
        <time>2021-03-24T16:13:28Z</time>
      </trkpt>
      <trkpt lat="46.6761" lon="5.59357">
        <ele>487.3</ele>
        <time>2021-03-24T16:13:32Z</time>
      </trkpt>
      <trkpt lat="46.67615" lon="5.59361">
        <ele>485.8</ele>
        <time>2021-03-24T16:13:36Z</time>
      </trkpt>
      <trkpt lat="46.67619" lon="5.59364">
        <ele>484.2</ele>
        <time>2021-03-24T16:13:41Z</time>
      </trkpt>
      <trkpt lat="46.67624" lon="5.59368">
        <ele>482.4</ele>
        <time>2021-03-24T16:13:49Z</time>
      </trkpt>
      <trkpt lat="46.67628" lon="5.59372">
        <ele>481.4</ele>
        <time>2021-03-24T16:13:55Z</time>
      </trkpt>
      <trkpt lat="46.67633" lon="5.59372">
        <ele>481.2</ele>
        <time>2021-03-24T16:14:00Z</time>
      </trkpt>
      <trkpt lat="46.67639" lon="5.59371">
        <ele>480.9</ele>
        <time>2021-03-24T16:14:04Z</time>
      </trkpt>
      <trkpt lat="46.67643" lon="5.59371">
        <ele>480.6</ele>
        <time>2021-03-24T16:14:10Z</time>
      </trkpt>
      <trkpt lat="46.67648" lon="5.59373">
        <ele>481.3</ele>
        <time>2021-03-24T16:14:17Z</time>
      </trkpt>
      <trkpt lat="46.67653" lon="5.59371">
        <ele>482.7</ele>
        <time>2021-03-24T16:14:24Z</time>
      </trkpt>
      <trkpt lat="46.67658" lon="5.5937">
        <ele>485.4</ele>
        <time>2021-03-24T16:14:31Z</time>
      </trkpt>
      <trkpt lat="46.67663" lon="5.59373">
        <ele>487.4</ele>
        <time>2021-03-24T16:14:36Z</time>
      </trkpt>
      <trkpt lat="46.67667" lon="5.59377">
        <ele>489.3</ele>
        <time>2021-03-24T16:14:41Z</time>
      </trkpt>
      <trkpt lat="46.6767" lon="5.59381">
        <ele>491.2</ele>
        <time>2021-03-24T16:14:46Z</time>
      </trkpt>
      <trkpt lat="46.67674" lon="5.59386">
        <ele>492</ele>
        <time>2021-03-24T16:14:50Z</time>
      </trkpt>
      <trkpt lat="46.67678" lon="5.5939">
        <ele>492.3</ele>
        <time>2021-03-24T16:14:54Z</time>
      </trkpt>
      <trkpt lat="46.67681" lon="5.59395">
        <ele>492.4</ele>
        <time>2021-03-24T16:15:00Z</time>
      </trkpt>
      <trkpt lat="46.67685" lon="5.594">
        <ele>492</ele>
        <time>2021-03-24T16:15:05Z</time>
      </trkpt>
      <trkpt lat="46.67689" lon="5.59406">
        <ele>491.7</ele>
        <time>2021-03-24T16:15:09Z</time>
      </trkpt>
      <trkpt lat="46.67693" lon="5.5941">
        <ele>491.3</ele>
        <time>2021-03-24T16:15:13Z</time>
      </trkpt>
      <trkpt lat="46.67698" lon="5.59415">
        <ele>491</ele>
        <time>2021-03-24T16:15:17Z</time>
      </trkpt>
      <trkpt lat="46.67702" lon="5.5942">
        <ele>490.8</ele>
        <time>2021-03-24T16:15:21Z</time>
      </trkpt>
      <trkpt lat="46.67705" lon="5.59424">
        <ele>490.3</ele>
        <time>2021-03-24T16:15:27Z</time>
      </trkpt>
      <trkpt lat="46.6771" lon="5.59424">
        <ele>490.1</ele>
        <time>2021-03-24T16:15:39Z</time>
      </trkpt>
      <trkpt lat="46.67714" lon="5.5942">
        <ele>491.1</ele>
        <time>2021-03-24T16:15:44Z</time>
      </trkpt>
      <trkpt lat="46.67719" lon="5.59416">
        <ele>492.2</ele>
        <time>2021-03-24T16:15:49Z</time>
      </trkpt>
      <trkpt lat="46.67722" lon="5.59411">
        <ele>493.9</ele>
        <time>2021-03-24T16:15:56Z</time>
      </trkpt>
      <trkpt lat="46.67726" lon="5.59408">
        <ele>494.2</ele>
        <time>2021-03-24T16:16:08Z</time>
      </trkpt>
      <trkpt lat="46.67724" lon="5.59414">
        <ele>493.8</ele>
        <time>2021-03-24T16:16:42Z</time>
      </trkpt>
      <trkpt lat="46.6772" lon="5.59419">
        <ele>493.8</ele>
        <time>2021-03-24T16:16:48Z</time>
      </trkpt>
      <trkpt lat="46.67716" lon="5.59423">
        <ele>493.5</ele>
        <time>2021-03-24T16:16:53Z</time>
      </trkpt>
      <trkpt lat="46.67711" lon="5.59426">
        <ele>493.4</ele>
        <time>2021-03-24T16:16:57Z</time>
      </trkpt>
      <trkpt lat="46.67707" lon="5.59429">
        <ele>493.4</ele>
        <time>2021-03-24T16:17:03Z</time>
      </trkpt>
      <trkpt lat="46.67703" lon="5.59434">
        <ele>492.7</ele>
        <time>2021-03-24T16:17:10Z</time>
      </trkpt>
      <trkpt lat="46.677" lon="5.59439">
        <ele>491.6</ele>
        <time>2021-03-24T16:17:16Z</time>
      </trkpt>
      <trkpt lat="46.67696" lon="5.59445">
        <ele>491.1</ele>
        <time>2021-03-24T16:17:22Z</time>
      </trkpt>
      <trkpt lat="46.67694" lon="5.5945">
        <ele>491.2</ele>
        <time>2021-03-24T16:17:26Z</time>
      </trkpt>
      <trkpt lat="46.67691" lon="5.59456">
        <ele>491</ele>
        <time>2021-03-24T16:17:32Z</time>
      </trkpt>
      <trkpt lat="46.6769" lon="5.59463">
        <ele>491.5</ele>
        <time>2021-03-24T16:17:39Z</time>
      </trkpt>
      <trkpt lat="46.6769" lon="5.5947">
        <ele>492.7</ele>
        <time>2021-03-24T16:17:46Z</time>
      </trkpt>
      <trkpt lat="46.6769" lon="5.59477">
        <ele>494.3</ele>
        <time>2021-03-24T16:17:54Z</time>
      </trkpt>
      <trkpt lat="46.67692" lon="5.59483">
        <ele>496.1</ele>
        <time>2021-03-24T16:18:07Z</time>
      </trkpt>
      <trkpt lat="46.67692" lon="5.59491">
        <ele>497.3</ele>
        <time>2021-03-24T16:18:11Z</time>
      </trkpt>
      <trkpt lat="46.67691" lon="5.59498">
        <ele>498.4</ele>
        <time>2021-03-24T16:18:16Z</time>
      </trkpt>
      <trkpt lat="46.6769" lon="5.59504">
        <ele>498.9</ele>
        <time>2021-03-24T16:18:20Z</time>
      </trkpt>
      <trkpt lat="46.67689" lon="5.59511">
        <ele>499.7</ele>
        <time>2021-03-24T16:18:26Z</time>
      </trkpt>
      <trkpt lat="46.67687" lon="5.59518">
        <ele>500.4</ele>
        <time>2021-03-24T16:18:31Z</time>
      </trkpt>
      <trkpt lat="46.67685" lon="5.59525">
        <ele>500.9</ele>
        <time>2021-03-24T16:18:35Z</time>
      </trkpt>
      <trkpt lat="46.67684" lon="5.59531">
        <ele>501.3</ele>
        <time>2021-03-24T16:18:39Z</time>
      </trkpt>
      <trkpt lat="46.67684" lon="5.59539">
        <ele>501.7</ele>
        <time>2021-03-24T16:18:45Z</time>
      </trkpt>
      <trkpt lat="46.67684" lon="5.59546">
        <ele>501.8</ele>
        <time>2021-03-24T16:18:51Z</time>
      </trkpt>
      <trkpt lat="46.67685" lon="5.59553">
        <ele>501.9</ele>
        <time>2021-03-24T16:18:56Z</time>
      </trkpt>
      <trkpt lat="46.67687" lon="5.5956">
        <ele>501.9</ele>
        <time>2021-03-24T16:19:01Z</time>
      </trkpt>
      <trkpt lat="46.67688" lon="5.59567">
        <ele>501.8</ele>
        <time>2021-03-24T16:19:06Z</time>
      </trkpt>
      <trkpt lat="46.67689" lon="5.59574">
        <ele>501.7</ele>
        <time>2021-03-24T16:19:12Z</time>
      </trkpt>
      <trkpt lat="46.67689" lon="5.5958">
        <ele>501.5</ele>
        <time>2021-03-24T16:19:18Z</time>
      </trkpt>
      <trkpt lat="46.6769" lon="5.59587">
        <ele>501.2</ele>
        <time>2021-03-24T16:19:24Z</time>
      </trkpt>
      <trkpt lat="46.67689" lon="5.59596">
        <ele>501.1</ele>
        <time>2021-03-24T16:19:29Z</time>
      </trkpt>
      <trkpt lat="46.67689" lon="5.59603">
        <ele>501</ele>
        <time>2021-03-24T16:19:34Z</time>
      </trkpt>
      <trkpt lat="46.67689" lon="5.59611">
        <ele>501</ele>
        <time>2021-03-24T16:19:39Z</time>
      </trkpt>
      <trkpt lat="46.67689" lon="5.59618">
        <ele>501</ele>
        <time>2021-03-24T16:19:43Z</time>
      </trkpt>
      <trkpt lat="46.6769" lon="5.59626">
        <ele>501</ele>
        <time>2021-03-24T16:19:48Z</time>
      </trkpt>
      <trkpt lat="46.6769" lon="5.59633">
        <ele>501.4</ele>
        <time>2021-03-24T16:19:55Z</time>
      </trkpt>
      <trkpt lat="46.67691" lon="5.5964">
        <ele>501.9</ele>
        <time>2021-03-24T16:20:00Z</time>
      </trkpt>
      <trkpt lat="46.67692" lon="5.59647">
        <ele>502.6</ele>
        <time>2021-03-24T16:20:05Z</time>
      </trkpt>
      <trkpt lat="46.67694" lon="5.59653">
        <ele>503</ele>
        <time>2021-03-24T16:20:10Z</time>
      </trkpt>
      <trkpt lat="46.67693" lon="5.5966">
        <ele>503.5</ele>
        <time>2021-03-24T16:20:15Z</time>
      </trkpt>
      <trkpt lat="46.67694" lon="5.59668">
        <ele>504</ele>
        <time>2021-03-24T16:20:21Z</time>
      </trkpt>
      <trkpt lat="46.67693" lon="5.59675">
        <ele>504.4</ele>
        <time>2021-03-24T16:20:26Z</time>
      </trkpt>
      <trkpt lat="46.67692" lon="5.59682">
        <ele>504.5</ele>
        <time>2021-03-24T16:20:32Z</time>
      </trkpt>
      <trkpt lat="46.67692" lon="5.59689">
        <ele>504.9</ele>
        <time>2021-03-24T16:20:37Z</time>
      </trkpt>
      <trkpt lat="46.67693" lon="5.59696">
        <ele>505.3</ele>
        <time>2021-03-24T16:20:43Z</time>
      </trkpt>
      <trkpt lat="46.67693" lon="5.59704">
        <ele>506</ele>
        <time>2021-03-24T16:20:50Z</time>
      </trkpt>
      <trkpt lat="46.67693" lon="5.59711">
        <ele>506.5</ele>
        <time>2021-03-24T16:20:56Z</time>
      </trkpt>
      <trkpt lat="46.67693" lon="5.59718">
        <ele>507.1</ele>
        <time>2021-03-24T16:21:02Z</time>
      </trkpt>
      <trkpt lat="46.67693" lon="5.59725">
        <ele>507.5</ele>
        <time>2021-03-24T16:21:07Z</time>
      </trkpt>
      <trkpt lat="46.67695" lon="5.59732">
        <ele>507.9</ele>
        <time>2021-03-24T16:21:11Z</time>
      </trkpt>
      <trkpt lat="46.67697" lon="5.59739">
        <ele>508.4</ele>
        <time>2021-03-24T16:21:16Z</time>
      </trkpt>
      <trkpt lat="46.67699" lon="5.59746">
        <ele>508.8</ele>
        <time>2021-03-24T16:21:20Z</time>
      </trkpt>
      <trkpt lat="46.677" lon="5.59754">
        <ele>509.3</ele>
        <time>2021-03-24T16:21:24Z</time>
      </trkpt>
      <trkpt lat="46.67701" lon="5.59761">
        <ele>510.4</ele>
        <time>2021-03-24T16:21:28Z</time>
      </trkpt>
      <trkpt lat="46.67701" lon="5.59769">
        <ele>511.6</ele>
        <time>2021-03-24T16:21:33Z</time>
      </trkpt>
      <trkpt lat="46.67701" lon="5.59776">
        <ele>513</ele>
        <time>2021-03-24T16:21:38Z</time>
      </trkpt>
      <trkpt lat="46.67701" lon="5.59784">
        <ele>514.3</ele>
        <time>2021-03-24T16:21:44Z</time>
      </trkpt>
      <trkpt lat="46.67702" lon="5.59791">
        <ele>515</ele>
        <time>2021-03-24T16:21:49Z</time>
      </trkpt>
      <trkpt lat="46.67703" lon="5.59798">
        <ele>515.7</ele>
        <time>2021-03-24T16:21:54Z</time>
      </trkpt>
      <trkpt lat="46.67704" lon="5.59805">
        <ele>516.6</ele>
        <time>2021-03-24T16:22:00Z</time>
      </trkpt>
      <trkpt lat="46.67706" lon="5.59812">
        <ele>516.5</ele>
        <time>2021-03-24T16:22:05Z</time>
      </trkpt>
      <trkpt lat="46.67708" lon="5.59818">
        <ele>516</ele>
        <time>2021-03-24T16:22:10Z</time>
      </trkpt>
      <trkpt lat="46.6771" lon="5.59825">
        <ele>515.6</ele>
        <time>2021-03-24T16:22:16Z</time>
      </trkpt>
      <trkpt lat="46.67711" lon="5.59832">
        <ele>515.3</ele>
        <time>2021-03-24T16:22:22Z</time>
      </trkpt>
      <trkpt lat="46.67713" lon="5.59839">
        <ele>514.7</ele>
        <time>2021-03-24T16:22:29Z</time>
      </trkpt>
      <trkpt lat="46.67713" lon="5.59846">
        <ele>514.9</ele>
        <time>2021-03-24T16:22:34Z</time>
      </trkpt>
      <trkpt lat="46.67715" lon="5.59852">
        <ele>515.7</ele>
        <time>2021-03-24T16:22:39Z</time>
      </trkpt>
      <trkpt lat="46.67719" lon="5.59857">
        <ele>516.6</ele>
        <time>2021-03-24T16:22:44Z</time>
      </trkpt>
      <trkpt lat="46.67721" lon="5.59863">
        <ele>517.5</ele>
        <time>2021-03-24T16:22:48Z</time>
      </trkpt>
      <trkpt lat="46.67723" lon="5.5987">
        <ele>518.5</ele>
        <time>2021-03-24T16:22:54Z</time>
      </trkpt>
      <trkpt lat="46.67722" lon="5.59877">
        <ele>518.9</ele>
        <time>2021-03-24T16:22:59Z</time>
      </trkpt>
      <trkpt lat="46.67722" lon="5.59885">
        <ele>519.1</ele>
        <time>2021-03-24T16:23:05Z</time>
      </trkpt>
      <trkpt lat="46.67722" lon="5.59893">
        <ele>519.9</ele>
        <time>2021-03-24T16:23:11Z</time>
      </trkpt>
      <trkpt lat="46.67723" lon="5.599">
        <ele>520.8</ele>
        <time>2021-03-24T16:23:16Z</time>
      </trkpt>
      <trkpt lat="46.67724" lon="5.59907">
        <ele>521.5</ele>
        <time>2021-03-24T16:23:20Z</time>
      </trkpt>
      <trkpt lat="46.67726" lon="5.59913">
        <ele>522.3</ele>
        <time>2021-03-24T16:23:25Z</time>
      </trkpt>
      <trkpt lat="46.67727" lon="5.5992">
        <ele>523.2</ele>
        <time>2021-03-24T16:23:30Z</time>
      </trkpt>
      <trkpt lat="46.6773" lon="5.59926">
        <ele>523.9</ele>
        <time>2021-03-24T16:23:34Z</time>
      </trkpt>
      <trkpt lat="46.67732" lon="5.59932">
        <ele>524</ele>
        <time>2021-03-24T16:23:40Z</time>
      </trkpt>
      <trkpt lat="46.67734" lon="5.59939">
        <ele>523.9</ele>
        <time>2021-03-24T16:23:44Z</time>
      </trkpt>
      <trkpt lat="46.67736" lon="5.59946">
        <ele>524.4</ele>
        <time>2021-03-24T16:23:48Z</time>
      </trkpt>
      <trkpt lat="46.67738" lon="5.59954">
        <ele>524.9</ele>
        <time>2021-03-24T16:23:53Z</time>
      </trkpt>
      <trkpt lat="46.67739" lon="5.5996">
        <ele>525.5</ele>
        <time>2021-03-24T16:23:57Z</time>
      </trkpt>
      <trkpt lat="46.67742" lon="5.59967">
        <ele>526.7</ele>
        <time>2021-03-24T16:24:03Z</time>
      </trkpt>
      <trkpt lat="46.67743" lon="5.59974">
        <ele>527.4</ele>
        <time>2021-03-24T16:24:08Z</time>
      </trkpt>
      <trkpt lat="46.67744" lon="5.59981">
        <ele>528.1</ele>
        <time>2021-03-24T16:24:13Z</time>
      </trkpt>
      <trkpt lat="46.67746" lon="5.59987">
        <ele>528.8</ele>
        <time>2021-03-24T16:24:18Z</time>
      </trkpt>
      <trkpt lat="46.67749" lon="5.59994">
        <ele>529.4</ele>
        <time>2021-03-24T16:24:23Z</time>
      </trkpt>
      <trkpt lat="46.6775" lon="5.60001">
        <ele>530.1</ele>
        <time>2021-03-24T16:24:28Z</time>
      </trkpt>
      <trkpt lat="46.67752" lon="5.60008">
        <ele>530.8</ele>
        <time>2021-03-24T16:24:33Z</time>
      </trkpt>
      <trkpt lat="46.67753" lon="5.60016">
        <ele>531.5</ele>
        <time>2021-03-24T16:24:37Z</time>
      </trkpt>
      <trkpt lat="46.67756" lon="5.60022">
        <ele>532.5</ele>
        <time>2021-03-24T16:24:41Z</time>
      </trkpt>
      <trkpt lat="46.6776" lon="5.60028">
        <ele>533.4</ele>
        <time>2021-03-24T16:24:45Z</time>
      </trkpt>
      <trkpt lat="46.67763" lon="5.60035">
        <ele>534.3</ele>
        <time>2021-03-24T16:24:49Z</time>
      </trkpt>
      <trkpt lat="46.67768" lon="5.60041">
        <ele>535.4</ele>
        <time>2021-03-24T16:24:53Z</time>
      </trkpt>
      <trkpt lat="46.67771" lon="5.60048">
        <ele>536.5</ele>
        <time>2021-03-24T16:24:57Z</time>
      </trkpt>
      <trkpt lat="46.67774" lon="5.60053">
        <ele>537.9</ele>
        <time>2021-03-24T16:25:01Z</time>
      </trkpt>
      <trkpt lat="46.67778" lon="5.60058">
        <ele>539.1</ele>
        <time>2021-03-24T16:25:05Z</time>
      </trkpt>
      <trkpt lat="46.67782" lon="5.60063">
        <ele>540.3</ele>
        <time>2021-03-24T16:25:10Z</time>
      </trkpt>
      <trkpt lat="46.67786" lon="5.60067">
        <ele>541</ele>
        <time>2021-03-24T16:25:14Z</time>
      </trkpt>
      <trkpt lat="46.6779" lon="5.60072">
        <ele>541.6</ele>
        <time>2021-03-24T16:25:18Z</time>
      </trkpt>
      <trkpt lat="46.67792" lon="5.60078">
        <ele>542.2</ele>
        <time>2021-03-24T16:25:22Z</time>
      </trkpt>
      <trkpt lat="46.67794" lon="5.60084">
        <ele>542.6</ele>
        <time>2021-03-24T16:25:26Z</time>
      </trkpt>
      <trkpt lat="46.67795" lon="5.60091">
        <ele>543</ele>
        <time>2021-03-24T16:25:32Z</time>
      </trkpt>
      <trkpt lat="46.67797" lon="5.60099">
        <ele>542.8</ele>
        <time>2021-03-24T16:25:37Z</time>
      </trkpt>
      <trkpt lat="46.678" lon="5.60106">
        <ele>542.6</ele>
        <time>2021-03-24T16:25:42Z</time>
      </trkpt>
      <trkpt lat="46.67803" lon="5.60112">
        <ele>542.5</ele>
        <time>2021-03-24T16:25:47Z</time>
      </trkpt>
      <trkpt lat="46.67805" lon="5.6012">
        <ele>542.3</ele>
        <time>2021-03-24T16:25:52Z</time>
      </trkpt>
      <trkpt lat="46.67807" lon="5.60127">
        <ele>542</ele>
        <time>2021-03-24T16:25:57Z</time>
      </trkpt>
      <trkpt lat="46.67809" lon="5.60134">
        <ele>541.6</ele>
        <time>2021-03-24T16:26:02Z</time>
      </trkpt>
      <trkpt lat="46.67812" lon="5.60141">
        <ele>541.4</ele>
        <time>2021-03-24T16:26:07Z</time>
      </trkpt>
      <trkpt lat="46.67813" lon="5.60148">
        <ele>541.1</ele>
        <time>2021-03-24T16:26:12Z</time>
      </trkpt>
      <trkpt lat="46.67814" lon="5.60155">
        <ele>540.6</ele>
        <time>2021-03-24T16:26:17Z</time>
      </trkpt>
      <trkpt lat="46.67813" lon="5.60162">
        <ele>539.7</ele>
        <time>2021-03-24T16:26:22Z</time>
      </trkpt>
      <trkpt lat="46.67811" lon="5.60169">
        <ele>539.3</ele>
        <time>2021-03-24T16:26:26Z</time>
      </trkpt>
      <trkpt lat="46.67809" lon="5.60177">
        <ele>539.2</ele>
        <time>2021-03-24T16:26:30Z</time>
      </trkpt>
      <trkpt lat="46.67808" lon="5.60185">
        <ele>539.2</ele>
        <time>2021-03-24T16:26:34Z</time>
      </trkpt>
      <trkpt lat="46.67806" lon="5.60193">
        <ele>539.2</ele>
        <time>2021-03-24T16:26:38Z</time>
      </trkpt>
      <trkpt lat="46.67805" lon="5.602">
        <ele>539.4</ele>
        <time>2021-03-24T16:26:42Z</time>
      </trkpt>
      <trkpt lat="46.67804" lon="5.60207">
        <ele>539.4</ele>
        <time>2021-03-24T16:26:46Z</time>
      </trkpt>
      <trkpt lat="46.67802" lon="5.60214">
        <ele>539.3</ele>
        <time>2021-03-24T16:26:50Z</time>
      </trkpt>
      <trkpt lat="46.67801" lon="5.60221">
        <ele>539.2</ele>
        <time>2021-03-24T16:26:55Z</time>
      </trkpt>
      <trkpt lat="46.678" lon="5.60228">
        <ele>539.3</ele>
        <time>2021-03-24T16:27:03Z</time>
      </trkpt>
      <trkpt lat="46.67804" lon="5.60232">
        <ele>538.2</ele>
        <time>2021-03-24T16:27:55Z</time>
      </trkpt>
      <trkpt lat="46.67809" lon="5.60235">
        <ele>538.5</ele>
        <time>2021-03-24T16:28:00Z</time>
      </trkpt>
      <trkpt lat="46.67813" lon="5.6024">
        <ele>538.9</ele>
        <time>2021-03-24T16:28:07Z</time>
      </trkpt>
      <trkpt lat="46.67817" lon="5.60243">
        <ele>539.2</ele>
        <time>2021-03-24T16:28:12Z</time>
      </trkpt>
      <trkpt lat="46.67821" lon="5.60247">
        <ele>539.4</ele>
        <time>2021-03-24T16:28:17Z</time>
      </trkpt>
      <trkpt lat="46.67824" lon="5.60252">
        <ele>539.3</ele>
        <time>2021-03-24T16:28:26Z</time>
      </trkpt>
      <trkpt lat="46.67827" lon="5.60257">
        <ele>538.3</ele>
        <time>2021-03-24T16:28:32Z</time>
      </trkpt>
      <trkpt lat="46.67833" lon="5.60263">
        <ele>541.1</ele>
        <time>2021-03-24T16:28:36Z</time>
      </trkpt>
      <trkpt lat="46.67843" lon="5.60271">
        <ele>544.4</ele>
        <time>2021-03-24T16:28:40Z</time>
      </trkpt>
      <trkpt lat="46.67848" lon="5.60276">
        <ele>547.3</ele>
        <time>2021-03-24T16:28:44Z</time>
      </trkpt>
      <trkpt lat="46.67851" lon="5.60283">
        <ele>550.2</ele>
        <time>2021-03-24T16:28:49Z</time>
      </trkpt>
      <trkpt lat="46.67854" lon="5.6029">
        <ele>552.2</ele>
        <time>2021-03-24T16:28:54Z</time>
      </trkpt>
      <trkpt lat="46.67857" lon="5.60294">
        <ele>554</ele>
        <time>2021-03-24T16:28:59Z</time>
      </trkpt>
      <trkpt lat="46.6786" lon="5.603">
        <ele>555.4</ele>
        <time>2021-03-24T16:29:04Z</time>
      </trkpt>
      <trkpt lat="46.67864" lon="5.60305">
        <ele>556.8</ele>
        <time>2021-03-24T16:29:09Z</time>
      </trkpt>
      <trkpt lat="46.67864" lon="5.60313">
        <ele>555.5</ele>
        <time>2021-03-24T16:29:13Z</time>
      </trkpt>
      <trkpt lat="46.67868" lon="5.60318">
        <ele>555.8</ele>
        <time>2021-03-24T16:29:17Z</time>
      </trkpt>
      <trkpt lat="46.67874" lon="5.60322">
        <ele>556.2</ele>
        <time>2021-03-24T16:29:21Z</time>
      </trkpt>
      <trkpt lat="46.67879" lon="5.60325">
        <ele>556.6</ele>
        <time>2021-03-24T16:29:25Z</time>
      </trkpt>
      <trkpt lat="46.67883" lon="5.60329">
        <ele>557.2</ele>
        <time>2021-03-24T16:29:30Z</time>
      </trkpt>
      <trkpt lat="46.67888" lon="5.60332">
        <ele>557.8</ele>
        <time>2021-03-24T16:29:36Z</time>
      </trkpt>
      <trkpt lat="46.67893" lon="5.60334">
        <ele>558</ele>
        <time>2021-03-24T16:29:40Z</time>
      </trkpt>
      <trkpt lat="46.67897" lon="5.60339">
        <ele>558.1</ele>
        <time>2021-03-24T16:29:44Z</time>
      </trkpt>
      <trkpt lat="46.679" lon="5.60345">
        <ele>558.2</ele>
        <time>2021-03-24T16:29:48Z</time>
      </trkpt>
      <trkpt lat="46.67903" lon="5.60351">
        <ele>558.3</ele>
        <time>2021-03-24T16:29:52Z</time>
      </trkpt>
      <trkpt lat="46.67906" lon="5.60357">
        <ele>558.8</ele>
        <time>2021-03-24T16:29:56Z</time>
      </trkpt>
      <trkpt lat="46.67909" lon="5.60364">
        <ele>559.3</ele>
        <time>2021-03-24T16:30:01Z</time>
      </trkpt>
      <trkpt lat="46.67911" lon="5.60371">
        <ele>559.5</ele>
        <time>2021-03-24T16:30:05Z</time>
      </trkpt>
      <trkpt lat="46.67914" lon="5.60377">
        <ele>559.5</ele>
        <time>2021-03-24T16:30:10Z</time>
      </trkpt>
      <trkpt lat="46.67916" lon="5.60384">
        <ele>559</ele>
        <time>2021-03-24T16:30:16Z</time>
      </trkpt>
      <trkpt lat="46.67918" lon="5.6039">
        <ele>558.6</ele>
        <time>2021-03-24T16:30:21Z</time>
      </trkpt>
      <trkpt lat="46.67921" lon="5.60397">
        <ele>557.5</ele>
        <time>2021-03-24T16:30:26Z</time>
      </trkpt>
      <trkpt lat="46.67919" lon="5.60404">
        <ele>555.2</ele>
        <time>2021-03-24T16:30:39Z</time>
      </trkpt>
      <trkpt lat="46.67921" lon="5.6041">
        <ele>552.5</ele>
        <time>2021-03-24T16:30:48Z</time>
      </trkpt>
      <trkpt lat="46.67924" lon="5.60416">
        <ele>550.7</ele>
        <time>2021-03-24T16:30:56Z</time>
      </trkpt>
      <trkpt lat="46.67925" lon="5.60423">
        <ele>552</ele>
        <time>2021-03-24T16:31:04Z</time>
      </trkpt>
      <trkpt lat="46.67927" lon="5.6043">
        <ele>553.7</ele>
        <time>2021-03-24T16:31:09Z</time>
      </trkpt>
      <trkpt lat="46.67928" lon="5.60436">
        <ele>555.9</ele>
        <time>2021-03-24T16:31:13Z</time>
      </trkpt>
      <trkpt lat="46.6793" lon="5.60443">
        <ele>558.1</ele>
        <time>2021-03-24T16:31:17Z</time>
      </trkpt>
      <trkpt lat="46.67934" lon="5.6045">
        <ele>559.4</ele>
        <time>2021-03-24T16:31:21Z</time>
      </trkpt>
      <trkpt lat="46.67941" lon="5.60457">
        <ele>560.6</ele>
        <time>2021-03-24T16:31:25Z</time>
      </trkpt>
      <trkpt lat="46.67947" lon="5.60463">
        <ele>561.4</ele>
        <time>2021-03-24T16:31:29Z</time>
      </trkpt>
      <trkpt lat="46.67949" lon="5.6047">
        <ele>563.1</ele>
        <time>2021-03-24T16:31:35Z</time>
      </trkpt>
      <trkpt lat="46.6795" lon="5.60477">
        <ele>563.9</ele>
        <time>2021-03-24T16:31:40Z</time>
      </trkpt>
      <trkpt lat="46.67951" lon="5.60485">
        <ele>564.8</ele>
        <time>2021-03-24T16:31:45Z</time>
      </trkpt>
      <trkpt lat="46.67952" lon="5.60492">
        <ele>565</ele>
        <time>2021-03-24T16:31:50Z</time>
      </trkpt>
      <trkpt lat="46.67955" lon="5.60498">
        <ele>564.7</ele>
        <time>2021-03-24T16:31:55Z</time>
      </trkpt>
      <trkpt lat="46.67955" lon="5.60507">
        <ele>564.7</ele>
        <time>2021-03-24T16:32:00Z</time>
      </trkpt>
      <trkpt lat="46.67955" lon="5.60514">
        <ele>564.4</ele>
        <time>2021-03-24T16:32:04Z</time>
      </trkpt>
      <trkpt lat="46.67955" lon="5.60521">
        <ele>564.5</ele>
        <time>2021-03-24T16:32:08Z</time>
      </trkpt>
      <trkpt lat="46.67955" lon="5.60528">
        <ele>564.7</ele>
        <time>2021-03-24T16:32:12Z</time>
      </trkpt>
      <trkpt lat="46.67955" lon="5.60535">
        <ele>565.1</ele>
        <time>2021-03-24T16:32:16Z</time>
      </trkpt>
      <trkpt lat="46.67956" lon="5.60541">
        <ele>565.6</ele>
        <time>2021-03-24T16:32:21Z</time>
      </trkpt>
      <trkpt lat="46.67957" lon="5.60548">
        <ele>566.1</ele>
        <time>2021-03-24T16:32:27Z</time>
      </trkpt>
      <trkpt lat="46.67959" lon="5.60555">
        <ele>566.5</ele>
        <time>2021-03-24T16:32:33Z</time>
      </trkpt>
      <trkpt lat="46.67959" lon="5.60563">
        <ele>566.8</ele>
        <time>2021-03-24T16:32:38Z</time>
      </trkpt>
      <trkpt lat="46.67959" lon="5.6057">
        <ele>567</ele>
        <time>2021-03-24T16:32:42Z</time>
      </trkpt>
      <trkpt lat="46.67961" lon="5.60578">
        <ele>566.8</ele>
        <time>2021-03-24T16:32:46Z</time>
      </trkpt>
      <trkpt lat="46.67963" lon="5.60585">
        <ele>566.1</ele>
        <time>2021-03-24T16:32:51Z</time>
      </trkpt>
      <trkpt lat="46.67964" lon="5.60592">
        <ele>565.4</ele>
        <time>2021-03-24T16:32:57Z</time>
      </trkpt>
      <trkpt lat="46.67965" lon="5.60599">
        <ele>565.1</ele>
        <time>2021-03-24T16:33:02Z</time>
      </trkpt>
      <trkpt lat="46.67967" lon="5.60605">
        <ele>565</ele>
        <time>2021-03-24T16:33:07Z</time>
      </trkpt>
      <trkpt lat="46.6797" lon="5.60612">
        <ele>564.6</ele>
        <time>2021-03-24T16:33:12Z</time>
      </trkpt>
      <trkpt lat="46.67974" lon="5.60617">
        <ele>563.9</ele>
        <time>2021-03-24T16:33:16Z</time>
      </trkpt>
      <trkpt lat="46.67976" lon="5.60624">
        <ele>563.5</ele>
        <time>2021-03-24T16:33:20Z</time>
      </trkpt>
      <trkpt lat="46.67978" lon="5.60631">
        <ele>563.9</ele>
        <time>2021-03-24T16:33:24Z</time>
      </trkpt>
      <trkpt lat="46.67981" lon="5.60636">
        <ele>564.2</ele>
        <time>2021-03-24T16:33:28Z</time>
      </trkpt>
      <trkpt lat="46.67985" lon="5.60641">
        <ele>564.3</ele>
        <time>2021-03-24T16:33:33Z</time>
      </trkpt>
      <trkpt lat="46.67988" lon="5.60646">
        <ele>564.2</ele>
        <time>2021-03-24T16:33:38Z</time>
      </trkpt>
      <trkpt lat="46.67991" lon="5.60651">
        <ele>564</ele>
        <time>2021-03-24T16:33:42Z</time>
      </trkpt>
      <trkpt lat="46.67994" lon="5.60656">
        <ele>563.9</ele>
        <time>2021-03-24T16:33:46Z</time>
      </trkpt>
      <trkpt lat="46.67998" lon="5.60662">
        <ele>563.1</ele>
        <time>2021-03-24T16:33:51Z</time>
      </trkpt>
      <trkpt lat="46.68001" lon="5.60668">
        <ele>561.8</ele>
        <time>2021-03-24T16:33:55Z</time>
      </trkpt>
      <trkpt lat="46.68004" lon="5.60675">
        <ele>560.5</ele>
        <time>2021-03-24T16:34:00Z</time>
      </trkpt>
      <trkpt lat="46.68007" lon="5.6068">
        <ele>559.4</ele>
        <time>2021-03-24T16:34:05Z</time>
      </trkpt>
      <trkpt lat="46.68009" lon="5.60686">
        <ele>558.4</ele>
        <time>2021-03-24T16:34:10Z</time>
      </trkpt>
      <trkpt lat="46.68012" lon="5.60692">
        <ele>557.4</ele>
        <time>2021-03-24T16:34:15Z</time>
      </trkpt>
      <trkpt lat="46.68015" lon="5.60698">
        <ele>556.3</ele>
        <time>2021-03-24T16:34:20Z</time>
      </trkpt>
      <trkpt lat="46.68017" lon="5.60705">
        <ele>555.1</ele>
        <time>2021-03-24T16:34:26Z</time>
      </trkpt>
      <trkpt lat="46.6802" lon="5.60712">
        <ele>554.1</ele>
        <time>2021-03-24T16:34:31Z</time>
      </trkpt>
      <trkpt lat="46.68024" lon="5.60717">
        <ele>553.2</ele>
        <time>2021-03-24T16:34:35Z</time>
      </trkpt>
      <trkpt lat="46.68028" lon="5.60722">
        <ele>551.9</ele>
        <time>2021-03-24T16:34:41Z</time>
      </trkpt>
      <trkpt lat="46.6803" lon="5.60728">
        <ele>550.8</ele>
        <time>2021-03-24T16:34:47Z</time>
      </trkpt>
      <trkpt lat="46.68033" lon="5.60734">
        <ele>549.9</ele>
        <time>2021-03-24T16:34:52Z</time>
      </trkpt>
      <trkpt lat="46.68035" lon="5.6074">
        <ele>549.1</ele>
        <time>2021-03-24T16:34:57Z</time>
      </trkpt>
      <trkpt lat="46.68035" lon="5.60749">
        <ele>549.2</ele>
        <time>2021-03-24T16:35:01Z</time>
      </trkpt>
      <trkpt lat="46.68037" lon="5.60756">
        <ele>548.9</ele>
        <time>2021-03-24T16:35:05Z</time>
      </trkpt>
      <trkpt lat="46.68038" lon="5.60763">
        <ele>548.3</ele>
        <time>2021-03-24T16:35:09Z</time>
      </trkpt>
      <trkpt lat="46.68039" lon="5.6077">
        <ele>547.5</ele>
        <time>2021-03-24T16:35:14Z</time>
      </trkpt>
      <trkpt lat="46.6804" lon="5.60778">
        <ele>547.1</ele>
        <time>2021-03-24T16:35:18Z</time>
      </trkpt>
      <trkpt lat="46.68041" lon="5.60785">
        <ele>546.7</ele>
        <time>2021-03-24T16:35:23Z</time>
      </trkpt>
      <trkpt lat="46.68043" lon="5.60792">
        <ele>546.2</ele>
        <time>2021-03-24T16:35:28Z</time>
      </trkpt>
      <trkpt lat="46.68045" lon="5.60798">
        <ele>545.4</ele>
        <time>2021-03-24T16:35:33Z</time>
      </trkpt>
      <trkpt lat="46.68046" lon="5.60805">
        <ele>544.7</ele>
        <time>2021-03-24T16:35:38Z</time>
      </trkpt>
      <trkpt lat="46.68048" lon="5.60811">
        <ele>543.9</ele>
        <time>2021-03-24T16:35:43Z</time>
      </trkpt>
      <trkpt lat="46.68051" lon="5.60818">
        <ele>543.5</ele>
        <time>2021-03-24T16:35:48Z</time>
      </trkpt>
      <trkpt lat="46.68052" lon="5.60825">
        <ele>543.3</ele>
        <time>2021-03-24T16:35:52Z</time>
      </trkpt>
      <trkpt lat="46.68054" lon="5.60832">
        <ele>542.9</ele>
        <time>2021-03-24T16:35:57Z</time>
      </trkpt>
      <trkpt lat="46.68055" lon="5.60839">
        <ele>542.5</ele>
        <time>2021-03-24T16:36:01Z</time>
      </trkpt>
      <trkpt lat="46.68056" lon="5.60846">
        <ele>542.5</ele>
        <time>2021-03-24T16:36:06Z</time>
      </trkpt>
      <trkpt lat="46.68057" lon="5.60853">
        <ele>542.6</ele>
        <time>2021-03-24T16:36:10Z</time>
      </trkpt>
      <trkpt lat="46.68059" lon="5.6086">
        <ele>543.1</ele>
        <time>2021-03-24T16:36:14Z</time>
      </trkpt>
      <trkpt lat="46.68061" lon="5.60867">
        <ele>543.8</ele>
        <time>2021-03-24T16:36:18Z</time>
      </trkpt>
      <trkpt lat="46.68063" lon="5.60874">
        <ele>544.7</ele>
        <time>2021-03-24T16:36:23Z</time>
      </trkpt>
      <trkpt lat="46.68067" lon="5.60879">
        <ele>545.3</ele>
        <time>2021-03-24T16:36:28Z</time>
      </trkpt>
      <trkpt lat="46.68068" lon="5.60886">
        <ele>546</ele>
        <time>2021-03-24T16:36:32Z</time>
      </trkpt>
      <trkpt lat="46.6807" lon="5.60892">
        <ele>546.4</ele>
        <time>2021-03-24T16:36:36Z</time>
      </trkpt>
      <trkpt lat="46.68072" lon="5.60899">
        <ele>546.7</ele>
        <time>2021-03-24T16:36:40Z</time>
      </trkpt>
      <trkpt lat="46.68074" lon="5.60905">
        <ele>546.8</ele>
        <time>2021-03-24T16:36:44Z</time>
      </trkpt>
      <trkpt lat="46.68077" lon="5.60912">
        <ele>546.8</ele>
        <time>2021-03-24T16:36:49Z</time>
      </trkpt>
      <trkpt lat="46.68078" lon="5.60919">
        <ele>546.7</ele>
        <time>2021-03-24T16:36:54Z</time>
      </trkpt>
      <trkpt lat="46.68079" lon="5.60926">
        <ele>546.5</ele>
        <time>2021-03-24T16:37:00Z</time>
      </trkpt>
      <trkpt lat="46.68081" lon="5.60933">
        <ele>546.4</ele>
        <time>2021-03-24T16:37:05Z</time>
      </trkpt>
      <trkpt lat="46.68083" lon="5.6094">
        <ele>546.3</ele>
        <time>2021-03-24T16:37:11Z</time>
      </trkpt>
      <trkpt lat="46.68086" lon="5.60945">
        <ele>546.4</ele>
        <time>2021-03-24T16:37:17Z</time>
      </trkpt>
      <trkpt lat="46.68089" lon="5.60953">
        <ele>547</ele>
        <time>2021-03-24T16:37:21Z</time>
      </trkpt>
      <trkpt lat="46.68091" lon="5.6096">
        <ele>547.7</ele>
        <time>2021-03-24T16:37:25Z</time>
      </trkpt>
      <trkpt lat="46.68095" lon="5.60963">
        <ele>548</ele>
        <time>2021-03-24T16:37:31Z</time>
      </trkpt>
      <trkpt lat="46.68103" lon="5.60965">
        <ele>548.5</ele>
        <time>2021-03-24T16:37:35Z</time>
      </trkpt>
      <trkpt lat="46.68108" lon="5.60966">
        <ele>548.7</ele>
        <time>2021-03-24T16:37:39Z</time>
      </trkpt>
      <trkpt lat="46.68112" lon="5.60968">
        <ele>548.7</ele>
        <time>2021-03-24T16:37:46Z</time>
      </trkpt>
      <trkpt lat="46.68117" lon="5.6097">
        <ele>548.8</ele>
        <time>2021-03-24T16:37:52Z</time>
      </trkpt>
      <trkpt lat="46.68121" lon="5.60974">
        <ele>548.7</ele>
        <time>2021-03-24T16:37:57Z</time>
      </trkpt>
      <trkpt lat="46.68125" lon="5.6098">
        <ele>549</ele>
        <time>2021-03-24T16:38:02Z</time>
      </trkpt>
      <trkpt lat="46.68129" lon="5.60984">
        <ele>549.6</ele>
        <time>2021-03-24T16:38:06Z</time>
      </trkpt>
      <trkpt lat="46.68132" lon="5.60989">
        <ele>550.1</ele>
        <time>2021-03-24T16:38:11Z</time>
      </trkpt>
      <trkpt lat="46.68135" lon="5.60995">
        <ele>550.8</ele>
        <time>2021-03-24T16:38:18Z</time>
      </trkpt>
      <trkpt lat="46.68137" lon="5.61001">
        <ele>551.7</ele>
        <time>2021-03-24T16:38:25Z</time>
      </trkpt>
      <trkpt lat="46.68141" lon="5.61005">
        <ele>552.3</ele>
        <time>2021-03-24T16:38:30Z</time>
      </trkpt>
      <trkpt lat="46.68145" lon="5.61009">
        <ele>552.6</ele>
        <time>2021-03-24T16:38:34Z</time>
      </trkpt>
      <trkpt lat="46.68149" lon="5.61012">
        <ele>552.8</ele>
        <time>2021-03-24T16:38:38Z</time>
      </trkpt>
      <trkpt lat="46.68152" lon="5.61019">
        <ele>553</ele>
        <time>2021-03-24T16:38:44Z</time>
      </trkpt>
      <trkpt lat="46.68151" lon="5.61025">
        <ele>553.1</ele>
        <time>2021-03-24T16:38:49Z</time>
      </trkpt>
      <trkpt lat="46.68149" lon="5.61033">
        <ele>553</ele>
        <time>2021-03-24T16:38:55Z</time>
      </trkpt>
      <trkpt lat="46.68146" lon="5.61038">
        <ele>552.2</ele>
        <time>2021-03-24T16:39:03Z</time>
      </trkpt>
      <trkpt lat="46.68144" lon="5.61045">
        <ele>551.3</ele>
        <time>2021-03-24T16:39:11Z</time>
      </trkpt>
      <trkpt lat="46.68141" lon="5.61054">
        <ele>549.4</ele>
        <time>2021-03-24T16:39:15Z</time>
      </trkpt>
      <trkpt lat="46.68139" lon="5.6106">
        <ele>548.3</ele>
        <time>2021-03-24T16:39:19Z</time>
      </trkpt>
      <trkpt lat="46.68136" lon="5.61067">
        <ele>547.5</ele>
        <time>2021-03-24T16:39:24Z</time>
      </trkpt>
      <trkpt lat="46.68133" lon="5.61073">
        <ele>547.1</ele>
        <time>2021-03-24T16:39:30Z</time>
      </trkpt>
      <trkpt lat="46.68131" lon="5.61079">
        <ele>547.3</ele>
        <time>2021-03-24T16:39:37Z</time>
      </trkpt>
      <trkpt lat="46.68128" lon="5.61085">
        <ele>547.3</ele>
        <time>2021-03-24T16:39:43Z</time>
      </trkpt>
      <trkpt lat="46.68126" lon="5.61092">
        <ele>547.1</ele>
        <time>2021-03-24T16:39:50Z</time>
      </trkpt>
      <trkpt lat="46.68124" lon="5.61099">
        <ele>546.8</ele>
        <time>2021-03-24T16:39:56Z</time>
      </trkpt>
      <trkpt lat="46.68122" lon="5.61104">
        <ele>546.7</ele>
        <time>2021-03-24T16:40:00Z</time>
      </trkpt>
      <trkpt lat="46.68118" lon="5.61109">
        <ele>546.7</ele>
        <time>2021-03-24T16:40:04Z</time>
      </trkpt>
      <trkpt lat="46.68114" lon="5.61112">
        <ele>546.6</ele>
        <time>2021-03-24T16:40:08Z</time>
      </trkpt>
      <trkpt lat="46.6811" lon="5.61117">
        <ele>546.5</ele>
        <time>2021-03-24T16:40:12Z</time>
      </trkpt>
      <trkpt lat="46.68105" lon="5.6112">
        <ele>546.3</ele>
        <time>2021-03-24T16:40:16Z</time>
      </trkpt>
      <trkpt lat="46.681" lon="5.61124">
        <ele>545.8</ele>
        <time>2021-03-24T16:40:21Z</time>
      </trkpt>
      <trkpt lat="46.68096" lon="5.61125">
        <ele>545.6</ele>
        <time>2021-03-24T16:40:29Z</time>
      </trkpt>
      <trkpt lat="46.6809" lon="5.61126">
        <ele>545</ele>
        <time>2021-03-24T16:40:35Z</time>
      </trkpt>
      <trkpt lat="46.68085" lon="5.61127">
        <ele>544.9</ele>
        <time>2021-03-24T16:40:40Z</time>
      </trkpt>
      <trkpt lat="46.6808" lon="5.61129">
        <ele>545.4</ele>
        <time>2021-03-24T16:40:44Z</time>
      </trkpt>
      <trkpt lat="46.68074" lon="5.6113">
        <ele>546.2</ele>
        <time>2021-03-24T16:40:48Z</time>
      </trkpt>
      <trkpt lat="46.68068" lon="5.6113">
        <ele>547.2</ele>
        <time>2021-03-24T16:40:52Z</time>
      </trkpt>
      <trkpt lat="46.68066" lon="5.61124">
        <ele>551</ele>
        <time>2021-03-24T16:41:02Z</time>
      </trkpt>
      <trkpt lat="46.6806" lon="5.61124">
        <ele>555.8</ele>
        <time>2021-03-24T16:41:59Z</time>
      </trkpt>
      <trkpt lat="46.68064" lon="5.61128">
        <ele>557.1</ele>
        <time>2021-03-24T16:42:24Z</time>
      </trkpt>
      <trkpt lat="46.68065" lon="5.61135">
        <ele>558</ele>
        <time>2021-03-24T16:42:38Z</time>
      </trkpt>
      <trkpt lat="46.68063" lon="5.61142">
        <ele>558.2</ele>
        <time>2021-03-24T16:42:43Z</time>
      </trkpt>
      <trkpt lat="46.68062" lon="5.61148">
        <ele>558.4</ele>
        <time>2021-03-24T16:42:47Z</time>
      </trkpt>
      <trkpt lat="46.68059" lon="5.61156">
        <ele>558</ele>
        <time>2021-03-24T16:42:51Z</time>
      </trkpt>
      <trkpt lat="46.68057" lon="5.61163">
        <ele>557.6</ele>
        <time>2021-03-24T16:42:55Z</time>
      </trkpt>
      <trkpt lat="46.68055" lon="5.6117">
        <ele>557.4</ele>
        <time>2021-03-24T16:43:00Z</time>
      </trkpt>
      <trkpt lat="46.68053" lon="5.61176">
        <ele>557.1</ele>
        <time>2021-03-24T16:43:06Z</time>
      </trkpt>
      <trkpt lat="46.6805" lon="5.61183">
        <ele>556.8</ele>
        <time>2021-03-24T16:43:11Z</time>
      </trkpt>
      <trkpt lat="46.68048" lon="5.6119">
        <ele>556.6</ele>
        <time>2021-03-24T16:43:16Z</time>
      </trkpt>
      <trkpt lat="46.68046" lon="5.61197">
        <ele>556</ele>
        <time>2021-03-24T16:43:24Z</time>
      </trkpt>
      <trkpt lat="46.68043" lon="5.61202">
        <ele>555.6</ele>
        <time>2021-03-24T16:43:31Z</time>
      </trkpt>
      <trkpt lat="46.6804" lon="5.61208">
        <ele>555.3</ele>
        <time>2021-03-24T16:43:37Z</time>
      </trkpt>
      <trkpt lat="46.68037" lon="5.61213">
        <ele>554.7</ele>
        <time>2021-03-24T16:43:41Z</time>
      </trkpt>
      <trkpt lat="46.68034" lon="5.61222">
        <ele>550.6</ele>
        <time>2021-03-24T16:43:45Z</time>
      </trkpt>
      <trkpt lat="46.68032" lon="5.61229">
        <ele>546.4</ele>
        <time>2021-03-24T16:43:52Z</time>
      </trkpt>
      <trkpt lat="46.68031" lon="5.61237">
        <ele>544.9</ele>
        <time>2021-03-24T16:43:58Z</time>
      </trkpt>
      <trkpt lat="46.68029" lon="5.61243">
        <ele>544.3</ele>
        <time>2021-03-24T16:44:04Z</time>
      </trkpt>
      <trkpt lat="46.68028" lon="5.6125">
        <ele>544.2</ele>
        <time>2021-03-24T16:44:10Z</time>
      </trkpt>
      <trkpt lat="46.68027" lon="5.61257">
        <ele>544.4</ele>
        <time>2021-03-24T16:44:16Z</time>
      </trkpt>
      <trkpt lat="46.68026" lon="5.61264">
        <ele>544.6</ele>
        <time>2021-03-24T16:44:22Z</time>
      </trkpt>
      <trkpt lat="46.68025" lon="5.6127">
        <ele>544.6</ele>
        <time>2021-03-24T16:44:27Z</time>
      </trkpt>
      <trkpt lat="46.68024" lon="5.61277">
        <ele>544.7</ele>
        <time>2021-03-24T16:44:33Z</time>
      </trkpt>
      <trkpt lat="46.68022" lon="5.61286">
        <ele>544.6</ele>
        <time>2021-03-24T16:44:55Z</time>
      </trkpt>
      <trkpt lat="46.68019" lon="5.61292">
        <ele>544.5</ele>
        <time>2021-03-24T16:44:59Z</time>
      </trkpt>
      <trkpt lat="46.68017" lon="5.613">
        <ele>544.4</ele>
        <time>2021-03-24T16:45:06Z</time>
      </trkpt>
      <trkpt lat="46.68015" lon="5.61306">
        <ele>544.2</ele>
        <time>2021-03-24T16:45:10Z</time>
      </trkpt>
      <trkpt lat="46.68013" lon="5.61312">
        <ele>544</ele>
        <time>2021-03-24T16:45:16Z</time>
      </trkpt>
      <trkpt lat="46.6801" lon="5.61318">
        <ele>543.7</ele>
        <time>2021-03-24T16:45:25Z</time>
      </trkpt>
      <trkpt lat="46.68008" lon="5.61325">
        <ele>543.2</ele>
        <time>2021-03-24T16:45:32Z</time>
      </trkpt>
      <trkpt lat="46.68005" lon="5.61331">
        <ele>542.8</ele>
        <time>2021-03-24T16:45:37Z</time>
      </trkpt>
      <trkpt lat="46.68005" lon="5.61344">
        <ele>541.6</ele>
        <time>2021-03-24T16:46:01Z</time>
      </trkpt>
      <trkpt lat="46.68003" lon="5.61352">
        <ele>541.2</ele>
        <time>2021-03-24T16:46:05Z</time>
      </trkpt>
      <trkpt lat="46.68001" lon="5.61358">
        <ele>541</ele>
        <time>2021-03-24T16:46:13Z</time>
      </trkpt>
      <trkpt lat="46.68" lon="5.61365">
        <ele>540.6</ele>
        <time>2021-03-24T16:46:22Z</time>
      </trkpt>
      <trkpt lat="46.67999" lon="5.61372">
        <ele>539.6</ele>
        <time>2021-03-24T16:46:27Z</time>
      </trkpt>
      <trkpt lat="46.67999" lon="5.6138">
        <ele>538.7</ele>
        <time>2021-03-24T16:46:31Z</time>
      </trkpt>
      <trkpt lat="46.67997" lon="5.61386">
        <ele>537.7</ele>
        <time>2021-03-24T16:46:35Z</time>
      </trkpt>
      <trkpt lat="46.67996" lon="5.61393">
        <ele>536.3</ele>
        <time>2021-03-24T16:46:41Z</time>
      </trkpt>
      <trkpt lat="46.67992" lon="5.61396">
        <ele>534.7</ele>
        <time>2021-03-24T16:46:48Z</time>
      </trkpt>
      <trkpt lat="46.67988" lon="5.61401">
        <ele>533.6</ele>
        <time>2021-03-24T16:46:55Z</time>
      </trkpt>
      <trkpt lat="46.67986" lon="5.61408">
        <ele>532.9</ele>
        <time>2021-03-24T16:47:00Z</time>
      </trkpt>
      <trkpt lat="46.67985" lon="5.61415">
        <ele>531.9</ele>
        <time>2021-03-24T16:47:05Z</time>
      </trkpt>
      <trkpt lat="46.67983" lon="5.61421">
        <ele>531</ele>
        <time>2021-03-24T16:47:10Z</time>
      </trkpt>
      <trkpt lat="46.67981" lon="5.61428">
        <ele>530.2</ele>
        <time>2021-03-24T16:47:16Z</time>
      </trkpt>
      <trkpt lat="46.67978" lon="5.61434">
        <ele>529.3</ele>
        <time>2021-03-24T16:47:21Z</time>
      </trkpt>
      <trkpt lat="46.67975" lon="5.6144">
        <ele>526.8</ele>
        <time>2021-03-24T16:47:26Z</time>
      </trkpt>
      <trkpt lat="46.67972" lon="5.61446">
        <ele>523.8</ele>
        <time>2021-03-24T16:47:31Z</time>
      </trkpt>
      <trkpt lat="46.67968" lon="5.61451">
        <ele>519.8</ele>
        <time>2021-03-24T16:47:37Z</time>
      </trkpt>
      <trkpt lat="46.67967" lon="5.61458">
        <ele>516.9</ele>
        <time>2021-03-24T16:47:42Z</time>
      </trkpt>
      <trkpt lat="46.67966" lon="5.61465">
        <ele>514.5</ele>
        <time>2021-03-24T16:47:49Z</time>
      </trkpt>
      <trkpt lat="46.67966" lon="5.61473">
        <ele>513.4</ele>
        <time>2021-03-24T16:47:55Z</time>
      </trkpt>
      <trkpt lat="46.67965" lon="5.61481">
        <ele>513.1</ele>
        <time>2021-03-24T16:48:00Z</time>
      </trkpt>
      <trkpt lat="46.67964" lon="5.61488">
        <ele>513</ele>
        <time>2021-03-24T16:48:04Z</time>
      </trkpt>
      <trkpt lat="46.67962" lon="5.61494">
        <ele>513</ele>
        <time>2021-03-24T16:48:08Z</time>
      </trkpt>
      <trkpt lat="46.67961" lon="5.61502">
        <ele>512.6</ele>
        <time>2021-03-24T16:48:12Z</time>
      </trkpt>
      <trkpt lat="46.6796" lon="5.61509">
        <ele>512.4</ele>
        <time>2021-03-24T16:48:16Z</time>
      </trkpt>
      <trkpt lat="46.67958" lon="5.61516">
        <ele>512.1</ele>
        <time>2021-03-24T16:48:22Z</time>
      </trkpt>
      <trkpt lat="46.67957" lon="5.61524">
        <ele>512.1</ele>
        <time>2021-03-24T16:48:27Z</time>
      </trkpt>
      <trkpt lat="46.67954" lon="5.61532">
        <ele>512.1</ele>
        <time>2021-03-24T16:48:31Z</time>
      </trkpt>
      <trkpt lat="46.67951" lon="5.61539">
        <ele>512.4</ele>
        <time>2021-03-24T16:48:35Z</time>
      </trkpt>
      <trkpt lat="46.67948" lon="5.61546">
        <ele>512.9</ele>
        <time>2021-03-24T16:48:39Z</time>
      </trkpt>
      <trkpt lat="46.67947" lon="5.61552">
        <ele>513.4</ele>
        <time>2021-03-24T16:48:44Z</time>
      </trkpt>
      <trkpt lat="46.67945" lon="5.61558">
        <ele>514.2</ele>
        <time>2021-03-24T16:48:48Z</time>
      </trkpt>
      <trkpt lat="46.67942" lon="5.61565">
        <ele>515.1</ele>
        <time>2021-03-24T16:48:52Z</time>
      </trkpt>
      <trkpt lat="46.67939" lon="5.61571">
        <ele>516.1</ele>
        <time>2021-03-24T16:48:57Z</time>
      </trkpt>
      <trkpt lat="46.67938" lon="5.61578">
        <ele>516.8</ele>
        <time>2021-03-24T16:49:01Z</time>
      </trkpt>
      <trkpt lat="46.67937" lon="5.61584">
        <ele>518.1</ele>
        <time>2021-03-24T16:49:06Z</time>
      </trkpt>
      <trkpt lat="46.67937" lon="5.61593">
        <ele>520.3</ele>
        <time>2021-03-24T16:49:13Z</time>
      </trkpt>
      <trkpt lat="46.67936" lon="5.616">
        <ele>523.2</ele>
        <time>2021-03-24T16:49:17Z</time>
      </trkpt>
      <trkpt lat="46.67935" lon="5.61608">
        <ele>525.4</ele>
        <time>2021-03-24T16:49:22Z</time>
      </trkpt>
      <trkpt lat="46.67931" lon="5.61613">
        <ele>526.1</ele>
        <time>2021-03-24T16:49:26Z</time>
      </trkpt>
      <trkpt lat="46.67928" lon="5.61619">
        <ele>526.6</ele>
        <time>2021-03-24T16:49:30Z</time>
      </trkpt>
      <trkpt lat="46.67926" lon="5.61626">
        <ele>527.3</ele>
        <time>2021-03-24T16:49:35Z</time>
      </trkpt>
      <trkpt lat="46.67924" lon="5.61632">
        <ele>528.3</ele>
        <time>2021-03-24T16:49:40Z</time>
      </trkpt>
      <trkpt lat="46.67922" lon="5.61639">
        <ele>529.2</ele>
        <time>2021-03-24T16:49:46Z</time>
      </trkpt>
      <trkpt lat="46.67917" lon="5.61644">
        <ele>529.3</ele>
        <time>2021-03-24T16:49:50Z</time>
      </trkpt>
      <trkpt lat="46.67912" lon="5.61648">
        <ele>528.9</ele>
        <time>2021-03-24T16:49:54Z</time>
      </trkpt>
      <trkpt lat="46.6791" lon="5.61655">
        <ele>527.7</ele>
        <time>2021-03-24T16:49:59Z</time>
      </trkpt>
      <trkpt lat="46.6791" lon="5.61663">
        <ele>526.5</ele>
        <time>2021-03-24T16:50:03Z</time>
      </trkpt>
      <trkpt lat="46.6791" lon="5.61672">
        <ele>525.4</ele>
        <time>2021-03-24T16:50:07Z</time>
      </trkpt>
      <trkpt lat="46.67909" lon="5.61681">
        <ele>524.5</ele>
        <time>2021-03-24T16:50:11Z</time>
      </trkpt>
      <trkpt lat="46.67907" lon="5.61688">
        <ele>523.8</ele>
        <time>2021-03-24T16:50:15Z</time>
      </trkpt>
      <trkpt lat="46.67905" lon="5.61696">
        <ele>523.3</ele>
        <time>2021-03-24T16:50:19Z</time>
      </trkpt>
      <trkpt lat="46.67904" lon="5.61703">
        <ele>523.8</ele>
        <time>2021-03-24T16:50:24Z</time>
      </trkpt>
      <trkpt lat="46.67903" lon="5.6171">
        <ele>525.2</ele>
        <time>2021-03-24T16:50:30Z</time>
      </trkpt>
      <trkpt lat="46.679" lon="5.61716">
        <ele>526.2</ele>
        <time>2021-03-24T16:50:35Z</time>
      </trkpt>
      <trkpt lat="46.67898" lon="5.61723">
        <ele>526.4</ele>
        <time>2021-03-24T16:50:39Z</time>
      </trkpt>
      <trkpt lat="46.67894" lon="5.6173">
        <ele>526.7</ele>
        <time>2021-03-24T16:50:43Z</time>
      </trkpt>
      <trkpt lat="46.67892" lon="5.61737">
        <ele>527.1</ele>
        <time>2021-03-24T16:50:47Z</time>
      </trkpt>
      <trkpt lat="46.6789" lon="5.61744">
        <ele>527.3</ele>
        <time>2021-03-24T16:50:51Z</time>
      </trkpt>
      <trkpt lat="46.67889" lon="5.61751">
        <ele>527.6</ele>
        <time>2021-03-24T16:50:56Z</time>
      </trkpt>
      <trkpt lat="46.67886" lon="5.61758">
        <ele>528</ele>
        <time>2021-03-24T16:51:02Z</time>
      </trkpt>
      <trkpt lat="46.67885" lon="5.61765">
        <ele>528.2</ele>
        <time>2021-03-24T16:51:07Z</time>
      </trkpt>
      <trkpt lat="46.67883" lon="5.61772">
        <ele>528.3</ele>
        <time>2021-03-24T16:51:11Z</time>
      </trkpt>
      <trkpt lat="46.67882" lon="5.61779">
        <ele>528.7</ele>
        <time>2021-03-24T16:51:15Z</time>
      </trkpt>
      <trkpt lat="46.6788" lon="5.61786">
        <ele>528.9</ele>
        <time>2021-03-24T16:51:20Z</time>
      </trkpt>
      <trkpt lat="46.67878" lon="5.61793">
        <ele>529.2</ele>
        <time>2021-03-24T16:51:25Z</time>
      </trkpt>
      <trkpt lat="46.67876" lon="5.61799">
        <ele>529.5</ele>
        <time>2021-03-24T16:51:29Z</time>
      </trkpt>
      <trkpt lat="46.67874" lon="5.61806">
        <ele>529.7</ele>
        <time>2021-03-24T16:51:33Z</time>
      </trkpt>
      <trkpt lat="46.67873" lon="5.61813">
        <ele>529.7</ele>
        <time>2021-03-24T16:51:37Z</time>
      </trkpt>
      <trkpt lat="46.6787" lon="5.61821">
        <ele>530</ele>
        <time>2021-03-24T16:51:42Z</time>
      </trkpt>
      <trkpt lat="46.67869" lon="5.61827">
        <ele>530.7</ele>
        <time>2021-03-24T16:51:46Z</time>
      </trkpt>
      <trkpt lat="46.67868" lon="5.61834">
        <ele>531.1</ele>
        <time>2021-03-24T16:51:51Z</time>
      </trkpt>
      <trkpt lat="46.67866" lon="5.6184">
        <ele>531</ele>
        <time>2021-03-24T16:51:56Z</time>
      </trkpt>
      <trkpt lat="46.67863" lon="5.61846">
        <ele>530.6</ele>
        <time>2021-03-24T16:52:01Z</time>
      </trkpt>
      <trkpt lat="46.67862" lon="5.61853">
        <ele>530.1</ele>
        <time>2021-03-24T16:52:06Z</time>
      </trkpt>
      <trkpt lat="46.6786" lon="5.61859">
        <ele>529.6</ele>
        <time>2021-03-24T16:52:11Z</time>
      </trkpt>
      <trkpt lat="46.67857" lon="5.61866">
        <ele>528.3</ele>
        <time>2021-03-24T16:52:15Z</time>
      </trkpt>
      <trkpt lat="46.67854" lon="5.61872">
        <ele>527.2</ele>
        <time>2021-03-24T16:52:19Z</time>
      </trkpt>
      <trkpt lat="46.67852" lon="5.61878">
        <ele>526.1</ele>
        <time>2021-03-24T16:52:25Z</time>
      </trkpt>
      <trkpt lat="46.6785" lon="5.61885">
        <ele>525.5</ele>
        <time>2021-03-24T16:52:31Z</time>
      </trkpt>
      <trkpt lat="46.67847" lon="5.61893">
        <ele>525.2</ele>
        <time>2021-03-24T16:52:35Z</time>
      </trkpt>
      <trkpt lat="46.67845" lon="5.61899">
        <ele>524.8</ele>
        <time>2021-03-24T16:52:39Z</time>
      </trkpt>
      <trkpt lat="46.67843" lon="5.61905">
        <ele>523.9</ele>
        <time>2021-03-24T16:52:44Z</time>
      </trkpt>
      <trkpt lat="46.6784" lon="5.61911">
        <ele>523.9</ele>
        <time>2021-03-24T16:52:48Z</time>
      </trkpt>
      <trkpt lat="46.67839" lon="5.61918">
        <ele>524</ele>
        <time>2021-03-24T16:52:52Z</time>
      </trkpt>
      <trkpt lat="46.67837" lon="5.61925">
        <ele>523.2</ele>
        <time>2021-03-24T16:52:58Z</time>
      </trkpt>
      <trkpt lat="46.67837" lon="5.61932">
        <ele>522</ele>
        <time>2021-03-24T16:53:04Z</time>
      </trkpt>
      <trkpt lat="46.67835" lon="5.6194">
        <ele>521.1</ele>
        <time>2021-03-24T16:53:09Z</time>
      </trkpt>
      <trkpt lat="46.67833" lon="5.61947">
        <ele>522.2</ele>
        <time>2021-03-24T16:53:13Z</time>
      </trkpt>
      <trkpt lat="46.6783" lon="5.61956">
        <ele>523.4</ele>
        <time>2021-03-24T16:53:17Z</time>
      </trkpt>
      <trkpt lat="46.67828" lon="5.61964">
        <ele>524</ele>
        <time>2021-03-24T16:53:21Z</time>
      </trkpt>
      <trkpt lat="46.67826" lon="5.61971">
        <ele>524.2</ele>
        <time>2021-03-24T16:53:25Z</time>
      </trkpt>
      <trkpt lat="46.67825" lon="5.61978">
        <ele>524.3</ele>
        <time>2021-03-24T16:53:29Z</time>
      </trkpt>
      <trkpt lat="46.67822" lon="5.61985">
        <ele>524.3</ele>
        <time>2021-03-24T16:53:33Z</time>
      </trkpt>
      <trkpt lat="46.67821" lon="5.61993">
        <ele>524.4</ele>
        <time>2021-03-24T16:53:38Z</time>
      </trkpt>
      <trkpt lat="46.6782" lon="5.62">
        <ele>524.1</ele>
        <time>2021-03-24T16:53:43Z</time>
      </trkpt>
      <trkpt lat="46.67817" lon="5.62007">
        <ele>523.6</ele>
        <time>2021-03-24T16:53:49Z</time>
      </trkpt>
      <trkpt lat="46.67814" lon="5.62013">
        <ele>523.2</ele>
        <time>2021-03-24T16:53:53Z</time>
      </trkpt>
      <trkpt lat="46.67813" lon="5.6202">
        <ele>522.7</ele>
        <time>2021-03-24T16:53:58Z</time>
      </trkpt>
      <trkpt lat="46.67811" lon="5.62027">
        <ele>522.1</ele>
        <time>2021-03-24T16:54:04Z</time>
      </trkpt>
      <trkpt lat="46.67809" lon="5.62034">
        <ele>521.7</ele>
        <time>2021-03-24T16:54:09Z</time>
      </trkpt>
      <trkpt lat="46.67808" lon="5.6204">
        <ele>521.1</ele>
        <time>2021-03-24T16:54:14Z</time>
      </trkpt>
      <trkpt lat="46.67807" lon="5.62047">
        <ele>520.4</ele>
        <time>2021-03-24T16:54:20Z</time>
      </trkpt>
      <trkpt lat="46.67804" lon="5.62053">
        <ele>519.8</ele>
        <time>2021-03-24T16:54:26Z</time>
      </trkpt>
      <trkpt lat="46.67802" lon="5.62059">
        <ele>519.3</ele>
        <time>2021-03-24T16:54:30Z</time>
      </trkpt>
      <trkpt lat="46.678" lon="5.62067">
        <ele>518.7</ele>
        <time>2021-03-24T16:54:34Z</time>
      </trkpt>
      <trkpt lat="46.67797" lon="5.62075">
        <ele>518.1</ele>
        <time>2021-03-24T16:54:38Z</time>
      </trkpt>
      <trkpt lat="46.67792" lon="5.62088">
        <ele>524.7</ele>
        <time>2021-03-24T16:54:42Z</time>
      </trkpt>
      <trkpt lat="46.67789" lon="5.62095">
        <ele>530</ele>
        <time>2021-03-24T16:54:46Z</time>
      </trkpt>
      <trkpt lat="46.67786" lon="5.62102">
        <ele>533.7</ele>
        <time>2021-03-24T16:54:51Z</time>
      </trkpt>
      <trkpt lat="46.67784" lon="5.62107">
        <ele>535.8</ele>
        <time>2021-03-24T16:54:56Z</time>
      </trkpt>
      <trkpt lat="46.67782" lon="5.62114">
        <ele>537</ele>
        <time>2021-03-24T16:55:01Z</time>
      </trkpt>
      <trkpt lat="46.67779" lon="5.6212">
        <ele>537.4</ele>
        <time>2021-03-24T16:55:05Z</time>
      </trkpt>
      <trkpt lat="46.67777" lon="5.62127">
        <ele>537.1</ele>
        <time>2021-03-24T16:55:09Z</time>
      </trkpt>
      <trkpt lat="46.67776" lon="5.62134">
        <ele>535.6</ele>
        <time>2021-03-24T16:55:14Z</time>
      </trkpt>
      <trkpt lat="46.67774" lon="5.62142">
        <ele>533.8</ele>
        <time>2021-03-24T16:55:19Z</time>
      </trkpt>
      <trkpt lat="46.67772" lon="5.62149">
        <ele>532.8</ele>
        <time>2021-03-24T16:55:24Z</time>
      </trkpt>
      <trkpt lat="46.67769" lon="5.62155">
        <ele>532.2</ele>
        <time>2021-03-24T16:55:28Z</time>
      </trkpt>
      <trkpt lat="46.67767" lon="5.62162">
        <ele>532.6</ele>
        <time>2021-03-24T16:55:33Z</time>
      </trkpt>
      <trkpt lat="46.67765" lon="5.62169">
        <ele>533.1</ele>
        <time>2021-03-24T16:55:39Z</time>
      </trkpt>
      <trkpt lat="46.67766" lon="5.62177">
        <ele>533.7</ele>
        <time>2021-03-24T16:55:44Z</time>
      </trkpt>
      <trkpt lat="46.67763" lon="5.62184">
        <ele>533.9</ele>
        <time>2021-03-24T16:55:49Z</time>
      </trkpt>
      <trkpt lat="46.6776" lon="5.62191">
        <ele>533.8</ele>
        <time>2021-03-24T16:55:53Z</time>
      </trkpt>
      <trkpt lat="46.67757" lon="5.62199">
        <ele>533.5</ele>
        <time>2021-03-24T16:55:57Z</time>
      </trkpt>
      <trkpt lat="46.67754" lon="5.62205">
        <ele>533.5</ele>
        <time>2021-03-24T16:56:01Z</time>
      </trkpt>
      <trkpt lat="46.67752" lon="5.62212">
        <ele>533.9</ele>
        <time>2021-03-24T16:56:05Z</time>
      </trkpt>
      <trkpt lat="46.67749" lon="5.62218">
        <ele>534.1</ele>
        <time>2021-03-24T16:56:09Z</time>
      </trkpt>
      <trkpt lat="46.67748" lon="5.62225">
        <ele>534.8</ele>
        <time>2021-03-24T16:56:15Z</time>
      </trkpt>
      <trkpt lat="46.67745" lon="5.62232">
        <ele>536.3</ele>
        <time>2021-03-24T16:56:20Z</time>
      </trkpt>
      <trkpt lat="46.67743" lon="5.62238">
        <ele>537.8</ele>
        <time>2021-03-24T16:56:24Z</time>
      </trkpt>
      <trkpt lat="46.67742" lon="5.62245">
        <ele>539.5</ele>
        <time>2021-03-24T16:56:29Z</time>
      </trkpt>
      <trkpt lat="46.6774" lon="5.62252">
        <ele>541.4</ele>
        <time>2021-03-24T16:56:36Z</time>
      </trkpt>
      <trkpt lat="46.67741" lon="5.6226">
        <ele>542.7</ele>
        <time>2021-03-24T16:56:43Z</time>
      </trkpt>
      <trkpt lat="46.67745" lon="5.62264">
        <ele>542.8</ele>
        <time>2021-03-24T16:56:47Z</time>
      </trkpt>
      <trkpt lat="46.67748" lon="5.62269">
        <ele>542.7</ele>
        <time>2021-03-24T16:56:51Z</time>
      </trkpt>
      <trkpt lat="46.67753" lon="5.62273">
        <ele>542.3</ele>
        <time>2021-03-24T16:56:56Z</time>
      </trkpt>
      <trkpt lat="46.67756" lon="5.62278">
        <ele>541.6</ele>
        <time>2021-03-24T16:57:01Z</time>
      </trkpt>
      <trkpt lat="46.6776" lon="5.62284">
        <ele>541</ele>
        <time>2021-03-24T16:57:07Z</time>
      </trkpt>
      <trkpt lat="46.67763" lon="5.62289">
        <ele>540.6</ele>
        <time>2021-03-24T16:57:12Z</time>
      </trkpt>
      <trkpt lat="46.67767" lon="5.62293">
        <ele>540.1</ele>
        <time>2021-03-24T16:57:16Z</time>
      </trkpt>
      <trkpt lat="46.67771" lon="5.62297">
        <ele>539.3</ele>
        <time>2021-03-24T16:57:21Z</time>
      </trkpt>
      <trkpt lat="46.67775" lon="5.62301">
        <ele>538.6</ele>
        <time>2021-03-24T16:57:26Z</time>
      </trkpt>
      <trkpt lat="46.67779" lon="5.62306">
        <ele>538.2</ele>
        <time>2021-03-24T16:57:31Z</time>
      </trkpt>
      <trkpt lat="46.67784" lon="5.62311">
        <ele>538</ele>
        <time>2021-03-24T16:57:36Z</time>
      </trkpt>
      <trkpt lat="46.67788" lon="5.62315">
        <ele>537.9</ele>
        <time>2021-03-24T16:57:40Z</time>
      </trkpt>
      <trkpt lat="46.67792" lon="5.62319">
        <ele>537.9</ele>
        <time>2021-03-24T16:57:45Z</time>
      </trkpt>
      <trkpt lat="46.67796" lon="5.62324">
        <ele>538</ele>
        <time>2021-03-24T16:57:49Z</time>
      </trkpt>
      <trkpt lat="46.678" lon="5.62328">
        <ele>538.2</ele>
        <time>2021-03-24T16:57:54Z</time>
      </trkpt>
      <trkpt lat="46.67804" lon="5.62333">
        <ele>538.4</ele>
        <time>2021-03-24T16:57:59Z</time>
      </trkpt>
      <trkpt lat="46.67809" lon="5.62336">
        <ele>538.6</ele>
        <time>2021-03-24T16:58:04Z</time>
      </trkpt>
      <trkpt lat="46.67813" lon="5.62338">
        <ele>538.6</ele>
        <time>2021-03-24T16:58:09Z</time>
      </trkpt>
      <trkpt lat="46.67818" lon="5.62341">
        <ele>538.4</ele>
        <time>2021-03-24T16:58:14Z</time>
      </trkpt>
      <trkpt lat="46.67824" lon="5.62345">
        <ele>538.4</ele>
        <time>2021-03-24T16:58:18Z</time>
      </trkpt>
      <trkpt lat="46.6783" lon="5.62348">
        <ele>538.3</ele>
        <time>2021-03-24T16:58:22Z</time>
      </trkpt>
      <trkpt lat="46.67834" lon="5.62351">
        <ele>538.2</ele>
        <time>2021-03-24T16:58:26Z</time>
      </trkpt>
      <trkpt lat="46.67838" lon="5.62355">
        <ele>538</ele>
        <time>2021-03-24T16:58:31Z</time>
      </trkpt>
      <trkpt lat="46.67842" lon="5.6236">
        <ele>537.8</ele>
        <time>2021-03-24T16:58:36Z</time>
      </trkpt>
      <trkpt lat="46.67846" lon="5.62366">
        <ele>537.8</ele>
        <time>2021-03-24T16:58:40Z</time>
      </trkpt>
      <trkpt lat="46.6785" lon="5.62371">
        <ele>537.8</ele>
        <time>2021-03-24T16:58:44Z</time>
      </trkpt>
      <trkpt lat="46.67854" lon="5.62377">
        <ele>537.6</ele>
        <time>2021-03-24T16:58:48Z</time>
      </trkpt>
      <trkpt lat="46.67856" lon="5.62382">
        <ele>537.3</ele>
        <time>2021-03-24T16:58:52Z</time>
      </trkpt>
      <trkpt lat="46.67859" lon="5.62388">
        <ele>537</ele>
        <time>2021-03-24T16:58:57Z</time>
      </trkpt>
      <trkpt lat="46.67862" lon="5.62394">
        <ele>536.9</ele>
        <time>2021-03-24T16:59:03Z</time>
      </trkpt>
      <trkpt lat="46.67865" lon="5.62399">
        <ele>536.7</ele>
        <time>2021-03-24T16:59:08Z</time>
      </trkpt>
      <trkpt lat="46.67869" lon="5.62405">
        <ele>536.5</ele>
        <time>2021-03-24T16:59:14Z</time>
      </trkpt>
      <trkpt lat="46.67872" lon="5.62409">
        <ele>536.5</ele>
        <time>2021-03-24T16:59:18Z</time>
      </trkpt>
      <trkpt lat="46.67876" lon="5.62414">
        <ele>536.4</ele>
        <time>2021-03-24T16:59:23Z</time>
      </trkpt>
      <trkpt lat="46.67881" lon="5.62417">
        <ele>536.4</ele>
        <time>2021-03-24T16:59:29Z</time>
      </trkpt>
      <trkpt lat="46.67886" lon="5.6242">
        <ele>536.6</ele>
        <time>2021-03-24T16:59:34Z</time>
      </trkpt>
      <trkpt lat="46.6789" lon="5.62422">
        <ele>536.1</ele>
        <time>2021-03-24T16:59:39Z</time>
      </trkpt>
      <trkpt lat="46.67894" lon="5.62425">
        <ele>535.4</ele>
        <time>2021-03-24T16:59:43Z</time>
      </trkpt>
      <trkpt lat="46.67899" lon="5.62428">
        <ele>534.5</ele>
        <time>2021-03-24T16:59:48Z</time>
      </trkpt>
      <trkpt lat="46.67904" lon="5.62428">
        <ele>533.8</ele>
        <time>2021-03-24T16:59:53Z</time>
      </trkpt>
      <trkpt lat="46.67909" lon="5.62428">
        <ele>533.1</ele>
        <time>2021-03-24T16:59:58Z</time>
      </trkpt>
      <trkpt lat="46.67914" lon="5.62428">
        <ele>532.7</ele>
        <time>2021-03-24T17:00:02Z</time>
      </trkpt>
      <trkpt lat="46.67919" lon="5.62429">
        <ele>532.2</ele>
        <time>2021-03-24T17:00:07Z</time>
      </trkpt>
      <trkpt lat="46.67923" lon="5.62428">
        <ele>531.9</ele>
        <time>2021-03-24T17:00:11Z</time>
      </trkpt>
      <trkpt lat="46.67928" lon="5.62425">
        <ele>532.2</ele>
        <time>2021-03-24T17:00:19Z</time>
      </trkpt>
      <trkpt lat="46.67933" lon="5.62422">
        <ele>532.9</ele>
        <time>2021-03-24T17:00:23Z</time>
      </trkpt>
      <trkpt lat="46.67938" lon="5.6242">
        <ele>533.5</ele>
        <time>2021-03-24T17:00:27Z</time>
      </trkpt>
      <trkpt lat="46.67942" lon="5.62417">
        <ele>533.5</ele>
        <time>2021-03-24T17:00:32Z</time>
      </trkpt>
      <trkpt lat="46.67946" lon="5.62412">
        <ele>531.7</ele>
        <time>2021-03-24T17:00:42Z</time>
      </trkpt>
    </trkseg>
  </trk>
</gpx>